[[{"header":{"parameterUnit":"m.s-1","parameterCategory":1,"la1":30.6,"la2":28.766,"lo1":-90.7593,"lo2":-88.6598,"dy":0.0162,"dx":0.0183,"nx":116,"ny":114,"refTime":"2024-06-08T12:00:00:Z","depth":0,"parameterNumber":2,"parameterNumberName":"U-component_of_WINDS"},"data":[0.0,0.0,0.0,0.0,0.0,0.0,0.0,0.0,0.0,0.0,0.0,0.0,0.0,0.0,0.0,0.0,0.0,0.0,0.0,0.0,0.0,0.0,0.0,0.0,0.0,0.0,0.0,0.0,0.0,0.0,0.0,0.0,0.0,0.0,0.0,0.0,0.0,0.0,0.0,0.0,0.0,0.0,0.0,0.0,0.0,0.0,0.0,0.0,0.0,0.0,0.0,0.0,0.0,0.0,0.0,0.0,0.0,0.0,0.0,0.0,0.0,0.0,0.0,0.0,0.0,0.0,0.0,0.0,0.0,0.0,0.0,0.0,0.0,0.0,0.0,0.0,0.0,0.0,0.0,0.0,0.0,0.0,0.0,0.0,0.0,0.0,0.0,0.0,0.0,0.0,0.0,0.0,0.0,0.0,0.0,0.0,0.0,0.0,0.0,0.0,0.0,0.0,0.0,0.0,0.0,0.0,0.0,0.0,0.0,0.0,0.0,0.0,0.0,0.0,0.0,0.0,0.0,0.0,0.0,0.0,0.0,0.0,0.0,0.0,0.0,0.0,0.0,0.0,0.0,0.0,0.0,0.0,0.0,0.0,0.0,0.0,0.0,0.0,0.0,0.0,0.0,0.0,0.0,0.0,0.0,0.0,0.0,0.0,0.0,0.0,0.0,0.0,0.0,0.0,0.0,0.0,0.0,0.0,0.0,0.0,0.0,0.0,0.0,0.0,0.0,0.0,0.0,0.0,0.0,0.0,0.0,0.0,0.0,0.0,0.0,0.0,0.0,0.0,0.0,0.0,0.0,0.0,0.0,0.0,0.0,0.0,0.0,0.0,0.0,0.0,0.0,0.0,0.0,0.0,0.0,0.0,0.0,0.0,0.0,0.0,0.0,0.0,0.0,0.0,0.0,0.0,0.0,0.0,0.0,0.0,0.0,0.0,0.0,0.0,0.0,0.0,0.0,0.0,0.0,0.0,0.0,0.0,0.0,0.0,0.0,0.0,0.0,0.0,0.0,0.0,0.0,0.0,0.0,0.0,0.0,0.0,0.0,0.0,0.0,0.0,0.0,0.0,0.0,0.0,0.0,0.0,0.0,0.0,0.0,0.0,0.0,0.0,0.0,0.0,0.0,0.0,0.0,0.0,0.0,0.0,0.0,0.0,0.0,0.0,0.0,0.0,0.0,0.0,0.0,0.0,0.0,0.0,0.0,0.0,0.0,0.0,0.0,0.0,0.0,0.0,0.0,0.0,0.0,0.0,0.0,0.0,0.0,0.0,0.0,0.0,0.0,0.0,0.0,0.0,0.0,0.0,0.0,0.0,0.0,0.0,0.0,0.0,0.0,0.0,0.0,0.0,0.0,0.0,0.0,0.0,0.0,0.0,0.0,0.0,0.0,0.0,0.0,0.0,0.0,0.0,0.0,0.0,0.0,0.0,0.0,0.0,0.0,0.0,0.0,0.0,0.0,0.0,0.0,0.0,0.0,0.0,0.0,0.0,0.0,0.0,0.0,0.0,0.0,0.0,0.0,0.0,0.0,0.0,0.0,0.0,0.0,0.0,0.0,0.0,0.0,0.0,0.0,0.0,0.0,0.0,0.0,0.0,0.0,0.0,0.0,0.0,0.0,0.0,0.0,0.0,0.0,0.0,0.0,0.0,0.0,0.0,0.0,0.0,0.0,0.0,0.0,0.0,0.0,0.0,0.0,0.0,0.0,0.0,0.0,0.0,0.0,0.0,0.0,0.0,0.0,0.0,0.0,0.0,0.0,0.0,0.0,0.0,0.0,0.0,0.0,0.0,0.0,0.0,0.0,0.0,0.0,0.0,0.0,0.0,0.0,0.0,0.0,0.0,0.0,0.0,0.0,0.0,0.0,0.0,0.0,0.0,0.0,0.0,0.0,0.0,0.0,0.0,0.0,0.0,0.0,0.0,0.0,0.0,0.0,0.0,0.0,0.0,0.0,0.0,0.0,0.0,0.0,0.0,0.0,0.0,0.0,0.0,0.0,0.0,0.0,0.0,0.0,0.0,0.0,0.0,0.0,0.0,0.0,0.0,0.0,0.0,0.0,0.0,0.0,0.0,0.0,0.0,0.0,0.0,0.0,0.0,0.0,0.0,0.0,0.0,0.0,0.0,0.0,0.0,0.0,0.0,0.0,0.0,0.0,0.0,0.0,0.0,0.0,0.0,0.0,0.0,0.0,0.0,0.0,0.0,0.0,0.0,0.0,0.0,0.0,0.0,0.0,0.0,0.0,0.0,0.0,0.0,0.0,0.0,0.0,0.0,0.0,0.0,0.0,0.0,0.0,0.0,0.0,0.0,0.0,0.0,0.0,0.0,0.0,0.0,0.0,0.0,0.0,0.0,0.0,0.0,0.0,0.0,0.0,0.0,0.0,0.0,0.0,0.0,0.0,0.0,0.0,0.0,0.0,0.0,0.0,0.0,0.0,0.0,0.0,0.0,0.0,0.0,0.0,0.0,0.0,0.0,0.0,0.0,0.0,0.0,0.0,0.0,0.0,0.0,0.0,0.0,0.0,0.0,0.0,0.0,0.0,0.0,0.0,0.0,0.0,0.0,0.0,0.0,0.0,0.0,0.0,0.0,0.0,0.0,0.0,0.0,0.0,0.0,0.0,0.0,0.0,0.0,0.0,0.0,0.0,0.0,0.0,0.0,0.0,0.0,0.0,0.0,0.0,0.0,0.0,0.0,0.0,0.0,0.0,0.0,0.0,0.0,0.0,0.0,0.0,0.0,0.0,0.0,0.0,0.0,0.0,0.0,0.0,0.0,0.0,0.0,0.0,0.0,0.0,0.0,0.0,0.0,0.0,0.0,0.0,0.0,0.0,0.0,0.0,0.0,0.0,0.0,0.0,0.0,0.0,0.0,0.0,0.0,0.0,0.0,0.0,0.0,0.0,0.0,0.0,0.0,0.0,0.0,0.0,0.0,0.0,0.0,0.0,0.0,0.0,0.0,0.0,0.0,0.0,0.0,0.0,0.0,0.0,0.0,0.0,0.0,0.0,0.0,0.0,0.0,0.0,0.0,0.0,0.0,0.0,0.0,0.0,0.0,0.0,0.0,0.0,0.0,0.0,0.0,0.0,0.0,0.0,0.0,0.0,0.0,0.0,0.0,0.0,0.0,0.0,0.0,0.0,0.0,0.0,0.0,0.0,0.0,0.0,0.0,0.0,0.0,0.0,0.0,0.0,0.0,0.0,0.0,0.0,0.0,0.0,0.0,0.0,0.0,0.0,0.0,0.0,0.0,0.0,0.0,0.0,0.0,0.0,0.0,0.0,0.0,0.0,0.0,0.0,0.0,0.0,0.0,0.0,0.0,0.0,0.0,0.0,0.0,0.0,0.0,0.0,0.0,0.0,0.0,0.0,0.0,0.0,0.0,0.0,0.0,0.0,0.0,0.0,0.0,0.0,0.0,0.0,0.0,0.0,0.0,0.0,0.0,0.0,0.0,0.0,0.0,0.0,0.0,0.0,0.0,0.0,0.0,0.0,0.0,0.0,0.0,0.0,0.0,0.0,0.0,0.0,0.0,0.0,0.0,0.0,0.0,0.0,0.0,0.0,0.0,0.0,0.0,0.0,0.0,0.0,0.0,0.0,0.0,0.0,0.0,0.0,0.0,0.0,0.0,0.0,0.0,0.0,0.0,0.0,0.0,0.0,0.0,0.0,0.0,0.0,0.0,0.0,0.0,0.0,0.0,0.0,0.0,0.0,0.0,0.0,0.0,0.0,0.0,0.0,0.0,0.0,0.0,0.0,0.0,0.0,0.0,0.0,0.0,0.0,0.0,0.0,0.0,0.0,0.0,0.0,0.0,0.0,0.0,0.0,0.0,0.0,0.0,0.0,0.0,0.0,0.0,0.0,0.0,0.0,0.0,0.0,0.0,0.0,0.0,0.0,0.0,0.0,0.0,0.0,0.0,0.0,0.0,0.0,0.0,0.0,0.0,0.0,0.0,0.0,0.0,0.0,0.0,0.0,0.0,0.0,0.0,0.0,0.0,0.0,0.0,0.0,0.0,0.0,0.0,0.0,0.0,0.0,0.0,0.0,0.0,0.0,0.0,0.0,0.0,0.0,0.0,0.0,0.0,0.0,0.0,0.0,0.0,0.0,0.0,0.0,0.0,0.0,0.0,0.0,0.0,0.0,0.0,0.0,0.0,0.0,0.0,0.0,0.0,0.0,0.0,0.0,0.0,0.0,0.0,0.0,0.0,0.0,0.0,0.0,0.0,0.0,0.0,0.0,0.0,0.0,0.0,0.0,0.0,0.0,0.0,0.0,0.0,0.0,0.0,0.0,0.0,0.0,0.0,0.0,0.0,0.0,0.0,0.0,0.0,0.0,0.0,0.0,0.0,0.0,0.0,0.0,0.0,0.0,0.0,0.0,0.0,0.0,0.0,0.0,0.0,0.0,0.0,0.0,0.0,0.0,0.0,0.0,0.0,0.0,0.0,0.0,0.0,0.0,0.0,0.0,0.0,0.0,0.0,0.0,0.0,0.0,0.0,0.0,0.0,0.0,0.0,0.0,0.0,0.0,0.0,0.0,0.0,0.0,0.0,0.0,0.0,0.0,0.0,0.0,0.0,0.0,0.0,0.0,0.0,0.0,0.0,0.0,0.0,0.0,0.0,0.0,0.0,0.0,0.0,0.0,0.0,0.0,0.0,0.0,0.0,0.0,0.0,0.0,0.0,0.0,0.0,0.0,0.0,0.0,0.0,0.0,0.0,0.0,0.0,0.0,0.0,0.0,0.0,0.0,0.0,0.0,0.0,0.0,0.0,0.0,0.0,0.0,0.0,0.0,0.0,0.0,0.0,0.0,0.0,0.0,0.0,0.0,0.0,0.0,0.0,0.0,0.0,0.0,0.0,0.0,0.0,0.0,0.0,0.0,0.0,0.0,0.0,0.0,0.0,0.0,0.0,0.0,0.0,0.0,0.0,0.0,0.0,0.0,0.0,0.0,0.0,0.0,0.0,0.0,0.0,0.0,0.0,0.0,0.0,0.0,0.0,0.0,0.0,0.0,0.0,0.0,0.0,0.0,0.0,0.0,0.0,0.0,0.0,0.0,0.0,0.0,0.0,0.0,0.0,0.0,0.0,0.0,0.0,0.0,0.0,0.0,0.0,0.0,0.0,0.0,0.0,0.0,0.0,0.0,0.0,0.0,0.0,0.0,0.0,0.0,0.0,0.0,0.0,0.0,0.0,0.0,0.0,0.0,0.0,0.0,0.0,0.0,0.0,0.0,0.0,0.0,0.0,0.0,0.0,0.0,0.0,0.0,0.0,0.0,0.0,0.0,0.0,0.0,0.0,0.0,0.0,0.0,0.0,0.0,0.0,0.0,0.0,0.0,0.0,0.0,0.0,0.0,0.0,0.0,0.0,0.0,0.0,0.0,0.0,0.0,0.0,0.0,0.0,0.0,0.0,0.0,0.0,0.0,0.0,0.0,0.0,0.0,0.0,0.0,0.0,0.0,0.0,0.0,0.0,0.0,0.0,0.0,0.0,0.0,0.0,0.0,0.0,0.0,0.0,0.0,0.0,0.0,0.0,0.0,0.0,0.0,0.0,0.0,0.0,0.0,0.0,0.0,0.0,0.0,0.0,0.0,0.0,0.0,0.0,0.0,0.0,0.0,0.0,0.0,0.0,0.0,0.0,0.0,0.0,0.0,0.0,0.0,0.0,0.0,0.0,0.0,0.0,0.0,0.0,0.0,0.0,0.0,0.0,0.0,0.0,0.0,0.0,0.0,0.0,0.0,0.0,0.0,0.0,0.0,0.0,0.0,0.0,0.0,0.0,0.0,0.0,0.0,0.0,0.0,0.0,0.0,0.0,0.0,0.0,0.0,0.0,0.0,0.0,0.0,0.0,0.0,0.0,0.0,0.0,0.0,0.0,0.0,0.0,0.0,0.0,0.0,0.0,0.0,0.0,0.0,0.0,0.0,0.0,0.0,0.0,0.0,0.0,0.0,0.0,0.0,0.0,0.0,0.0,0.0,0.0,0.0,0.0,0.0,0.0,0.0,0.0,0.0,0.0,0.0,0.0,0.0,0.0,0.0,0.0,0.0,0.0,0.0,0.0,0.0,0.0,-3.1658,0.0,0.0,0.0,0.0,0.0,0.0,0.0,0.0,0.0,0.0,0.0,0.0,0.0,0.0,0.0,0.0,0.0,0.0,0.0,0.0,0.0,0.0,0.0,0.0,-0.77,-0.8648,-0.9741,-1.0415,-1.1322,-1.2618,0.0,0.0,0.0,0.0,0.0,-1.3253,-1.3357,-1.372,-1.4347,-1.4276,-1.4701,-1.5619,-1.5998,-1.5724,-1.4853,0.0,0.0,0.0,0.0,0.0,0.0,0.0,0.0,0.0,0.0,0.0,0.0,0.0,0.0,0.0,0.0,0.0,0.0,0.0,0.0,0.0,0.0,0.0,0.0,0.0,0.0,0.0,0.0,0.0,0.0,0.0,0.0,0.0,0.0,0.0,0.0,0.0,0.0,0.0,0.0,0.0,0.0,0.0,0.0,0.0,0.0,0.0,0.0,0.0,0.0,0.0,0.0,0.0,0.0,0.0,0.0,0.0,0.0,0.0,0.0,0.0,0.0,0.0,0.0,0.0,0.0,0.0,0.0,0.0,0.0,0.0,-3.2615,0.0,0.0,0.0,0.0,0.0,0.0,0.0,0.0,0.0,0.0,0.0,0.0,0.0,0.0,0.0,0.0,0.0,0.0,0.0,0.0,0.0,-0.6451,-0.626,-0.7361,-0.8399,-0.9194,-0.974,-1.0669,-1.2207,-1.2351,0.0,0.0,0.0,-1.3754,-1.438,-1.4364,-1.4734,-1.5514,-1.5868,-1.6325,-1.694,-1.7562,-1.7002,-1.5464,-1.494,0.0,0.0,0.0,0.0,0.0,0.0,0.0,0.0,0.0,0.0,0.0,0.0,0.0,0.0,0.0,0.0,0.0,0.0,0.0,0.0,0.0,0.0,0.0,0.0,0.0,0.0,0.0,0.0,0.0,0.0,0.0,0.0,0.0,0.0,0.0,0.0,0.0,0.0,0.0,0.0,0.0,0.0,0.0,0.0,0.0,0.0,0.0,0.0,0.0,0.0,0.0,0.0,0.0,0.0,0.0,0.0,0.0,0.0,0.0,0.0,0.0,0.0,0.0,-3.6507,-3.7006,-3.701,-3.7564,-3.7701,-3.7351,-3.4961,-3.4188,-3.4558,-3.321,0.0,0.0,0.0,0.0,0.0,0.0,0.0,0.0,0.0,0.0,0.0,0.0,0.0,0.0,0.0,0.0,0.0,0.0,0.0,-0.6182,-0.5971,-0.7228,-0.8472,-0.9378,-0.9637,-1.0365,-1.179,-1.22,0.0,0.0,-1.3661,-1.4118,-1.3979,-1.3882,-1.4245,-1.5184,-1.6363,-1.6955,-1.6991,-1.7707,-1.8124,-1.8233,-1.7192,-1.7091,-1.7691,0.0,0.0,0.0,0.0,0.0,0.0,0.0,0.0,0.0,0.0,0.0,0.0,0.0,0.0,0.0,0.0,0.0,0.0,0.0,0.0,0.0,0.0,0.0,0.0,0.0,0.0,0.0,0.0,0.0,0.0,0.0,0.0,0.0,0.0,0.0,0.0,0.0,0.0,0.0,0.0,0.0,-2.8169,-2.8385,0.0,0.0,0.0,0.0,0.0,0.0,0.0,0.0,0.0,0.0,0.0,0.0,0.0,-3.7173,-3.8972,-3.9516,-3.9798,-3.979,-3.9823,-3.9532,-3.8932,-3.9024,-3.8763,-3.8198,-3.725,0.0,-3.5989,-3.5184,0.0,0.0,0.0,0.0,0.0,0.0,0.0,0.0,0.0,0.0,0.0,0.0,0.0,0.0,0.0,0.0,0.0,0.0,0.0,0.0,0.0,-0.6304,-0.724,-0.765,-0.819,-0.9014,-1.0199,-1.0753,-1.1338,-1.1996,-1.3126,-1.3607,-1.3349,-1.3761,-1.4499,-1.5566,-1.653,-1.7353,-1.8071,-1.8747,-1.9223,-1.9513,-1.8765,-1.8619,-1.8782,-1.7597,0.0,0.0,0.0,0.0,0.0,0.0,0.0,0.0,0.0,0.0,0.0,0.0,0.0,0.0,0.0,0.0,0.0,0.0,0.0,0.0,0.0,0.0,0.0,0.0,0.0,0.0,0.0,0.0,0.0,0.0,0.0,0.0,0.0,0.0,0.0,0.0,0.0,0.0,0.0,-2.7934,-2.9564,-3.0672,-3.1686,-3.1797,0.0,0.0,0.0,0.0,0.0,0.0,0.0,0.0,0.0,-3.6914,-3.7297,-3.7934,-3.895,-3.9544,-3.9476,-3.8822,-3.9471,-3.9439,-3.8805,-3.9141,-3.9141,-3.8886,-3.8621,-3.7872,-3.6825,-3.5739,-3.4699,-3.3691,0.0,0.0,0.0,0.0,-3.1842,-3.2108,0.0,0.0,0.0,0.0,0.0,0.0,0.0,0.0,0.0,0.0,0.0,0.0,-0.4492,-0.551,-0.6233,-0.6344,-0.6911,-0.7731,-0.8837,-0.9402,-1.0199,-1.1361,-1.235,-1.2824,-1.2743,-1.3602,-1.4553,-1.5602,-1.6376,-1.7376,-1.8514,-1.9128,-1.9627,-1.9949,-1.9703,-1.9643,-1.9638,-1.8379,-1.7737,-1.7452,0.0,0.0,0.0,0.0,0.0,0.0,0.0,0.0,0.0,0.0,0.0,0.0,0.0,0.0,0.0,0.0,0.0,0.0,0.0,0.0,0.0,0.0,0.0,0.0,0.0,0.0,0.0,0.0,0.0,0.0,0.0,0.0,0.0,0.0,0.0,0.0,0.0,-2.9209,-3.0793,-3.2781,-3.341,-3.3386,0.0,0.0,0.0,0.0,0.0,0.0,-3.5623,-3.5984,-3.6906,-3.8462,-3.884,-3.9147,-3.941,-4.0044,-3.972,-3.845,-3.9369,-3.9423,-3.8684,-3.9104,-3.9334,-3.9318,-3.9131,-3.8515,-3.7554,-3.6136,-3.514,-3.445,-3.4234,-3.3921,-3.3547,-3.3384,-3.3685,-3.4067,0.0,0.0,0.0,0.0,0.0,0.0,0.0,0.0,0.0,0.0,0.0,-0.434,-0.4488,-0.5337,-0.6076,-0.6445,-0.641,-0.6943,0.0,-0.8689,-0.947,-1.077,-1.1367,-1.1894,-1.2327,-1.3163,-1.4013,-1.4754,-1.5875,-1.6784,-1.7476,-1.8105,-1.8806,-1.9612,-1.9779,-2.0054,-2.0298,-1.9673,-1.9061,-1.8426,-1.7229,0.0,0.0,0.0,0.0,0.0,0.0,0.0,0.0,0.0,0.0,0.0,0.0,0.0,0.0,0.0,0.0,0.0,0.0,0.0,0.0,0.0,0.0,0.0,0.0,0.0,0.0,0.0,0.0,0.0,0.0,0.0,0.0,0.0,0.0,0.0,0.0,0.0,0.0,-3.4143,-3.4587,0.0,0.0,0.0,0.0,-3.4245,-3.6514,-3.7716,-3.7198,-3.846,-3.9215,-3.9337,-4.0573,-4.1571,-4.2206,-4.2938,-4.2594,-4.1208,-4.1278,-4.0619,-3.9356,-3.9376,-3.9376,-3.9346,-3.8722,-3.8422,-3.8242,-3.6896,-3.5907,-3.5201,-3.4554,-3.461,-3.5021,-3.4463,-3.4275,-3.4189,0.0,0.0,0.0,0.0,0.0,-0.2662,-0.2639,-0.2881,-0.311,-0.3183,-0.3577,-0.3922,-0.4109,-0.4655,-0.5043,-0.5209,-0.5411,-0.579,-0.6431,-0.721,-0.8095,-0.909,-1.0383,-1.1603,-1.2711,-1.2935,-1.3701,-1.5094,-1.5615,-1.6482,-1.7592,-1.7969,-1.835,-1.8789,-1.9432,-1.9859,-2.0066,-1.9647,-1.9187,-1.8633,-1.7551,-1.6636,0.0,0.0,0.0,0.0,0.0,0.0,0.0,0.0,0.0,0.0,0.0,0.0,0.0,0.0,0.0,0.0,0.0,0.0,0.0,0.0,0.0,0.0,0.0,0.0,0.0,0.0,0.0,0.0,0.0,0.0,0.0,0.0,0.0,0.0,0.0,0.0,0.0,-3.5189,-3.5789,0.0,-3.5663,-3.6144,-3.6373,-3.6129,-3.7352,-3.83,-3.8616,-3.9541,-4.0233,-4.0651,-4.1136,-4.1511,-4.1753,-4.2012,-4.1912,-4.139,-4.139,-4.091,-4.0053,-4.0053,-3.974,-3.9199,-3.896,-3.8531,-3.7979,-3.751,-3.6835,-3.6008,-3.5187,-3.5089,-3.5353,-3.487,-3.4775,-3.4821,0.0,0.0,0.0,0.0,-0.2092,-0.2543,-0.2543,-0.2838,-0.3005,-0.2863,-0.3003,-0.3234,-0.3473,-0.3811,-0.4149,-0.4476,-0.4773,-0.5135,-0.5583,-0.6469,-0.7321,-0.8172,-0.9811,-1.131,-1.2487,-1.2705,-1.3469,-1.4863,-1.5095,-1.5698,-1.6683,-1.6903,-1.7269,-1.7706,-1.835,-1.9067,-1.9778,-1.9592,-1.9424,-1.917,-1.8093,-1.739,-1.687,0.0,0.0,0.0,0.0,0.0,0.0,0.0,0.0,0.0,0.0,0.0,0.0,0.0,0.0,0.0,0.0,0.0,0.0,0.0,0.0,0.0,0.0,0.0,0.0,0.0,0.0,0.0,0.0,0.0,0.0,0.0,0.0,0.0,0.0,-3.2761,-3.4438,-3.6006,-3.6667,-3.7028,-3.7134,-3.7481,-3.7767,-3.7946,-3.8603,-3.9239,-3.9795,-4.0472,-4.106,-4.1569,-4.1769,-4.1888,-4.1951,-4.1951,-4.1808,-4.1522,-4.1584,-4.1203,-4.0487,-4.0278,-3.9899,-3.9306,-3.9084,-3.867,-3.8133,-3.7912,-3.7464,-3.6841,-3.5815,-3.5507,-3.5591,-3.509,-3.4968,-3.5082,0.0,0.0,0.0,-0.097,-0.1888,-0.2594,-0.26,-0.2917,-0.2932,-0.2199,-0.2153,-0.2345,-0.2652,-0.2907,-0.3459,-0.443,-0.4604,-0.5039,-0.589,-0.6519,-0.7251,-0.8187,-0.9763,-1.0911,-1.1631,-1.2466,-1.328,-1.4008,-1.4255,-1.4482,-1.4692,-1.4957,-1.5541,-1.6353,-1.6583,-1.7747,-1.9481,-1.9559,-1.9793,-2.0002,-1.8893,-1.905,-1.9749,0.0,0.0,0.0,0.0,0.0,0.0,0.0,0.0,0.0,0.0,0.0,0.0,0.0,0.0,0.0,0.0,0.0,0.0,0.0,0.0,0.0,0.0,0.0,0.0,0.0,0.0,0.0,0.0,0.0,0.0,0.0,0.0,0.0,-3.3438,-3.3758,-3.4551,-3.657,-3.712,-3.747,-3.7819,-3.8839,-3.9572,-3.9694,-4.0327,-4.0709,-4.0709,-4.1366,-4.1824,-4.2006,-4.2469,-4.2809,-4.2996,-4.2981,-4.2564,-4.1705,-4.1942,-4.1562,-4.0694,-4.0153,-3.9843,-3.977,-3.9106,-3.8811,-3.8738,-3.8068,-3.7817,-3.7685,-3.6438,-3.5908,-3.5819,-3.5152,-3.4916,-3.4868,0.0,0.0,-0.077,-0.0902,-0.1689,-0.2324,-0.2377,-0.2689,-0.2674,-0.2041,-0.2169,-0.2434,-0.2658,-0.2367,-0.276,-0.4283,-0.387,-0.3916,-0.4865,-0.5382,-0.66,-0.8701,-0.9955,-1.1171,-1.2389,-1.279,-1.3251,-1.3781,-1.4035,-1.4286,-1.4482,-1.4692,-1.4943,-1.5193,-1.5876,-1.6617,-1.7359,-1.8789,-1.9537,-1.9726,-1.9491,-1.9312,-1.9048,0.0,0.0,0.0,0.0,0.0,0.0,0.0,0.0,0.0,0.0,0.0,0.0,0.0,0.0,0.0,0.0,0.0,0.0,0.0,0.0,0.0,0.0,0.0,0.0,0.0,0.0,0.0,0.0,0.0,0.0,0.0,-3.0807,-3.2185,-3.2624,-3.4761,-3.6517,-3.7113,-3.8036,-3.8719,-3.8795,-3.9494,-3.9998,-4.0193,-4.0832,-4.1292,-4.1425,-4.2069,-4.2463,-4.2503,-4.2625,-4.2729,-4.2769,-4.2769,-4.268,-4.2423,-4.2463,-4.2124,-4.1411,-4.1234,-4.0606,-3.958,-3.9404,-3.894,-3.8337,-3.8162,-3.809,-3.7995,-3.6833,-3.6217,-3.5844,-3.5429,-3.4942,-3.4534,0.0,-0.0102,-0.0655,-0.0762,-0.1541,-0.2171,-0.225,-0.2525,-0.2419,-0.156,-0.162,-0.171,-0.1666,-0.1388,-0.1863,-0.3499,-0.3313,-0.3423,-0.4193,-0.495,-0.6543,-0.9124,-0.9943,-1.1084,-1.2684,-1.2927,-1.3274,-1.3695,-1.387,-1.4033,-1.4279,-1.4489,-1.4566,-1.4608,-1.5179,-1.576,-1.6296,-1.7545,-1.835,-1.8833,-1.8991,-1.9354,-1.9687,-1.8674,-1.8613,-1.9015,-1.8343,-1.8384,-1.8835,-1.916,0.0,0.0,0.0,0.0,0.0,0.0,0.0,0.0,0.0,0.0,0.0,0.0,0.0,0.0,0.0,0.0,0.0,0.0,0.0,0.0,0.0,0.0,0.0,0.0,-3.1514,-3.2781,-3.2781,-3.5396,-3.7506,-3.8043,-3.8971,-3.9683,-3.9973,-4.0568,-4.0986,-4.1106,-4.1496,-4.1857,-4.2228,-4.236,-4.2591,-4.2937,-4.2606,-4.2514,-4.2581,-4.2581,-4.2541,-4.2474,-4.2541,-4.235,-4.1862,-4.1584,-4.0963,-4.014,-3.96,-3.9086,-3.8609,-3.8318,-3.8202,0.0,0.0,0.0,0.0,0.0,-3.5,-3.4414,0.0,0.0,-0.053,-0.0604,-0.1443,-0.2109,-0.2189,-0.2418,-0.2141,-0.0932,-0.0794,-0.065,-0.0223,-0.0234,-0.083,-0.2322,-0.2735,-0.3195,0.0,-0.4938,-0.665,-0.9178,-0.972,-1.0701,-1.2307,-1.2801,-1.3179,-1.3476,-1.3568,-1.3779,-1.4046,-1.4237,-1.4314,-1.4314,-1.4524,-1.5061,-1.5835,-1.618,-1.6804,-1.7595,-1.7802,-1.9119,-2.0833,-1.9232,-1.9163,-1.9715,-1.8498,-1.8048,-1.8036,-1.8228,0.0,0.0,0.0,0.0,0.0,0.0,0.0,0.0,0.0,0.0,0.0,0.0,0.0,0.0,0.0,0.0,0.0,0.0,0.0,0.0,0.0,0.0,0.0,0.0,-3.1639,-3.3573,-3.376,-3.5776,-3.7647,-3.8736,-3.9495,-4.0144,-4.0735,-4.148,-4.1912,-4.1773,-4.2026,-4.2384,-4.2836,-4.2515,0.0,0.0,0.0,-4.2349,-4.2468,-4.2468,-4.2342,-4.2092,-4.2211,-4.2167,-4.1961,-4.1279,-4.0945,-4.0815,-3.9697,-3.916,-3.9044,-3.8449,-3.8127,-3.7979,-3.7512,-3.7302,-3.7157,-3.5872,-3.5009,-3.4501,0.0,-0.0037,-0.0622,-0.0738,-0.1451,-0.2065,-0.2181,-0.234,-0.2014,-0.0806,-0.0778,-0.0684,-0.018,0.0403,0.0096,-0.1503,-0.1702,-0.2424,0.0,0.0,-0.5751,-0.7336,-0.8756,-0.9737,-1.0206,-1.1895,-1.2534,-1.21,-1.2839,-1.3313,-1.3525,-1.373,-1.3857,-1.3857,-1.4117,-1.4405,-1.4761,-1.5504,-1.6194,-1.6729,-1.6887,-1.814,-1.9885,-1.9524,-1.979,-2.0296,-1.9869,-1.9597,-1.95,-1.9938,-1.9863,-1.9748,-2.0489,-2.0292,0.0,0.0,0.0,0.0,0.0,0.0,0.0,0.0,0.0,0.0,0.0,0.0,0.0,0.0,0.0,0.0,0.0,0.0,0.0,-3.1067,-3.2636,-3.404,-3.5404,-3.6371,-3.6975,-3.703,-3.7992,-3.8707,-3.8831,-4.0082,-4.0575,-3.9839,-4.1668,-4.2551,-4.1907,-4.2984,-4.3717,-4.3848,-4.3732,-4.3397,-4.2902,-4.2902,-4.2613,-4.2092,0.0,0.0,-4.1265,-4.0597,-4.0031,-3.9552,-3.9305,-3.8884,-3.8391,-3.826,-3.781,-3.7151,-3.7261,-3.7302,-3.7157,-3.5886,-3.5319,-3.5145,0.0802,0.0039,-0.0702,-0.105,-0.1598,-0.2048,-0.2186,-0.229,-0.1922,-0.0754,-0.098,-0.0952,-0.0147,0.003,-0.0339,-0.1447,-0.1939,0.0,0.0,-0.4499,-0.5351,-0.695,-0.7867,-0.8687,-0.9392,-1.0529,-1.1268,-1.1483,-1.21,-1.2753,-1.3398,-1.3483,-1.3568,-1.3568,-1.3786,-1.4034,-1.4331,-1.5007,-1.5533,-1.5922,-1.6085,-1.6895,-1.8097,-1.8725,-1.961,-2.0559,-2.0435,-2.0325,-2.023,-2.0239,-2.0127,-2.0017,-2.0343,-2.0069,-1.9565,0.0,0.0,0.0,0.0,0.0,0.0,0.0,0.0,0.0,0.0,0.0,0.0,0.0,0.0,-2.7564,-2.8831,0.0,-3.0729,-3.1939,-3.3088,-3.4079,-3.4948,-3.5607,-3.6397,-3.7304,-3.7919,-3.8437,-3.8735,-3.9459,-4.0037,-4.0399,-4.1607,-4.2596,-4.3225,-4.3748,-4.4124,-4.4429,-4.4153,-4.3445,-4.2324,-4.2324,-4.1739,-4.0645,-4.0502,-4.019,-3.9774,-3.9966,-3.9733,-3.9036,-3.8707,-3.8378,-3.801,-3.7204,-3.6635,-3.6239,-3.6392,-3.6533,-3.6507,-3.5446,-3.4935,-3.4739,0.0824,0.0083,-0.066,-0.1084,-0.1611,-0.2004,-0.2099,-0.2225,-0.1924,-0.0894,-0.1247,-0.1259,-0.0259,-0.0564,-0.108,0.0,0.0,0.0,0.0,-0.4195,-0.4944,-0.6654,-0.7109,-0.7735,-0.8559,-0.9222,-0.9918,-1.0692,-1.1101,-1.1794,-1.2741,-1.2784,-1.29,-1.3175,-1.334,-1.3719,-1.4208,-1.4653,-1.5004,-1.5262,-1.5356,-1.5835,-1.6645,-1.7658,-1.8951,-2.0196,-2.0188,-2.0275,-2.0333,-1.9932,-1.9795,-1.9795,-1.9795,-1.9561,-1.9219,-1.8867,-1.9068,0.0,0.0,0.0,0.0,0.0,0.0,0.0,0.0,-2.625,-2.678,-2.8142,-2.8736,-2.9411,-3.0509,-3.1528,-3.2213,-3.2335,-3.3264,-3.402,-3.4066,-3.473,-3.5781,-3.7409,-3.7811,-3.8109,-3.8622,-3.881,-3.9414,-4.0528,-4.1146,-4.2163,-4.3792,-4.3827,-4.3972,-4.449,-4.4,-4.3075,-4.1644,-4.1532,-4.0744,-3.9359,-3.9293,-3.8892,-3.8254,-3.8898,-3.8868,-3.8249,-3.7651,-3.7374,-3.7212,-3.5818,-3.521,-3.521,-3.5047,-3.521,-3.5457,-3.4893,-3.444,-3.4046,0.0,-0.0089,-0.0265,-0.0313,-0.1159,-0.1828,-0.1837,-0.211,-0.2071,-0.1389,-0.1534,-0.1445,-0.0781,-0.0804,-0.1142,-0.1818,-0.1421,0.0,-0.3656,-0.3591,-0.4055,-0.5266,-0.6698,-0.7163,-0.6476,-0.8301,-0.9,-0.8528,-0.9401,-1.0014,-1.0313,-1.0529,-1.1206,-1.2258,-1.2478,-1.3161,-1.4199,-1.4507,-1.4799,-1.5015,-1.4732,-1.5428,-1.6643,-1.7005,-1.7857,-1.8793,-1.8629,-1.9058,-1.9667,-1.9465,-1.9355,-1.9355,-1.9355,-1.9326,-1.9277,-1.9228,-1.9291,-1.9433,-1.992,-2.1216,-2.2719,-2.3931,-2.4354,-2.524,0.0,-2.8174,-2.7969,-2.9538,-2.9911,-3.0128,-3.076,-3.1351,-3.1918,-3.2412,-3.3319,-3.41,-3.4335,-3.4845,-3.5195,-3.5174,-3.6049,-3.6646,-3.6709,-3.7487,-3.7697,-3.7032,-3.9528,-4.0835,-4.0205,-4.1951,-4.2965,-4.302,-4.2965,-4.2576,-4.1773,-4.1317,-4.0699,-3.988,-3.8372,-3.7626,-3.7501,-3.6552,-3.606,-3.5939,-3.571,-3.548,-3.5236,-3.4304,-3.3914,-3.383,-3.3074,-3.3237,-3.4009,-3.4527,-3.4275,-3.3574,0.0,0.0,-0.0202,-0.0202,-0.1076,-0.1794,-0.1794,-0.191,-0.1761,-0.1091,-0.1373,-0.143,-0.0903,-0.1344,-0.1716,-0.1826,-0.1636,-0.193,-0.2993,-0.3088,-0.3702,-0.5059,-0.5783,-0.6054,-0.5755,-0.674,-0.7426,-0.7688,-0.8261,-0.8981,-0.9846,-1.0051,-1.0469,-1.1156,-1.1972,-1.2706,-1.3361,-1.4243,-1.4783,-1.5055,-1.4734,-1.4938,-1.5396,-1.5156,-1.5952,-1.7298,-1.8481,-1.8901,0.0,-1.8929,-1.8868,-1.8831,-1.9037,-1.894,-1.8831,-1.9073,-1.9279,-1.9787,-2.128,-2.267,-2.4011,-2.5215,-2.6191,-2.7272,-2.8919,-2.8955,-2.9003,-3.029,-3.0585,-3.0711,-3.1284,-3.2078,-3.2683,-3.2923,-3.3825,-3.4499,-3.4595,-3.4666,-3.4676,-3.4599,-3.4851,-3.5146,-3.5434,-3.6122,-3.6754,-3.7308,-3.8548,-3.9712,-4.0707,-4.1597,-4.2316,-4.2778,-4.2792,-4.2205,-4.0975,-4.0452,-3.9491,-3.8136,-3.697,-3.6101,-3.5592,-3.5359,-3.4966,-3.4485,-3.4402,-3.404,-3.3445,-3.3074,-3.2957,-3.2914,-3.2562,-3.2636,-3.2975,-3.3275,-3.3258,-3.3039,0.0,0.0022,-0.0247,-0.0427,-0.1099,-0.1569,-0.1456,-0.1591,-0.1432,-0.0686,-0.1183,-0.149,-0.1182,-0.1711,-0.2015,-0.1818,-0.1768,-0.1996,-0.2578,-0.2756,-0.3463,-0.4762,-0.5064,-0.5287,-0.5419,-0.571,-0.6201,-0.6973,-0.721,-0.7849,-0.8865,-0.8997,-0.9338,-0.9912,-1.1261,-1.2113,-1.2663,-1.3983,-1.4637,-1.4842,-1.4562,-1.4424,-1.432,-1.3998,-1.4519,-1.5654,-1.7392,-1.8044,-1.8066,-1.8017,-1.7916,-1.7839,-1.8136,-1.8021,-1.7935,-1.8701,-1.9391,-2.0188,-2.154,-2.2792,-2.3985,-2.5163,-2.6428,-2.7718,-2.8715,-2.8952,-2.9255,-3.0428,-3.0814,-3.1043,-3.1416,-3.2379,-3.3116,-3.3272,-3.403,-3.4619,-3.4763,-3.4522,-3.423,-3.4085,-3.3954,-3.3949,-3.4365,-3.4985,-3.593,-3.7254,-3.7492,-3.8374,-4.0285,-4.0544,-4.0948,-4.1677,-4.1703,-4.1159,-3.9974,-3.9303,-3.8265,-3.6899,-3.5772,-3.4868,-3.4222,-3.4242,-3.3885,-3.322,-3.322,-3.2859,-3.2213,-3.2213,-3.2213,-3.2213,-3.2213,-3.2213,-3.2213,-3.2213,-3.2252,-3.2297,0.0,0.0,-0.0382,-0.0962,-0.1097,-0.0985,-0.0604,-0.103,-0.1136,-0.0402,-0.1059,-0.1634,-0.1748,-0.1789,-0.1818,-0.179,-0.15,-0.1691,-0.2533,-0.2714,-0.3202,-0.4079,-0.4816,-0.5201,-0.5201,-0.5533,-0.5858,-0.6121,-0.6124,-0.6257,-0.6526,-0.662,-0.7352,-0.8516,-1.0,-1.125,-1.241,-1.3726,-1.4291,-1.43,-1.397,-1.383,-1.3847,-1.4172,-1.4012,-1.3795,-1.4543,0.0,-1.7133,-1.65,-1.6258,-1.6281,-1.63,-1.629,-1.6603,-1.8245,-1.9601,-2.0493,-2.0084,-2.0879,-2.1999,-2.2807,-2.3944,-2.5382,-2.7535,-2.8057,-2.8428,-2.9822,-3.0518,-3.0879,-3.0946,-3.1793,-3.2695,-3.32,-3.3729,-3.4198,-3.4715,-3.433,-3.3861,-3.3368,-3.3343,-3.3343,-3.3355,-3.4247,-3.5067,-3.5644,-3.6173,-3.6715,-3.7318,-3.7873,-3.8403,-3.8921,-3.8945,-3.8881,-3.8868,-3.781,-3.7218,-3.7181,-3.5078,-3.4056,-3.3961,-3.2936,-3.2344,-3.2025,-3.2025,-3.1937,-3.1705,-3.1705,-3.1705,-3.1705,-3.1705,-3.1705,-3.1705,-3.1705,-3.153,-3.1272,0.0,0.0,0.0,-0.0808,-0.0831,-0.0718,-0.0359,-0.0583,-0.0659,-0.0213,-0.0453,0.0,0.0,0.0,0.0,0.0,-0.1098,-0.1288,-0.1901,-0.2032,-0.2653,-0.3911,-0.4298,-0.458,-0.4811,-0.5131,-0.5355,-0.5518,-0.5733,-0.5995,-0.6349,-0.6475,-0.6839,-0.7449,-0.8663,-0.9849,-1.0989,-1.2131,-1.3176,-1.3985,-1.3347,-1.3293,-1.3548,-1.3095,-1.334,-1.3938,0.0,-1.4494,-1.5348,-1.5744,-1.5759,-1.5701,-1.6276,-1.6445,-1.673,-1.8405,-1.9388,-2.0071,-2.0786,-2.1799,-2.2784,-2.3374,-2.4252,-2.523,-2.6376,-2.7169,-2.7973,-2.8819,-2.9728,-3.035,-3.035,-3.1271,-3.2118,-3.2671,-3.3477,-3.4174,-3.4703,-3.4318,-3.3934,-3.3754,-3.3489,-3.3416,-3.3753,-3.4087,-3.4509,-3.5042,-3.5574,-3.6207,-3.6892,-3.748,-3.8081,-3.8776,-3.8788,-3.8629,-3.8337,-3.7599,-3.6959,-3.6442,-3.4588,-3.3299,-3.2459,-3.224,-3.2025,-3.1805,-3.1805,-3.1761,-3.1705,-3.1705,-3.1705,-3.1705,-3.1705,-3.1705,-3.1705,-3.1705,-3.1629,-3.1467,0.0,0.0,0.0,0.0,0.0,0.0,0.0,0.0,0.0,0.0,0.0,0.0,0.0,0.0,0.0,0.0,0.0,-0.1233,-0.1693,-0.1874,-0.2476,-0.3602,-0.3836,-0.4096,-0.439,-0.4656,-0.4885,-0.4997,-0.5288,-0.5578,-0.5916,-0.613,-0.6351,-0.6584,-0.7833,-0.8784,-0.9515,-1.0839,-1.195,-1.2818,-1.2448,-1.2572,-1.2868,-1.2212,-1.2452,0.0,0.0,-1.3442,-1.4096,-1.4984,-1.5348,-1.5531,-1.6114,-1.6739,-1.75,-1.8572,-1.9376,-2.0116,-2.1117,-2.1874,-2.2555,-2.3237,-2.3737,-2.428,-2.5157,-2.5829,-2.6439,-2.7229,-2.8094,-2.8881,-2.9283,-3.0067,-3.1088,-3.2301,-3.3056,-3.3754,-3.4655,-3.4318,-3.3994,-3.3994,-3.3753,-3.3681,-3.3958,-3.4162,-3.4414,-3.4751,-3.5316,-3.5895,-3.664,-3.7173,-3.7758,-3.8502,-3.8514,-3.827,-3.7797,-3.7197,-3.6318,-3.509,-3.4,-3.2844,-3.1705,-3.1849,-3.1805,-3.1705,-3.1705,-3.1705,-3.1705,-3.1705,-3.1705,-3.1705,-3.1705,-3.1705,-3.1705,-3.1705,-3.1705,-3.1657,0.0,0.0,0.0,0.0,0.0,0.0,0.0,0.0,0.0,0.0,0.0,0.0,0.0,0.0,0.0,0.0,0.0,0.0,-0.1872,-0.2266,-0.2713,-0.3166,-0.3505,-0.3754,-0.3951,-0.4185,-0.4366,-0.4577,-0.4781,-0.4974,-0.5185,-0.5525,-0.5731,-0.5936,-0.7343,-0.8052,-0.8205,-0.9888,-1.0773,-1.1075,-1.1449,-1.1708,-1.185,-1.1591,0.0,0.0,-1.2085,-1.2755,-1.3473,-1.4255,-1.5117,-1.5817,-1.5835,-1.7183,-1.8751,-1.8788,-1.9622,-2.0613,-2.1025,-2.1154,-2.1399,-2.2407,-2.2404,-2.2485,-2.3925,-2.4005,-2.4092,-2.5189,-2.584,-2.6593,-2.7676,-2.8299,-2.9454,-3.1929,-3.2364,-3.2939,-3.4522,-3.4354,-3.4066,-3.4066,-3.4102,-3.4114,-3.4114,-3.457,-3.4859,-3.4859,-3.5376,-3.5893,-3.6423,-3.6952,-3.7457,-3.7962,-3.795,-3.7685,-3.7156,-3.6603,-3.5316,-3.3332,-3.3308,-3.2731,-3.1753,-3.1717,-3.1705,-3.1705,-3.1705,-3.1705,-3.1705,-3.1705,-3.1705,-3.1705,-3.1705,-3.1705,-3.1705,-3.1705,-3.1705,-3.1705,0.0,0.0,0.0,0.0,0.0,0.0,0.0,0.0,0.0,0.0,0.0,0.0,0.0,0.0,0.0,0.0,0.0,0.0,-0.1812,-0.2193,-0.258,-0.2897,-0.3173,-0.3382,-0.3534,-0.3893,-0.4144,-0.4233,-0.4467,-0.4654,-0.4751,-0.5107,-0.5306,-0.5421,-0.6031,-0.7094,-0.8411,-0.888,-1.0114,-1.1737,0.0,-1.1548,-1.185,0.0,0.0,-1.1876,-1.227,-1.3,-1.3949,-1.4752,-1.6134,-1.755,-1.7844,-1.8495,-1.9274,-1.9879,-2.0273,-2.0625,-2.1339,-2.1751,-2.2061,-2.2318,-2.2345,-2.2252,-2.2363,-2.2964,-2.3564,-2.3867,-2.4711,-2.5476,-2.5772,-2.6291,-2.7402,-2.9663,-3.0685,-3.1926,-3.3923,-3.4751,-3.5208,-3.5208,-3.5557,-3.5809,-3.5809,-3.5918,-3.6002,-3.6002,-3.6134,-3.6435,-3.6964,-3.7493,-3.7841,-3.7974,-3.7601,-3.7144,-3.6615,-3.5689,-3.4715,-3.3802,-3.3464,-3.2935,-3.2274,-3.1898,-3.1705,-3.1705,-3.1705,-3.1705,-3.1705,-3.1705,-3.1705,-3.1705,-3.1705,-3.1705,-3.1705,-3.1705,-3.1705,-3.1705,0.0,0.0,0.0,0.0,0.0,0.0,0.0,0.0,0.0,0.0,0.0,0.0,0.0,0.0,0.0,0.0,0.0,0.0,0.0,-0.2194,-0.2479,-0.2879,-0.2991,-0.313,-0.3299,-0.3542,-0.3679,-0.3775,0.0,0.0,-0.433,-0.4633,-0.4877,-0.4989,-0.528,-0.622,-0.762,-0.7946,0.0,0.0,0.0,0.0,0.0,0.0,0.0,-1.1649,-1.2013,-1.3248,-1.4876,-1.5936,-1.7204,-1.8513,-1.9265,-1.9659,-1.9962,-2.0594,-2.0906,-2.1147,-2.1778,-2.2245,-2.2556,-2.2556,-2.2419,-2.2217,-2.1998,-2.2333,-2.262,-2.2602,-2.3219,-2.3831,-2.3971,-2.4522,-2.5717,-2.8021,-2.9008,-3.0384,-3.2959,-3.4114,-3.4718,-3.4692,-3.5923,-3.6446,-3.5671,-3.6284,-3.6747,-3.6747,-3.6747,-3.6879,-3.718,-3.7697,-3.7986,-3.7986,-3.7469,-3.6831,-3.6062,-3.5244,-3.4402,-3.3705,-3.3428,-3.2887,-3.2118,-3.1849,-3.1705,-3.1705,-3.1705,-3.1705,-3.1705,-3.1572,-3.1528,-3.1528,-3.1407,-3.1407,-3.1407,-3.1407,-3.1407,-3.1407,0.0,0.0,0.0,0.0,0.0,0.0,0.0,0.0,0.0,0.0,0.0,0.0,0.0,0.0,0.0,0.0,0.0,0.0,0.0,0.0,0.0,-0.296,-0.2877,-0.2928,-0.317,-0.3186,-0.3267,-0.3381,-0.3599,-0.3794,0.0,0.0,0.0,0.0,0.0,0.0,0.0,0.0,0.0,0.0,0.0,0.0,0.0,0.0,0.0,-1.1179,-1.1694,-1.3404,-1.5689,-1.7162,-1.821,-1.9106,-2.0204,-2.064,-2.075,-2.1089,-2.1447,-2.1787,-2.2245,-2.2593,-2.284,-2.2895,-2.2593,-2.2309,-2.2217,-2.1897,-2.1592,-2.1485,-2.1661,-2.1976,-2.2353,-2.2926,-2.4139,-2.6599,-2.7271,-2.8571,-3.1584,-3.2904,-3.3498,-3.333,-3.548,-3.6291,-3.4607,-3.5829,-3.6806,-3.7027,-3.7016,-3.708,-3.73,-3.7661,-3.7817,-3.7673,-3.7228,-3.6507,-3.5521,-3.4943,-3.427,-3.3392,-3.3248,-3.2695,-3.1813,-3.1741,-3.1661,-3.1661,-3.1661,-3.1617,-3.1572,-3.1362,-3.1261,-3.1217,-3.1062,-3.0984,-3.0984,-3.0984,-3.0984,-3.1029,0.0,0.0,0.0,0.0,0.0,0.0,0.0,0.0,0.0,0.0,-0.1672,-0.17,0.0,0.0,0.0,0.0,0.0,0.0,0.0,0.0,0.0,-0.2814,-0.2933,-0.302,-0.3111,-0.3187,-0.32,-0.325,-0.3267,-0.3388,0.0,0.0,0.0,0.0,0.0,0.0,0.0,0.0,0.0,0.0,0.0,0.0,0.0,0.0,0.0,0.0,-1.1956,-1.3348,-1.5124,-1.6726,-1.8473,-2.006,-2.0756,-2.1202,-2.1495,-2.1559,-2.1632,-2.1851,-2.2602,-2.2602,-2.2474,-2.2821,-2.2593,-2.219,-2.187,-2.1476,-2.12,-2.117,-2.0949,-2.0915,-2.1304,-2.1183,-2.1988,-2.4781,-2.5396,-2.6532,-2.9422,-3.186,-3.3105,-3.2415,-3.429,-3.5131,-3.3831,-3.3951,-3.467,-3.5962,-3.6016,-3.6568,-3.7789,-3.7517,-3.6928,-3.605,-3.5942,-3.5593,-3.4919,-3.439,-3.4042,-3.385,-3.3044,-3.2539,-3.2346,-3.1922,-3.1572,-3.135,-3.135,0.0,-3.1107,-3.1062,-3.1062,-3.1062,-3.1029,-3.0984,-3.0984,-3.0984,-3.0984,-3.0984,0.0,0.0,0.0,0.0,0.0,0.0,0.0,-0.2205,-0.2331,-0.2463,-0.2442,-0.2368,-0.2227,-0.217,0.0,0.0,0.0,0.0,0.0,0.0,0.0,0.0,-0.2989,-0.3051,-0.3158,-0.325,-0.3275,-0.3192,0.0,-0.343,-0.3468,-0.3823,-0.4099,-0.4301,-0.4642,-0.58,-0.7468,-0.7514,-0.851,-1.0067,-1.0143,-1.0331,0.0,0.0,0.0,0.0,-1.2009,-1.3221,-1.4847,-1.5587,-1.7384,-1.9502,-2.0813,-2.1452,-2.1696,-2.1696,-2.1833,-2.2135,-2.2748,-2.2913,-2.2913,-2.2904,-2.2757,-2.2391,-2.1549,-2.1255,-2.0989,-2.0576,-2.0512,-2.0448,-2.0209,-2.053,-2.1383,-2.3205,-2.3733,-2.4964,-2.7995,-2.9702,-3.0737,-3.0915,-3.282,-3.3677,-3.2649,-3.3113,-3.3789,-3.4581,-3.4384,-3.5233,-3.746,-3.7072,-3.6423,-3.5641,-3.5352,-3.4907,-3.4378,-3.3909,-3.3513,-3.3236,-3.2582,-3.2244,-3.2058,-3.1571,-3.1318,-3.1306,-3.1184,-3.0758,-3.0147,-3.0068,-2.9703,-2.9279,-2.9658,-2.9806,-2.9852,-3.0408,-3.0601,-3.0556,0.0,0.0,0.0,0.0,0.0,0.0,0.0,-0.2697,-0.2858,-0.2972,-0.3001,-0.2929,-0.2669,-0.2609,-0.2718,0.0,0.0,0.0,0.0,0.0,0.0,0.0,0.0,-0.3187,-0.3322,0.0,0.0,-0.3356,-0.3585,0.0,0.0,0.0,0.0,0.0,-0.4734,-0.5844,-0.7347,-0.7635,-0.8575,0.0,0.0,-1.0213,0.0,0.0,0.0,0.0,0.0,-1.3039,-1.4536,-1.4532,-1.6124,-1.8426,-2.0158,-2.1096,-2.1523,-2.1523,-2.1797,-2.2245,-2.2657,-2.294,-2.305,-2.2831,-2.2712,-2.2373,-2.1346,-2.1044,-2.0778,-2.0031,-2.0058,-2.009,-1.954,-2.0136,-2.1044,-2.1989,-2.2355,-2.3539,-2.6436,-2.7489,-2.8269,-2.9111,-3.1029,-3.1942,-3.1087,-3.1933,-3.2659,-3.2989,-3.2855,-3.368,-3.5875,-3.5592,-3.5035,-3.4451,-3.3991,-3.3533,-3.3028,-3.2571,-3.2124,-3.1667,-3.1354,-3.1074,-3.0869,-3.0476,-3.0385,-3.0509,-3.0352,-2.9783,-2.8901,-2.8738,-2.8236,-2.7589,-2.8154,-2.8387,-2.8481,-2.9268,-2.9555,-2.9452,0.0,0.0,0.0,0.0,0.0,0.0,0.0,-0.2629,-0.2858,-0.2972,-0.3057,-0.3109,-0.3127,-0.3022,-0.2989,0.0,0.0,0.0,0.0,0.0,0.0,0.0,0.0,0.0,0.0,0.0,0.0,-0.3832,-0.3975,0.0,0.0,0.0,0.0,0.0,0.0,-0.6369,-0.752,-0.8266,0.0,0.0,0.0,0.0,0.0,0.0,0.0,0.0,0.0,-1.2643,-1.3682,-1.4102,-1.5572,-1.7368,-1.8214,-1.9574,-2.0876,-2.0876,-2.1298,-2.1833,-2.2227,-2.2099,-2.1934,-2.2254,-2.2071,-2.1678,-2.1218,-2.0833,-2.0448,-1.9976,-1.965,-1.9503,-1.9774,-1.965,-1.998,-2.1495,-2.1502,-2.2033,-2.4221,-2.61,-2.7218,-2.6909,-2.8997,-3.0005,-2.8842,-2.9108,-2.9992,-3.1331,-3.1875,-3.2126,-3.2026,-3.1972,-3.1519,-3.0651,-3.0575,-3.0327,-2.9921,-2.9397,-2.9089,-2.9035,-2.8509,-2.8283,-2.824,-2.8204,-2.8121,-2.7966,-2.7919,-2.772,0.0,-2.7369,-2.7332,-2.7237,-2.7332,-2.7332,-2.7332,-2.7426,-2.7474,-2.7474,0.0,0.0,0.0,0.0,0.0,0.0,-0.2824,-0.2796,-0.2908,-0.3207,-0.3259,-0.3353,-0.3549,-0.3521,-0.3457,0.0,0.0,0.0,0.0,0.0,0.0,0.0,0.0,0.0,0.0,0.0,-0.3949,-0.4013,-0.4198,0.0,0.0,0.0,0.0,0.0,0.0,-0.6603,-0.754,-0.8351,0.0,0.0,0.0,0.0,0.0,0.0,0.0,0.0,0.0,0.0,-1.4143,-1.3328,-1.4957,-1.7248,-1.6677,-1.7968,-1.9878,-2.0591,-2.1155,-2.1653,-2.2172,-2.2163,-2.208,-2.2245,-2.1989,-2.1522,-2.0906,-2.0448,-2.0003,-1.9641,-1.9421,-1.9356,-1.9522,-1.9622,-2.0044,-2.1172,-2.1218,-2.1823,-2.3917,-2.4447,-2.5117,-2.6425,-2.7204,-2.7743,-2.7996,-2.8159,-2.8429,-2.8776,-2.8993,-2.899,-2.8569,-3.0107,-3.073,-3.0109,-2.976,-2.9447,-2.9037,-2.8471,-2.8247,-2.8189,-2.7888,-2.7793,-2.7876,-2.7594,-2.7521,-2.7589,-2.7437,-2.6962,0.0,-2.6302,-2.5916,-2.5441,-2.6061,-2.6302,-2.6398,-2.6999,-2.7189,-2.7094,0.0,0.0,0.0,0.0,0.0,-0.3228,-0.3428,-0.3238,-0.3255,-0.3799,-0.3629,-0.3602,-0.3967,-0.3872,-0.3773,-0.3707,0.0,0.0,0.0,0.0,0.0,0.0,0.0,0.0,0.0,0.0,-0.4194,-0.4306,-0.4738,-0.4828,0.0,0.0,-0.5074,-0.489,0.0,0.0,0.0,0.0,0.0,0.0,0.0,0.0,0.0,0.0,0.0,0.0,0.0,0.0,0.0,0.0,0.0,-1.6709,-1.5692,-1.7002,-1.9051,-1.9967,-2.0718,-2.1319,-2.1762,-2.2016,-2.2099,-2.2099,-2.1806,-2.1321,-2.0677,-2.0177,-1.9774,-1.9393,-1.9301,-1.9301,-1.9301,-1.965,-2.0104,-2.0824,-2.1135,-2.1832,-2.34,-2.3327,-2.3718,-2.5482,-2.5647,-2.6094,-2.7179,-2.761,-2.7656,-2.7205,-2.7178,-2.6949,-2.6435,-2.8249,-2.9116,-2.8706,-2.8206,-2.7766,-2.7355,-2.6999,-2.6788,-2.6788,-2.6675,-2.6675,-2.6788,-2.6474,-2.6436,-2.659,-2.6388,-2.5916,0.0,-2.5265,-2.4833,-2.4251,-2.4971,-2.5265,-2.5353,-2.6061,-2.6282,-2.6196,0.0,0.0,0.0,0.0,0.0,0.0,-0.4212,-0.3959,-0.401,-0.4872,-0.4178,-0.383,-0.4435,-0.4088,-0.3903,-0.4154,0.0,0.0,0.0,0.0,0.0,0.0,0.0,0.0,0.0,0.0,0.0,-0.4795,-0.5708,-0.5777,-0.5012,-0.5819,-0.5741,-0.5054,0.0,0.0,0.0,0.0,0.0,0.0,0.0,0.0,0.0,0.0,0.0,0.0,0.0,0.0,0.0,0.0,0.0,0.0,0.0,-1.6862,-1.868,-1.8922,-1.9878,-2.0822,-2.0831,-2.1262,-2.1696,-2.1696,-2.1385,-2.1007,-2.0613,-2.0177,-1.9774,-1.9393,-1.9301,-1.9301,-1.9301,-1.965,-2.0021,-2.0457,-2.1156,-2.1833,-2.2245,-2.2986,-2.3499,-2.3526,-2.4299,-2.5106,-2.5957,-2.7123,-2.7656,-2.7205,-2.7178,-2.6875,-2.6058,-2.6012,-2.5837,-2.5442,-2.5047,-2.4633,-2.426,-2.4251,-2.4251,-2.4251,-2.4251,-2.4251,-2.4251,-2.4251,-2.4251,-2.4251,-2.4251,-2.4251,0.0,-2.4202,-2.4202,-2.4202,-2.4202,-2.4202,-2.4202,-2.4251,-2.4251,-2.4251,0.0,0.0,0.0,0.0,0.0,0.0,0.0,-0.4725,-0.4674,-0.5149,-0.4673,-0.4428,-0.4801,-0.4418,-0.4209,-0.4394,0.0,0.0,0.0,0.0,0.0,0.0,0.0,0.0,0.0,0.0,0.0,0.0,0.0,-0.6661,-0.5819,-0.6089,-0.6047,-0.5857,-0.7007,-0.7812,0.0,0.0,0.0,0.0,0.0,0.0,0.0,0.0,0.0,0.0,0.0,0.0,0.0,0.0,0.0,0.0,0.0,0.0,0.0,-1.8301,-1.9085,-1.9936,-2.015,-2.042,-2.0657,-2.0657,-2.0677,-2.0561,-2.0168,-1.9976,-1.9774,-1.9393,-1.9301,-1.9301,-1.9301,-1.965,-2.0021,-2.0415,-2.0961,-2.1548,-2.2181,-2.2748,-2.3407,-2.429,-2.5353,-2.6114,-2.6362,-2.6738,-2.6912,-2.6784,-2.6774,-2.6536,-2.6039,-2.5754,-2.5433,-2.4977,-2.4849,-2.4633,-2.4211,-2.4202,-2.4202,-2.4202,-2.4202,-2.4202,-2.4202,-2.4202,-2.4202,-2.4202,-2.4202,-2.4202,-2.4202,-2.4202,-2.4202,-2.4202,-2.4202,-2.4202,-2.4202,-2.4202,-2.4202,-2.4202,0.0,0.0,0.0,0.0,0.0,0.0,0.0,-0.5483,-0.5349,-0.5595,-0.507,-0.4727,-0.4905,-0.4552,-0.4365,-0.4561,0.0,0.0,0.0,0.0,0.0,0.0,0.0,0.0,0.0,0.0,0.0,0.0,0.0,0.0,0.0,0.0,-0.6606,-0.624,-0.7119,-0.8003,0.0,0.0,0.0,0.0,0.0,0.0,0.0,0.0,0.0,0.0,0.0,0.0,0.0,0.0,0.0,0.0,0.0,0.0,0.0,0.0,-1.8447,-1.9019,-1.9461,-1.9822,-2.0108,-2.0201,-2.0159,-2.0103,-1.9948,-1.9765,-1.9622,-1.9356,-1.9301,-1.9301,-1.9301,-1.9769,-2.0195,-2.0484,-2.1108,-2.165,-2.2007,-2.2675,-2.3471,-2.4436,-2.5482,-2.6133,-2.6133,-2.6408,-2.6591,-2.6591,-2.6444,-2.6223,-2.5819,-2.5362,-2.4968,-2.4606,-2.4546,-2.4468,-2.4202,-2.4202,-2.4202,-2.4202,-2.4202,-2.4202,-2.4202,-2.4202,-2.4202,-2.4202,-2.4202,-2.4202,0.0,-2.4202,-2.4202,-2.4202,-2.4202,-2.4202,-2.4202,-2.4202,-2.4202,-2.4202,0.0,0.0,0.0,0.0,0.0,0.0,0.0,-0.6263,-0.5964,-0.6182,-0.5409,-0.4837,-0.4806,-0.4505,-0.4395,-0.4668,0.0,0.0,0.0,0.0,0.0,0.0,0.0,0.0,0.0,0.0,0.0,-0.7957,-0.8765,-0.837,-0.6777,0.0,0.0,-0.6447,-0.7292,-0.8165,0.0,0.0,0.0,0.0,0.0,0.0,0.0,0.0,0.0,0.0,0.0,0.0,0.0,0.0,0.0,0.0,0.0,0.0,0.0,0.0,0.0,0.0,0.0,-1.9364,-1.984,-2.0027,-1.9799,-1.962,-1.9807,-1.9564,0.0,-1.9301,-1.9301,-1.932,-1.9375,-2.0008,-2.0539,-2.0594,-2.1548,-2.2108,-2.1742,-2.2757,-2.3758,-2.4275,-2.5029,-2.5506,-2.5506,-2.6142,-2.6591,-2.6591,-2.6251,-2.5837,-2.5442,-2.4996,-2.4643,-2.422,-2.4202,-2.4202,-2.4202,-2.4202,-2.4202,-2.4202,-2.4202,-2.4202,-2.4202,-2.4202,-2.4202,0.0,-2.4202,-2.4202,-2.4202,-2.4202,-2.4202,-2.4202,-2.4202,-2.4152,-2.4152,-2.4152,-2.4152,-2.4152,0.0,0.0,0.0,0.0,0.0,0.0,0.0,0.0,0.0,0.0,-0.5785,-0.5321,-0.4837,-0.4505,-0.4395,0.0,0.0,0.0,0.0,0.0,0.0,0.0,0.0,0.0,0.0,0.0,0.0,-0.9425,-0.9803,-0.9488,-0.8532,-0.8881,0.0,0.0,0.0,0.0,0.0,0.0,0.0,0.0,0.0,0.0,0.0,0.0,0.0,0.0,-1.2415,-1.2367,0.0,0.0,0.0,0.0,0.0,0.0,0.0,0.0,-1.8,-1.8017,-1.8192,0.0,-1.8746,-1.8786,-1.9108,-1.9343,0.0,-1.938,-1.9475,-1.9326,-1.9301,-1.9494,-2.0118,-2.0393,-2.068,-2.1302,-2.165,-2.1797,-2.1705,-2.3052,-2.444,-2.546,-2.6039,-2.6307,-2.6307,-2.6481,-2.6591,-2.6591,-2.6251,-2.5837,-2.5442,-2.4996,-2.4643,-2.422,-2.4202,-2.4202,-2.4202,-2.4202,-2.4202,-2.4202,-2.4202,-2.4202,-2.4202,-2.4202,-2.4202,-2.4202,-2.4202,-2.4202,-2.4202,-2.4202,-2.4202,-2.4202,-2.3954,-2.3895,-2.3854,-2.3646,-2.3605,-2.3605,0.0,0.0,0.0,0.0,0.0,0.0,0.0,0.0,0.0,0.0,0.0,0.0,0.0,0.0,0.0,0.0,0.0,0.0,0.0,0.0,0.0,0.0,0.0,0.0,0.0,0.0,0.0,0.0,0.0,-1.0373,0.0,0.0,0.0,0.0,0.0,0.0,0.0,0.0,0.0,0.0,0.0,0.0,0.0,0.0,0.0,0.0,-1.1891,-1.1928,0.0,-1.4394,-1.5219,-1.5527,0.0,0.0,0.0,0.0,-1.7655,-1.7487,-1.7487,-1.8112,-1.8802,-1.8885,-1.9167,-1.9388,-1.9392,-1.9344,-1.9295,-1.9197,-1.9222,-1.943,-1.9879,-1.9898,-2.012,-2.1005,-2.0631,-2.0533,-2.1555,-2.3298,-2.4659,-2.5121,-2.5548,-2.5798,-2.5798,-2.5798,-2.5945,-2.6316,-2.5975,-2.5571,-2.5176,-2.4711,-2.444,-2.4211,-2.4202,-2.4202,-2.4202,-2.4202,-2.4202,-2.4202,-2.4202,-2.4202,-2.4202,-2.4202,-2.4202,-2.4202,-2.4053,-2.4003,-2.4003,-2.3904,-2.3845,-2.3805,-2.3646,-2.3596,-2.3596,-2.3447,-2.3397,-2.3397,0.0,0.0,0.0,0.0,0.0,0.0,0.0,0.0,0.0,0.0,0.0,0.0,0.0,0.0,0.0,0.0,0.0,0.0,0.0,0.0,0.0,0.0,0.0,0.0,0.0,0.0,0.0,0.0,0.0,0.0,0.0,0.0,-1.0429,0.0,0.0,0.0,0.0,0.0,0.0,0.0,0.0,0.0,0.0,0.0,0.0,0.0,0.0,0.0,0.0,-1.3617,-1.4585,-1.528,-1.7022,0.0,0.0,0.0,0.0,0.0,-1.675,-1.7775,-1.8886,-1.8948,-1.9151,-1.9305,-1.9211,-1.8939,-1.8674,-1.8545,-1.8776,-1.9047,-1.9088,-1.9025,-1.9301,-2.019,-1.9298,-1.9151,-2.1081,-2.2913,-2.3963,-2.3739,-2.4061,-2.4297,-2.4297,-2.4297,-2.4585,-2.5228,-2.4896,-2.4589,-2.4428,-2.3862,-2.3737,-2.4053,-2.3895,-2.3895,-2.4102,-2.4152,-2.4202,-2.4202,-2.4152,-2.4152,-2.4152,-2.4102,-2.4102,-2.4053,0.0,0.0,-2.3705,-2.3497,-2.3397,-2.3397,-2.3347,-2.3347,-2.3347,-2.3297,-2.3297,-2.3297,0.0,0.0,0.0,0.0,0.0,0.0,0.0,0.0,0.0,0.0,0.0,0.0,0.0,0.0,0.0,0.0,0.0,0.0,0.0,0.0,0.0,0.0,0.0,-0.9608,-1.0754,-0.9921,0.0,0.0,-1.1433,-1.1465,-1.119,-1.1821,-1.1821,-1.1324,-1.1387,0.0,0.0,0.0,0.0,0.0,0.0,0.0,0.0,0.0,0.0,0.0,0.0,0.0,0.0,-1.2393,-1.368,-1.5081,-1.5516,0.0,0.0,0.0,0.0,0.0,-1.6149,-1.6749,-1.7149,-1.6722,-1.7704,-1.833,-1.6713,-1.686,-1.7147,-1.6585,-1.7131,-1.7813,-1.8142,-1.8378,-1.8733,-1.9462,-1.909,-1.8991,-1.9664,-2.0315,-2.0927,-2.1441,-2.1845,-2.2111,-2.2111,-2.2111,-2.2073,-2.1927,-2.1579,-2.174,-2.2644,-2.1404,-2.1523,-2.3447,-2.261,-2.256,-2.3497,-2.3954,-2.4202,-2.4202,-2.3954,-2.3854,-2.3845,-2.3655,-2.3497,-2.3497,0.0,-2.3447,-2.3447,-2.3397,-2.3397,-2.3397,-2.3147,-2.3046,-2.3046,-2.2795,-2.2695,-2.2695,0.0,0.0,0.0,0.0,0.0,0.0,0.0,0.0,0.0,0.0,0.0,0.0,0.0,0.0,0.0,0.0,0.0,0.0,0.0,0.0,0.0,0.0,-1.0014,-1.0557,-1.1212,-1.0748,-1.0874,-1.1675,-1.1911,-1.2034,-1.2058,-1.2099,-1.1911,-1.1546,-1.151,-1.1423,-1.1333,0.0,0.0,0.0,0.0,0.0,0.0,0.0,0.0,0.0,0.0,0.0,0.0,0.0,-1.3593,-1.4857,-1.5324,0.0,0.0,0.0,0.0,0.0,-1.4766,-1.5255,-1.5722,-1.5063,-1.6649,-1.8087,-1.7196,-1.6981,-1.685,-1.6532,-1.6819,-1.72,-1.7515,-1.7295,-1.7111,-1.7077,-1.8213,-1.8965,-1.847,-1.9501,-2.0197,-1.9864,-2.0186,-2.0432,-2.0432,-2.0432,-2.0518,-2.0872,-2.0703,-2.0752,-2.1048,-2.0375,-2.0495,-2.1532,-2.1065,-2.1014,-2.1582,-2.1828,-2.2551,-2.3755,-2.3646,-2.3596,-2.3596,-2.3447,-2.3397,-2.3397,0.0,-2.3197,-2.3147,-2.3046,-2.2946,-2.2946,-2.2846,-2.2795,-2.2745,-2.2644,-2.2594,-2.2594,0.0,0.0,0.0,0.0,0.0,0.0,0.0,0.0,0.0,0.0,0.0,0.0,0.0,0.0,0.0,0.0,0.0,0.0,0.0,0.0,-0.8926,-0.9893,-1.0749,-1.1365,-1.167,-1.1555,-1.1748,-1.2312,-1.2373,-1.2506,-1.2693,-1.2294,-1.1892,-1.1585,-1.1645,-1.1609,-1.1531,-1.2048,0.0,0.0,0.0,0.0,0.0,0.0,0.0,0.0,0.0,0.0,0.0,0.0,0.0,0.0,0.0,0.0,0.0,-1.5415,-1.4668,-1.3934,-1.344,-1.3881,-1.4344,-1.3835,-1.5669,-1.7503,-1.7176,-1.6678,-1.6256,-1.6154,-1.6231,-1.6351,-1.6517,-1.6114,-1.5644,-1.518,-1.7012,-1.8203,-1.7342,-1.8527,-1.917,-1.8299,-1.851,-1.8646,-1.8694,-1.8694,-1.889,-1.9481,-1.9512,-1.9455,-1.9428,-1.9154,-1.9258,-1.9775,-1.9576,-1.9568,-1.9826,-1.9826,-2.0759,-2.2619,-2.2518,-2.2518,-2.2518,-2.2467,-2.2417,-2.2417,-2.2215,-2.2274,-2.2485,-2.2283,-2.2342,-2.2594,-2.2594,-2.2594,-2.2594,-2.2594,-2.2594,-2.2594,0.0,0.0,0.0,0.0,0.0,0.0,0.0,0.0,0.0,0.0,0.0,0.0,0.0,0.0,0.0,0.0,0.0,0.0,0.0,0.0,-0.8597,-0.8789,-1.0522,-1.17,-1.2246,-1.1742,-1.1748,-1.2312,-1.256,-1.2687,-1.2705,-1.2662,-1.2379,-1.1868,-1.2149,-1.1986,-1.1531,-1.2048,-1.2174,0.0,0.0,0.0,0.0,0.0,0.0,0.0,0.0,0.0,0.0,0.0,0.0,0.0,0.0,0.0,-1.4359,-1.5001,-1.3896,-1.2506,-1.2701,-1.2825,-1.2912,-1.3112,-1.4643,-1.5746,-1.4473,-1.4405,-1.4403,-1.3845,-1.4405,-1.4857,-1.4545,-1.4874,-1.5159,-1.5109,-1.5461,-1.5851,-1.6001,-1.6152,-1.6322,-1.6466,-1.6527,-1.6545,-1.6521,-1.6521,-1.6465,-1.6248,-1.623,-1.6696,-1.7733,-1.6783,-1.714,-1.9176,-1.8297,-1.8251,-1.9228,-1.928,-1.9576,-2.0238,-1.9989,-1.9886,-1.9886,-1.9635,-1.9487,-1.9487,-1.9487,-2.0055,-2.1038,-2.1038,-2.1658,-2.2594,-2.2594,-2.2594,-2.2594,-2.2594,-2.2594,-2.2594,0.0,0.0,0.0,0.0,0.0,0.0,0.0,0.0,0.0,0.0,0.0,0.0,0.0,0.0,0.0,0.0,0.0,0.0,0.0,0.0,-0.9168,-1.0147,-1.057,-1.1152,-1.2012,-1.2035,-1.2113,-1.2312,-1.2409,-1.2542,-1.2699,-1.2373,-1.2198,-1.2161,-1.2095,-1.1832,-1.1513,-1.1874,-1.197,-1.1892,0.0,0.0,0.0,0.0,0.0,0.0,0.0,0.0,0.0,0.0,-1.1745,-1.292,-1.293,-1.3418,-1.3909,-1.3519,-1.2866,-1.2214,-1.1796,-1.2086,-1.2524,-1.2795,-1.363,-1.4392,-1.4387,-1.4489,-1.4508,-1.4285,-1.4489,-1.4638,-1.434,-1.4752,-1.5087,-1.5089,-1.5342,-1.5579,-1.5837,-1.5891,-1.5928,-1.6024,-1.6042,-1.6042,-1.6036,-1.6036,-1.6,-1.5897,-1.5891,-1.6099,-1.6524,-1.6152,-1.6258,-1.7147,-1.673,-1.673,-1.714,-1.7147,-1.7246,-1.7443,-1.8753,-1.9324,-1.9324,-1.9228,-1.9118,-1.8935,-1.8935,-1.9115,-1.9372,-1.9372,-1.9702,-2.0331,-2.1212,-2.1979,-2.2594,-2.2594,-2.2131,-2.1556,0.0,0.0,0.0,0.0,0.0,0.0,0.0,0.0,0.0,0.0,0.0,0.0,0.0,0.0,0.0,0.0,0.0,0.0,0.0,0.0,-0.9253,-1.0311,-1.0414,-1.0761,-1.1528,-1.1799,-1.2059,-1.2312,-1.2312,-1.2318,-1.233,-1.2137,-1.2137,-1.2306,-1.2125,-1.1904,-1.1748,-1.1838,-1.1832,-1.1766,-1.189,0.0,0.0,0.0,0.0,0.0,0.0,0.0,0.0,0.0,-1.1358,-1.2227,-1.2438,-1.2767,-1.3023,-1.2614,-1.2289,-1.1921,-1.1395,-1.1769,-1.2373,-1.2638,-1.3049,-1.358,-1.4298,-1.4461,-1.4509,-1.4684,-1.4714,-1.463,-1.4346,-1.46,-1.4908,-1.5077,-1.5258,-1.5493,-1.5843,-1.5891,-1.5891,-1.5891,-1.5891,-1.5891,-1.5891,-1.5891,-1.5891,-1.5891,-1.5891,-1.5891,-1.5891,-1.5891,-1.5849,-1.5771,-1.5765,-1.5728,-1.5644,-1.5644,-1.5644,-1.5644,-1.7184,-1.8005,-1.8185,-1.8088,-1.7929,-1.7735,-1.7689,-1.7724,-1.7909,-1.7909,-1.8188,-1.8764,-1.9744,-2.0602,-2.1262,-2.1262,-2.0803,-2.0089,0.0,0.0,0.0,0.0,0.0,0.0,0.0,0.0,0.0,0.0,0.0,0.0,0.0,0.0,0.0,0.0,0.0,0.0,0.0,-0.8286,-0.8559,-0.87,-0.9962,-1.0677,-1.0683,-1.0979,-1.151,-1.2306,-1.2306,-1.2,-1.1513,-1.2071,-1.2312,-1.2312,-1.2312,-1.2306,-1.2288,-1.2029,-1.1724,-1.1513,-1.1772,-1.1718,0.0,0.0,0.0,0.0,0.0,0.0,0.0,0.0,-1.0677,-1.0948,-1.2419,-1.2074,-1.1347,-1.2525,-1.2241,-1.1495,-1.1495,-1.1874,-1.2373,-1.2638,-1.2922,-1.3266,-1.3791,-1.3912,-1.4063,-1.4606,-1.4714,-1.463,-1.4346,-1.4298,-1.4473,-1.5016,-1.5107,-1.5288,-1.5813,-1.5885,-1.5885,-1.5891,-1.5891,-1.5891,-1.5891,-1.5891,-1.5891,-1.5891,-1.5885,-1.5885,-1.5885,-1.5885,-1.5765,-1.5499,-1.5493,-1.5372,-1.5113,-1.5107,-1.5107,-1.5107,-1.5107,-1.5378,-1.5873,-1.5614,-1.5493,-1.5475,-1.5215,-1.5746,-1.6773,-1.678,-1.7414,-1.8395,-1.8395,-1.8395,-1.8395,-1.8395,-1.8395,-1.8395,0.0,0.0,0.0,0.0,0.0,0.0,0.0,0.0,0.0,0.0,0.0,0.0,0.0,0.0,0.0,0.0,0.0,0.0,0.0,-0.8689,-0.8834,-0.925,-0.9459,-0.9919,-1.0665,-1.1134,-1.1483,-1.1724,-1.1724,-1.1832,-1.2042,-1.2012,-1.2137,-1.2306,-1.2079,-1.1892,-1.1706,-1.1467,-1.1381,-1.1483,-1.1363,-1.1387,0.0,0.0,0.0,0.0,0.0,0.0,0.0,0.0,0.0,0.0,-1.1173,-1.1249,-1.1167,-1.154,-1.1562,-1.1495,-1.1495,-1.1874,-1.2373,-1.2638,-1.3194,-1.3713,-1.387,-1.4051,-1.4286,-1.4642,-1.4558,-1.4395,-1.431,-1.4298,-1.4413,-1.4775,-1.4835,-1.5016,-1.5541,-1.5614,-1.5686,-1.5867,-1.5891,-1.5891,-1.5891,-1.5891,-1.5891,-1.5891,-1.5722,-1.5614,-1.5614,-1.5439,-1.5306,-1.5228,-1.5228,-1.5185,-1.5107,-1.5107,-1.5107,-1.5107,-1.5107,-1.5191,-1.5336,-1.5258,-1.5125,-1.4944,-1.4865,-1.4912,-1.5075,-1.5233,-1.5993,-1.703,-1.7189,-1.7761,-1.8395,-1.8395,-1.7909,-1.7272,0.0,0.0,0.0,0.0,0.0,0.0,0.0,0.0,0.0,0.0,0.0,0.0,0.0,0.0,0.0,0.0,0.0,0.0,0.0,0.0,-0.8854,-0.9179,-0.9239,-0.9612,-1.0358,-1.1002,-1.1279,-1.117,-1.1387,-1.1597,-1.1836,-1.1787,-1.1868,-1.2149,-1.1844,-1.17,-1.1621,-1.1274,-1.1208,-1.1315,-1.1178,-1.1214,-1.1309,0.0,0.0,0.0,0.0,0.0,0.0,0.0,0.0,0.0,-1.0605,-1.0755,-1.0803,-1.1051,-1.1273,-1.1537,-1.1748,-1.2193,-1.2699,-1.2958,-1.3471,-1.393,-1.4039,-1.4268,-1.4479,-1.4539,-1.4503,-1.4431,-1.4316,-1.4298,-1.4389,-1.4672,-1.4714,-1.4865,-1.5282,-1.5342,-1.5403,-1.5559,-1.5578,-1.5578,-1.5578,-1.5578,-1.5578,-1.5578,-1.5433,-1.5342,-1.5342,-1.5191,-1.5059,-1.4956,-1.495,-1.4902,-1.4787,-1.4787,-1.4787,-1.4787,-1.4787,-1.4787,-1.4793,-1.4902,-1.4865,-1.4708,-1.46,-1.4455,-1.431,-1.4479,-1.4929,-1.5567,-1.5735,-1.6179,-1.6752,-1.6752,-1.6375,-1.58,0.0,0.0,0.0,0.0,0.0,0.0,0.0,0.0,0.0,0.0,0.0,0.0,0.0,0.0,0.0,0.0,0.0,0.0,0.0,0.0,-0.868,-0.871,-0.9275,-0.9709,-0.9967,-1.0695,-1.0997,-1.0755,-1.1212,-1.1327,-1.1117,-1.1387,-1.1639,-1.1838,-1.1621,-1.1633,-1.1778,-1.1298,-1.1063,-1.1039,-1.1039,-1.1039,-1.1039,-1.1039,0.0,0.0,0.0,0.0,0.0,0.0,0.0,0.0,-1.0575,-1.0503,-1.0424,-1.0936,-1.1254,-1.1603,-1.2137,-1.2674,-1.3107,-1.3441,-1.3731,-1.4002,-1.4244,-1.4491,-1.4606,-1.4346,-1.4497,-1.46,-1.4346,-1.4298,-1.4383,-1.4636,-1.4678,-1.4769,-1.5034,-1.5071,-1.5083,-1.5107,-1.5107,-1.5107,-1.5107,-1.5107,-1.5107,-1.5107,-1.5083,-1.5071,-1.5071,-1.5046,-1.4926,-1.4684,-1.4678,-1.4558,-1.4298,-1.4298,-1.4298,-1.4298,-1.4298,-1.4298,-1.4304,-1.4564,-1.4678,-1.4666,-1.4407,-1.4298,-1.4298,-1.4298,-1.4298,-1.4298,-1.4298,-1.4298,-1.4298,-1.4298,-1.4298,-1.4298,0.0,0.0,0.0,0.0,0.0,0.0,0.0,0.0,0.0,0.0,0.0,0.0,0.0,0.0,0.0,0.0,0.0,0.0,0.0,0.0,-0.8493,-0.8698,-0.9618,-1.025,-1.0515,-1.0882,-1.1087,-1.1027,-1.1141,-1.1172,-1.1123,-1.1573,-1.1718,-1.1585,-1.1736,-1.1591,-1.1262,-1.0906,-1.0647,-1.046,-1.046,-1.046,-1.046,-1.046,-1.043,0.0,0.0,0.0,0.0,0.0,0.0,0.0,-1.0358,-1.0478,-1.0623,-1.0737,-1.111,-1.1561,-1.192,-1.2391,-1.291,-1.3393,-1.387,-1.4226,-1.4286,-1.4346,-1.437,-1.431,-1.4346,-1.437,-1.4304,-1.4298,-1.4316,-1.4377,-1.4389,-1.4485,-1.4763,-1.4805,-1.4877,-1.5083,-1.5107,-1.5107,-1.5107,-1.5107,-1.5107,-1.5107,-1.4914,-1.4805,-1.4805,-1.4594,-1.4449,-1.4389,-1.4389,-1.4358,-1.4298,-1.4298,-1.4298,-1.4298,-1.4298,-1.4298,-1.4298,-1.4358,-1.4389,-1.4383,-1.4322,-1.4298,-1.4298,-1.4298,-1.4298,-1.4298,-1.4298,-1.4298,-1.4298,-1.4298,-1.4298,-1.4298,0.0,0.0,0.0,0.0,0.0,0.0,0.0,0.0,0.0,0.0,0.0,0.0,0.0,0.0,0.0,0.0,0.0,0.0,0.0,0.0,-0.8822,-0.9257,-0.9931,-1.0358,-1.0497,-1.0755,-1.0924,-1.0924,-1.0924,-1.0985,-1.1117,-1.1401,-1.1423,-1.1291,-1.1303,-1.119,-1.0906,-1.0611,-1.0418,-1.0292,-1.0292,-1.0292,-1.0292,-1.0292,-1.0292,-1.0256,-0.9997,0.0,0.0,0.0,0.0,0.0,0.0,0.0,-1.0334,-1.046,-1.0785,-1.1218,-1.1781,-1.23,-1.2732,-1.2888,-1.2853,-1.2829,-1.2829,-1.2829,-1.2829,-1.2829,-1.3613,-1.4298,-1.4298,-1.4298,-1.4298,-1.4298,-1.4298,-1.4346,-1.4491,-1.4515,-1.4564,-1.4702,-1.4721,-1.4721,-1.4721,-1.4721,-1.4721,-1.4721,-1.4594,-1.4515,-1.4515,-1.4377,-1.4298,-1.4298,-1.4298,-1.4298,-1.4298,-1.4298,-1.4298,-1.4298,-1.4298,-1.4298,-1.4298,-1.4298,-1.4298,-1.4298,-1.4298,-1.4298,-1.4298,-1.4298,-1.4298,-1.4298,-1.4298,-1.4298,-1.4298,-1.4298,-1.4298,-1.4298,0.0,0.0,0.0,0.0,0.0,0.0,0.0,0.0,0.0,0.0,0.0,0.0,0.0,0.0,0.0,0.0,0.0,0.0,0.0,-0.8918,-0.9218,-0.9871,-1.0112,-1.025,-1.0292,-1.0509,-1.0641,-1.0683,-1.0641,-1.0858,-1.125,-1.1208,-1.1184,-1.1178,-1.096,-1.0773,-1.0665,-1.0406,-1.0244,-1.016,-1.016,-1.016,-1.016,-1.016,-1.016,-1.013,-0.9913,-1.0003,-1.0196,-0.9979,0.0,0.0,0.0,0.0,-0.9916,-1.0131,-1.0342,-1.0701,-1.1406,-1.1993,-1.2322,-1.206,-1.1548,-1.1121,-1.117,-1.1121,-1.1068,-1.117,-1.2587,-1.3806,-1.4004,-1.4004,-1.41,-1.425,-1.4148,-1.4004,-1.4004,-1.4004,-1.3956,-1.3806,-1.3908,-1.4004,-1.4004,-1.4004,-1.41,-1.4298,-1.4298,-1.4298,-1.4298,-1.4298,-1.4298,-1.4298,-1.41,-1.41,-1.4298,-1.41,-1.41,-1.425,-1.4154,-1.4202,-1.425,-1.4154,-1.4202,-1.4298,-1.4298,-1.4298,-1.4298,-1.4298,-1.4298,-1.4298,-1.4298,-1.4298,-1.4298,-1.4298,-1.4298,-1.4298,0.0,0.0,0.0,0.0,0.0,0.0,0.0,0.0,0.0,0.0,-1.1684,-1.137,-1.1295,-1.0268,0.0,0.0,0.0,0.0,-0.8327,0.0,0.0,-0.9871,-0.9937,-1.0063,-1.0286,-1.0328,-1.0454,-1.0683,-1.0454,-1.0833,-1.1811,-1.1543,-1.1441,-1.1435,-1.1399,-1.1122,-1.0665,-1.0406,-1.0033,-0.9618,-0.9618,-0.9618,-0.9618,-0.9618,-0.9618,-0.9618,-0.9582,-0.9739,-0.9949,-0.9919,-1.0075,0.0,0.0,0.0,-0.9718,-0.9754,-0.9845,-1.0008,-1.0331,-1.0783,-1.1095,-1.0889,-1.0821,-1.0925,-1.117,-1.0818,-1.0618,-1.1121,-1.1414,-1.1901,-1.2732,-1.2926,-1.3221,-1.4148,-1.3511,-1.2926,-1.2926,-1.2926,-1.2581,-1.1712,-1.2387,-1.2926,-1.2926,-1.2926,-1.3318,-1.425,-1.4298,-1.4298,-1.4298,-1.4298,-1.4298,-1.4298,-1.3414,-1.3366,-1.4298,-1.3366,-1.3275,-1.3931,-1.3732,-1.3732,-1.3931,-1.3732,-1.3871,-1.4298,-1.4298,-1.4298,-1.4298,-1.4298,-1.4298,-1.4298,-1.4298,-1.4298,-1.4298,-1.4298,-1.4298,-1.4298,0.0,0.0,0.0,0.0,0.0,0.0,0.0,0.0,0.0,0.0,0.0,-1.1548,-1.1112,-1.019,0.0,0.0,0.0,0.0,-0.8543,-0.8751,0.0,0.0,-0.969,-0.9811,-1.0069,-1.0075,-1.013,-1.025,-1.013,-1.0623,-1.1663,-1.1549,-1.1645,-1.1956,-1.1621,-1.1194,-1.0659,-1.025,-0.9859,-0.9516,-0.9516,-0.9292,-0.903,-0.9359,-0.9292,-0.9024,-0.9391,-0.9588,-0.9652,-0.9581,-0.9759,-0.983,-0.9058,0.0,0.0,0.0,-0.8246,-0.8509,-0.91,-0.9188,-0.9118,-0.9229,-0.898,-0.8747,-0.8939,-0.8761,-0.8662,-0.8909,-0.8958,-0.9501,-1.1317,-1.1502,-1.1546,-1.2032,-1.1741,-1.14,-1.14,-1.14,-1.1253,-1.0814,-1.1156,-1.1453,-1.1609,-1.1658,-1.1901,-1.2538,-1.2538,-1.2829,-1.3366,-1.2877,-1.2829,-1.3366,-1.2387,-1.1999,-1.2344,-1.1853,-1.1755,-1.1945,-1.1799,-1.215,-1.2845,-1.2694,-1.3184,-1.407,-1.3919,-1.3919,-1.407,-1.407,-1.416,-1.4298,-1.4298,-1.4298,-1.4298,-1.4298,-1.4298,-1.4298,0.0,0.0,0.0,0.0,0.0,0.0,0.0,0.0,0.0,0.0,0.0,0.0,-1.1086,0.0,0.0,0.0,0.0,0.0,-0.879,0.0,0.0,0.0,0.0,-0.9534,-0.9799,-0.9805,-0.9841,-0.9907,-0.9841,-1.0454,-1.1688,-1.1621,-1.2023,-1.2693,-1.2054,-1.1453,-1.0857,-1.04,-1.0051,-0.9772,-0.9404,-0.8984,-0.8639,-0.8908,-0.8726,-0.8384,-0.8806,-0.8942,-0.892,-0.876,-0.881,-0.8832,-0.7985,-0.7848,0.0,0.0,0.0,-0.7181,-0.766,-0.7589,-0.7436,-0.7559,-0.7269,-0.693,-0.7146,-0.7087,-0.7,-0.7179,-0.7086,-0.758,-0.9452,-0.9887,-1.0075,-1.0369,-1.0173,-0.9976,-0.9976,-0.9976,-0.9882,-0.9637,-0.9829,-1.0079,-1.0284,-1.0284,-1.048,-1.097,-1.1019,-1.1312,-1.2091,-1.1409,-1.1361,-1.2086,-1.1116,-1.0627,-1.0676,-1.0632,-1.048,-1.0275,-1.0226,-1.0672,-1.1517,-1.1414,-1.2106,-1.334,-1.3443,-1.3588,-1.3786,-1.3786,-1.3925,-1.4112,-1.4112,-1.4112,-1.4112,-1.4112,-1.416,-1.4208,0.0,0.0,0.0,0.0,0.0,0.0,0.0,0.0,0.0,0.0,0.0,0.0,0.0,0.0,0.0,0.0,0.0,0.0,0.0,0.0,0.0,0.0,0.0,0.0,-0.9528,-0.9534,-0.966,-0.9907,-0.966,-1.046,-1.227,-1.2017,-1.259,-1.3791,-1.2994,-1.221,-1.1429,-1.1178,-1.0863,-1.0527,-0.9173,-0.8639,-0.8528,-0.7919,-0.769,-0.7618,-0.7461,-0.7429,-0.7373,0.0,-0.7031,-0.7036,-0.6961,-0.6896,-0.6765,0.0,0.0,0.0,-0.5958,-0.6204,-0.6469,-0.612,-0.6198,-0.6453,-0.6988,-0.6712,-0.6505,-0.7065,-0.6786,-0.6537,-0.6942,-0.8021,-0.9197,-1.0222,-0.9538,-0.8905,-0.8905,-0.8905,-0.851,-0.7481,-0.8266,-0.8905,-0.8905,-0.8905,-0.9345,-1.0369,-1.0418,-1.0467,-1.0516,-1.0467,-1.0467,-1.0516,-0.9489,-0.9391,-1.0418,-1.019,-1.0047,-0.9998,-0.9752,-0.9805,-1.0096,-0.985,-1.044,-1.1809,-1.2996,-1.3491,-1.3539,-1.3539,-1.3539,-1.3539,-1.3539,-1.3539,-1.3539,-1.3539,-1.3684,-1.3931,0.0,0.0,0.0,0.0,0.0,0.0,0.0,0.0,0.0,0.0,0.0,0.0,0.0,-1.0454,-0.9658,-0.9133,0.0,0.0,0.0,0.0,0.0,0.0,0.0,0.0,0.0,-0.9516,-0.9558,-0.9654,-0.9558,-1.0112,-1.1254,-1.1365,-1.1712,-1.2391,-1.2608,-1.2361,-1.166,-1.055,-0.9902,-0.9578,-0.8524,-0.7829,-0.7447,-0.7574,-0.7375,-0.7086,-0.7365,0.0,0.0,0.0,0.0,-0.6735,-0.6165,-0.5922,-0.5705,-0.5282,-0.512,-0.5051,-0.5048,-0.5188,-0.5377,-0.5529,-0.5685,-0.5875,-0.6253,-0.6297,-0.6377,-0.6565,-0.6484,-0.6437,-0.6539,-0.6933,-0.7375,-0.7766,-0.7521,-0.7276,-0.7276,-0.7276,-0.7129,-0.6736,-0.703,-0.7329,-0.7481,-0.7531,-0.7726,-0.8315,-0.8365,-0.8658,-0.9345,-0.8707,-0.8658,-0.9341,-0.8315,-0.7875,-0.8071,-0.7822,-0.7673,-0.7673,-0.7574,-0.7971,-0.8715,-0.8616,-0.9209,-1.0342,-1.0783,-1.1868,-1.3244,-1.3244,-1.3346,-1.3491,-1.3491,-1.3491,-1.3491,-1.3491,-1.3539,-1.3636,0.0,0.0,0.0,0.0,0.0,0.0,0.0,0.0,0.0,-1.2955,0.0,0.0,0.0,0.0,-0.9916,-0.918,-0.9105,-0.9044,-0.8901,0.0,0.0,0.0,0.0,0.0,0.0,-0.9516,-0.9516,-0.9516,-0.9516,-0.9919,-1.0689,-1.0863,-1.1188,-1.1639,-1.1774,-1.1706,-1.1433,-1.0253,-0.9511,-0.9019,-0.7889,-0.7176,-0.6756,-0.6903,-0.6675,-0.6357,-0.6718,0.0,0.0,0.0,0.0,-0.6026,-0.5415,-0.5102,-0.4888,-0.4431,-0.43,-0.4336,-0.4528,-0.4599,-0.4734,-0.518,-0.5311,-0.5421,-0.582,-0.5999,-0.6124,-0.6292,-0.6328,-0.6391,-0.6379,-0.6387,-0.6387,-0.6387,-0.6387,-0.6387,-0.6387,-0.6387,-0.6387,-0.6387,-0.6387,-0.6487,-0.6642,-0.6642,-0.6739,-0.6939,-0.6936,-0.7232,-0.7968,-0.7332,-0.7282,-0.7968,-0.7279,-0.6836,-0.6692,-0.6487,-0.6387,-0.6387,-0.6387,-0.6783,-0.7478,-0.7478,-0.8071,-0.9061,-0.9061,-1.0342,-1.2457,-1.2457,-1.2802,-1.3249,-1.3249,-1.3249,-1.3249,-1.3249,-1.3298,-1.3394,0.0,0.0,0.0,0.0,0.0,0.0,0.0,0.0,-1.3914,-1.3378,0.0,0.0,0.0,0.0,0.0,-0.9795,-0.9715,-0.9657,-0.9518,-0.933,0.0,0.0,0.0,0.0,-0.951,-0.9516,-0.9516,-0.9516,-0.9516,-0.9907,-1.0647,-1.0659,-1.108,-1.1756,-1.0592,-1.0258,-1.0557,-1.0292,-0.9776,-0.8927,-0.7374,-0.6691,-0.6517,-0.5932,-0.5613,-0.5497,-0.5426,-0.5424,0.0,-0.5116,0.0,0.0,-0.4725,-0.4525,-0.4306,-0.4303,-0.4303,-0.4306,0.0,0.0,0.0,-0.4912,-0.5004,-0.5159,-0.5744,-0.5798,-0.5822,-0.6181,-0.6306,-0.6293,-0.6354,-0.6376,-0.6376,-0.6381,-0.6384,-0.6387,-0.6387,-0.6387,-0.6387,-0.6387,-0.6387,-0.6387,-0.6387,-0.6387,-0.6387,-0.6387,-0.6387,-0.6387,-0.6387,-0.6387,-0.6387,-0.6387,-0.6387,-0.6387,-0.6387,-0.6387,-0.6387,-0.6387,-0.6387,-0.6387,-0.6387,-0.6387,-0.698,-0.7971,-0.7971,-0.9156,-1.1121,-1.1121,-1.177,-1.271,-1.2759,-1.2764,-1.2764,-1.2813,-1.291,-1.3098,0.0,0.0,0.0,0.0,0.0,-1.4974,-1.4544,-1.4251,-1.3942,0.0,0.0,0.0,-1.1852,-1.0836,-1.0049,-0.9744,-0.9715,-0.9686,-0.9657,-0.9553,-0.9521,-0.9536,-0.9456,-0.9438,-0.951,-0.9516,-0.9516,-0.9516,-0.9516,-0.9624,-0.9841,-1.0033,-0.999,-0.9725,-0.9597,-0.8964,-0.8038,-0.7947,-0.7983,-0.7961,-0.651,-0.6083,-0.6251,-0.5763,-0.5591,0.0,0.0,-0.5703,-0.5624,0.0,-0.5336,-0.5021,0.0,-0.4509,-0.444,-0.4325,-0.4357,-0.444,-0.4322,0.0,0.0,0.0,0.0,0.0,-0.5184,-0.5371,-0.5548,-0.5825,-0.5947,-0.604,-0.6159,-0.6181,-0.6211,-0.6301,-0.6382,-0.6387,-0.6387,-0.6387,-0.6387,-0.6387,-0.6387,-0.6387,-0.6387,-0.6387,-0.6387,0.0,-0.6387,-0.6387,-0.6387,-0.6387,-0.6387,-0.6387,-0.6387,-0.6387,-0.6387,-0.6387,-0.6387,-0.6387,-0.6387,-0.6387,-0.6387,-0.6387,-0.6584,-0.6833,-0.6833,-0.7624,-0.8958,-0.9702,-1.0199,-1.0542,-1.1326,-1.1619,-1.1717,-1.2511,-1.2861,-1.2856,0.0,0.0,0.0,0.0,0.0,-1.5409,-1.4926,-1.483,-1.4657,0.0,0.0,0.0,-1.1602,-1.1109,-1.0616,-1.0134,-1.0077,-1.0077,-1.0077,-0.9962,-0.9843,-0.978,-0.9686,-0.958,-0.9516,-0.9215,-0.9081,-0.9081,-0.9081,-0.892,-0.8635,-0.91,-0.8931,-0.8269,-0.8131,-0.7617,-0.6818,-0.6398,-0.6444,-0.6789,-0.608,-0.5828,-0.588,-0.5656,-0.5597,0.0,0.0,0.0,-0.5696,-0.5742,-0.5529,0.0,-0.48,-0.4665,-0.4569,-0.4501,-0.4531,-0.4566,-0.4501,-0.4531,-0.4608,-0.4673,0.0,0.0,-0.5086,-0.5195,-0.532,-0.5618,-0.5739,-0.5885,-0.6053,-0.6086,-0.6111,-0.6181,-0.6246,-0.6323,-0.6373,-0.6387,-0.6387,-0.6387,-0.6387,-0.6387,-0.6387,-0.6387,-0.6387,-0.6387,-0.6387,-0.6387,-0.6387,-0.6387,-0.6387,-0.6387,-0.6387,-0.6387,-0.6387,-0.6387,-0.6387,-0.6387,-0.6387,-0.6387,-0.6387,-0.6387,-0.6387,-0.6387,-0.6387,-0.6734,-0.7378,-0.8021,-0.8814,-0.9657,-1.0293,-1.0538,-1.0685,-1.1722,-1.2116,-1.2214,0.0,0.0,-1.6208,-1.5585,-1.5831,-1.5946,-1.5495,-1.5657,-1.5653,0.0,-1.431,-1.3194,-1.1885,-1.2072,-1.1859,-1.0845,-1.0646,-1.0606,-1.064,-1.0416,-1.018,-1.0015,-0.9862,-0.9676,-0.9516,-0.885,-0.849,-0.849,-0.8425,-0.8032,-0.7419,-0.8069,-0.8004,-0.7256,-0.6662,-0.6422,-0.6397,-0.5511,-0.5364,-0.5682,-0.582,-0.5767,-0.5551,-0.5635,-0.561,-0.5556,-0.5822,-0.5839,-0.5721,-0.5855,-0.5591,0.0,-0.5061,-0.4876,-0.4742,-0.4701,-0.4709,-0.4725,-0.4695,-0.4698,-0.4758,-0.4925,-0.4825,0.0,-0.5251,-0.5159,-0.5143,-0.5537,-0.5629,-0.5741,-0.5964,-0.6015,-0.6026,-0.6026,-0.6048,-0.6149,-0.6385,-0.6368,-0.6373,-0.6384,-0.6387,-0.6387,-0.6387,-0.6387,-0.6387,-0.6387,-0.6387,-0.6387,-0.6387,-0.6387,-0.6387,-0.6387,-0.6387,-0.6387,-0.6387,-0.6387,-0.6387,-0.6387,-0.6387,-0.6387,-0.6387,-0.6387,-0.6387,-0.6387,-0.6387,-0.6387,-0.6387,-0.6387,-0.7528,-0.9258,-0.9361,-0.9406,-0.9554,-1.0632,-1.1023,-1.1175,0.0,-1.6956,-1.6938,-1.6108,-1.6036,-1.631,-1.6872,-1.6287,-1.5908,-1.6184,-1.469,-1.352,-1.3203,-1.2228,-1.1614,-1.1638,-1.1002,-1.0687,-1.0928,-1.0367,-1.0047,-0.9983,-0.9702,-0.9548,-0.9516,-0.885,-0.849,-0.849,-0.7907,-0.7549,-0.7419,-0.7549,-0.7251,-0.6597,-0.6465,-0.6127,-0.5617,-0.5491,-0.5439,-0.5439,-0.5325,-0.5511,-0.578,-0.5602,-0.5588,-0.5672,-0.5852,-0.5888,-0.5858,-0.5745,-0.5594,-0.5383,0.0,-0.5048,-0.5065,-0.4775,-0.4829,-0.4904,-0.4742,-0.4724,-0.4787,-0.4775,-0.4762,0.0,-0.4879,-0.498,-0.5069,-0.5254,-0.5292,-0.5339,-0.5525,-0.5589,-0.561,-0.561,-0.5814,-0.6024,-0.6268,-0.6301,-0.6333,-0.6376,-0.6387,-0.6387,-0.6387,-0.6387,-0.6387,-0.6387,-0.6387,-0.6387,-0.6387,-0.6387,-0.6387,-0.6387,-0.6387,-0.6387,-0.6387,-0.6387,-0.6387,-0.6387,-0.6387,-0.6387,-0.6387,-0.6387,-0.6387,-0.6387,-0.6387,-0.6387,-0.6387,-0.6387,-0.6634,-0.7129,-0.7971,-0.8319,-0.8418,-0.9505,-0.9899,-0.9953,-1.6814,-1.6483,-1.6352,-1.6137,-1.6281,-1.6621,-1.7285,-1.7122,-1.6971,-1.722,-1.581,-1.4371,-1.3258,-1.2499,-1.2024,-1.1913,-1.1363,-1.0995,-1.0995,-1.0692,-1.0354,-1.0021,-0.953,-0.9172,-0.9017,-0.7999,-0.7442,-0.7442,-0.7088,-0.6732,-0.6408,-0.6732,-0.6515,-0.5862,-0.5881,-0.5696,-0.5342,-0.5208,-0.5219,-0.5316,-0.5392,-0.5524,-0.5683,-0.5619,-0.5637,-0.566,-0.5312,-0.4885,-0.4451,-0.4319,-0.4214,0.0,-0.3895,-0.3851,-0.3903,0.0,-0.4338,-0.4467,-0.4768,-0.4879,-0.4925,-0.4958,0.0,0.0,0.0,-0.4966,-0.4993,-0.5227,-0.5227,-0.5243,-0.5426,-0.5461,-0.548,-0.5497,-0.5607,-0.5793,-0.5975,-0.6102,-0.6222,-0.6339,-0.6352,-0.6374,-0.6381,-0.6387,-0.6387,-0.6387,-0.6387,-0.6387,-0.6387,-0.6387,-0.6387,-0.6387,-0.6387,-0.6387,-0.6387,-0.6387,-0.6387,-0.6387,-0.6387,-0.6387,-0.6387,-0.6387,-0.6387,-0.6387,-0.6387,-0.6387,-0.6387,-0.6387,-0.6387,-0.6437,-0.6983,-0.7179,-0.7329,-0.8418,-0.8814,-0.8867,-1.6758,-1.6132,-1.5752,-1.6047,-1.6436,-1.6872,-1.7422,-1.7725,-1.7804,-1.7649,-1.6513,-1.5088,-1.3268,-1.295,-1.2647,-1.2059,-1.1562,-1.1216,-1.1064,-1.0708,-1.0345,-0.9953,-0.918,-0.863,-0.8354,-0.7073,-0.64,-0.64,-0.6268,-0.5947,-0.5428,-0.5947,-0.59,-0.5372,-0.5389,-0.5386,-0.5373,-0.4987,-0.5005,-0.5343,-0.5543,-0.5521,-0.5454,-0.5599,-0.5565,-0.5265,-0.4462,-0.3668,-0.2964,-0.29,-0.283,-0.2741,-0.2718,-0.265,0.0,0.0,0.0,-0.3718,-0.4276,-0.4446,-0.4463,0.0,0.0,-0.4312,0.0,0.0,0.0,-0.4668,-0.4771,-0.4844,-0.5071,-0.5218,-0.5319,-0.5394,-0.5462,-0.5526,-0.5578,-0.5833,-0.6037,-0.6181,-0.6268,-0.6268,-0.6361,-0.6298,-0.6295,-0.6317,-0.6319,-0.633,-0.6401,-0.6376,-0.6387,-0.6387,-0.6387,-0.6387,-0.6387,-0.6387,-0.6387,-0.6387,-0.6387,-0.6387,-0.6387,-0.6387,-0.6387,-0.6387,-0.6387,-0.6387,-0.6387,-0.6387,-0.6387,-0.6387,-0.6387,-0.6387,-0.6484,-0.7378,-0.7677,-0.7822,-1.6832,-1.6691,-1.6514,-1.6167,-1.6436,-1.697,-1.7812,-1.7666,-1.721,-1.6435,-1.545,-1.4766,-1.4496,-1.3682,-1.2967,-1.2469,-1.1403,-1.0894,-1.1147,-0.9656,-0.9051,-0.9691,-0.8506,-0.7823,-0.7779,-0.6875,-0.64,-0.64,-0.5818,-0.5462,-0.5395,-0.5495,-0.5541,-0.5555,-0.5393,-0.5462,-0.5704,-0.512,-0.5222,-0.5686,-0.5385,-0.5257,-0.5252,-0.544,-0.5005,-0.4189,-0.339,-0.3011,-0.2911,0.0,-0.2901,-0.2875,0.0,-0.2758,-0.282,-0.2707,0.0,0.0,0.0,0.0,0.0,0.0,-0.2253,0.0,0.0,0.0,-0.2403,-0.2331,0.0,-0.3385,-0.3596,0.0,0.0,-0.5052,-0.5303,-0.5437,-0.5276,-0.5416,-0.565,-0.5918,-0.604,-0.6111,-0.6124,-0.6029,-0.6007,-0.6119,-0.6124,-0.6173,-0.6282,-0.6382,-0.6387,-0.6387,-0.6387,-0.6387,-0.6387,-0.6387,-0.6387,-0.6387,-0.6387,-0.6387,-0.6387,-0.6387,-0.6387,-0.6387,-0.6387,-0.6387,-0.6387,-0.6387,-0.6387,-0.6387,-0.6387,-0.6387,-0.6437,-0.6534,-0.6587,-0.6584,-1.6324,-1.6228,-1.6141,-1.6107,-1.6251,-1.6719,-1.7842,-1.8221,-1.7995,-1.6882,-1.6162,-1.5618,-1.5302,-1.4363,-1.3435,-1.2681,-1.2063,-1.1337,-1.0384,-0.9723,-0.9264,-0.9001,-0.8073,-0.7377,-0.7078,-0.6328,-0.5914,-0.5815,-0.5524,-0.5395,-0.5395,-0.5395,-0.5454,-0.5538,-0.5467,-0.5518,-0.5648,-0.5195,-0.5179,-0.533,-0.4582,-0.4291,-0.4327,-0.4649,-0.3844,-0.2479,-0.2145,-0.1659,-0.1207,0.0,-0.1206,0.0,0.0,0.0,0.0,-0.1517,0.0,0.0,0.0,0.0,0.0,0.0,0.0,0.0,-0.2045,0.0,-0.1987,0.0,0.0,0.0,0.0,0.0,0.0,0.0,-0.4421,-0.4722,-0.516,-0.5336,-0.5534,-0.5776,0.0,0.0,-0.5966,-0.5931,-0.5953,-0.6075,-0.6021,-0.6064,-0.6309,-0.6314,-0.6369,-0.6384,-0.6387,-0.6387,-0.6387,-0.6387,-0.6387,-0.6387,-0.6387,-0.6387,-0.6387,-0.6387,-0.6387,-0.6387,-0.6387,-0.6387,-0.6387,-0.6387,-0.6387,-0.6387,-0.6387,-0.6387,-0.6387,-0.6387,-0.6387,-0.6387,-1.6019,-1.5846,-1.5801,-1.5959,-1.6154,-1.6617,-1.7662,-1.7944,-1.7763,-1.7092,-1.65,-1.5992,-1.5711,-1.47,-1.3652,-1.2668,-1.2142,-1.1286,-0.9876,-0.9557,-0.913,-0.8545,-0.7618,-0.692,-0.6541,-0.5926,-0.5535,-0.5457,-0.5416,-0.5395,-0.5395,-0.5395,-0.5433,-0.5535,-0.5503,-0.5418,-0.5276,-0.4912,-0.466,-0.4435,-0.3616,-0.3181,-0.3033,-0.3346,-0.263,-0.1345,-0.1122,-0.0584,0.0,0.0,0.0,0.0,0.0,0.0,-0.0083,0.0,0.0,0.0,-0.1026,0.0,0.0,0.0,0.0,0.0,0.0,0.0,0.0,0.0,0.0,0.0,0.0,0.0,0.0,0.0,0.0,-0.4112,-0.5028,-0.5243,-0.5385,-0.5561,0.0,0.0,0.0,-0.5795,-0.5822,-0.5977,-0.5877,-0.5912,-0.6157,-0.6281,-0.6306,-0.6388,-0.6371,-0.6387,-0.6387,-0.6387,-0.6387,-0.6387,-0.6387,-0.6387,-0.6387,-0.6387,-0.6387,-0.6387,-0.6387,-0.6387,-0.6387,-0.6387,-0.6387,-0.6387,-0.6387,-0.6387,-0.6387,-0.6387,-0.6387,-0.6387,-1.6114,-1.599,-1.5866,-1.5721,-1.6244,-1.6846,-1.7346,-1.6173,-1.5547,-1.6417,-1.5707,-1.5298,-1.5646,-1.4558,-1.3425,-1.2422,-1.106,-1.018,-0.9983,-0.8676,-0.8102,-0.8571,-0.7201,-0.6379,-0.6311,-0.5849,-0.5589,-0.5583,-0.5467,-0.5395,-0.5395,-0.5395,-0.5481,-0.5603,-0.5532,-0.5152,-0.4489,-0.41,-0.3614,-0.3054,-0.2658,-0.2107,-0.1471,0.0,-0.141,-0.1301,-0.0359,0.0,0.0,0.0,0.0,0.0,0.0,0.0,0.0,0.0,0.0,0.0,0.0,0.0,0.0,0.1107,0.0,0.0,0.0,0.0,0.1211,0.0,0.0,0.0,0.0,0.0,0.0,0.0,0.0,0.0,0.0,-0.5121,-0.5195,-0.5203,-0.5367,-0.5556,0.0,-0.5523,-0.5485,0.0,-0.5586,-0.5621,-0.5901,-0.614,-0.632,-0.6322,-0.638,-0.6387,-0.6387,-0.6387,-0.6387,-0.6387,-0.6387,-0.6387,-0.6387,-0.6387,-0.6387,-0.6387,-0.6387,-0.6387,-0.6387,-0.6387,-0.6387,-0.6387,-0.6387,-0.6387,-0.6387,-0.6387,-0.6387,-0.6387,-1.6592,-1.6668,-1.6548,-1.581,-1.5597,-1.5568,-1.5727,-1.5751,-1.5856,-1.6128,-1.5792,-1.5639,-1.5987,-1.4692,-1.3449,-1.2507,-1.1475,-1.0407,-0.9293,-0.8725,-0.8291,-0.7942,-0.7468,-0.694,-0.6443,-0.6289,-0.6078,-0.5881,-0.5728,-0.565,-0.565,-0.559,-0.5589,-0.5735,-0.5672,-0.5167,-0.436,-0.4191,-0.353,-0.2586,-0.1853,-0.1122,-0.0449,0.0,-0.0446,-0.0449,-0.0135,0.0,0.0,0.0,0.0,0.0,0.0,0.0,0.0043,0.022,0.0265,0.0,0.0,0.0,0.0579,0.0997,0.0,0.0,0.0,0.0,0.0,0.0,0.0,0.0,0.0,0.0,0.0,0.0,0.0,0.0,0.0,-0.4698,-0.5102,-0.5178,-0.5359,-0.5459,-0.5382,-0.5442,-0.5481,-0.5564,-0.5532,0.0,-0.589,-0.5983,-0.6102,-0.6311,-0.6306,-0.6361,-0.6384,-0.6387,-0.6387,-0.6387,-0.6387,-0.6387,-0.6387,-0.6387,-0.6387,-0.6387,-0.6387,-0.6387,-0.6387,-0.6387,-0.6387,-0.6387,-0.6387,-0.6387,-0.6387,-0.6387,-0.6387,-0.6387,-1.7133,-1.6959,-1.6564,-1.5856,-1.5183,-1.4841,-1.5104,-1.5389,-1.5681,-1.5942,-1.5798,-1.5669,-1.567,-1.4407,-1.3159,-1.2114,-1.1196,-1.0136,-0.8996,-0.8917,-0.8562,-0.7793,-0.7722,-0.7378,-0.6712,-0.6607,-0.6407,-0.6112,-0.5959,-0.5854,-0.5796,-0.5657,-0.564,-0.5732,-0.5739,-0.4969,-0.3725,-0.3806,-0.2962,-0.1548,-0.0947,-0.0438,0.0,0.0,0.0,0.0,0.0,0.0,0.0,0.0,0.0,0.0,0.0,0.0,0.0043,0.0223,0.0267,0.0309,0.0536,0.0538,0.0,0.0919,0.0953,0.0,0.1245,0.0,0.1343,0.0,0.0,0.0,0.0,0.0,0.0,-0.0379,0.0,0.0,0.0,-0.4666,-0.5045,-0.5118,-0.5301,-0.5351,-0.5322,-0.5379,-0.5432,-0.5561,-0.5491,-0.5591,0.0,-0.588,-0.5975,-0.6132,-0.6273,-0.6304,-0.6377,-0.6368,-0.6387,-0.6387,-0.6387,-0.6387,-0.6387,-0.6387,-0.6387,-0.6387,-0.6387,-0.6387,-0.6387,-0.6387,-0.6387,-0.6387,-0.6387,-0.6387,-0.6387,-0.6387,-0.6387,-0.6387,-1.7667,-1.6789,-1.6002,-1.5785,-1.5061,-1.473,-1.5464,-1.4999,-1.4912,-1.5861,-1.5761,-1.5359,-1.4744,-1.3698,-1.2587,-1.1317,-1.0207,-0.9482,-0.9145,-0.9116,-0.8803,-0.8135,-0.802,-0.7661,-0.7105,-0.6875,-0.6586,-0.632,-0.6129,-0.5973,-0.582,-0.5677,-0.5606,-0.5606,-0.5713,-0.463,-0.2747,-0.2959,-0.1894,0.0,0.0,0.0,0.0,0.0,0.0,0.0,0.0,0.0,0.0,0.0,0.0,0.0,0.0,0.0,0.0,0.0,0.0,0.0045,0.0314,0.0538,0.0714,0.092,0.0,0.0,0.0,0.0,0.1472,0.0,0.0,0.0,0.0,0.0,0.0,-0.0255,-0.1219,0.0,0.0,-0.5034,-0.5034,-0.5034,-0.5129,-0.5281,-0.5459,-0.533,-0.5347,-0.5645,-0.5507,-0.5483,-0.5677,-0.5831,-0.589,-0.5904,-0.613,-0.6306,-0.6317,-0.6374,-0.6381,-0.6387,-0.6387,-0.6387,-0.6387,-0.6387,-0.6387,-0.6387,-0.6387,-0.6387,-0.6387,-0.6387,-0.6387,-0.6387,-0.6387,-0.6387,-0.6387,-0.6387,-0.6387,-0.6387,-1.7116,-1.6091,-1.5331,-1.5295,-1.4627,-1.4325,-1.4988,-1.4801,-1.4864,-1.5627,-1.5687,-1.5371,-1.4495,-1.3457,-1.2387,-1.1268,-1.0207,-0.9538,-0.9498,-0.9364,-0.908,-0.8515,-0.8426,-0.8052,-0.7316,-0.7238,-0.7,-0.6586,-0.6434,-0.6285,-0.6177,-0.5989,-0.5854,-0.5716,-0.5274,-0.4251,-0.2906,-0.2591,-0.1593,-0.0269,-0.009,0.0,0.0,0.0,0.0,0.0,0.0,0.0,0.0,0.0,0.0,0.0,0.0,0.0,0.0,0.0,0.0,0.0,0.009,0.0135,0.0269,0.0669,0.0839,0.0966,0.0,0.0,0.0,0.0,0.0,0.0,0.0,0.0,0.0,0.0,-0.1217,0.0,0.0,-0.5279,-0.5279,-0.5279,-0.5344,-0.5279,-0.5125,-0.5294,-0.5458,-0.5464,-0.5488,-0.5526,-0.568,0.0,-0.5677,-0.5896,-0.5964,-0.6083,-0.6317,-0.6295,-0.6352,-0.6387,-0.6387,-0.6387,-0.6387,-0.6387,-0.6387,-0.6387,-0.6387,-0.6387,-0.6387,-0.6387,-0.6387,-0.6387,-0.6387,-0.6387,-0.6387,-0.6387,-0.6387,-0.6387,-1.7114,-1.6231,-1.5518,-1.5065,-1.4683,-1.4559,-1.4906,-1.4973,-1.5134,-1.5574,-1.5288,-1.4648,-1.3672,-1.2667,-1.1609,-1.0592,-0.9965,-0.9596,-0.9514,-0.9486,-0.9296,-0.8787,-0.8706,-0.8383,-0.7761,-0.7598,-0.7282,-0.6892,-0.6678,-0.6504,-0.6296,-0.6101,-0.5729,-0.5216,-0.493,-0.3973,-0.2518,-0.185,-0.1134,-0.0532,-0.0271,-0.0182,0.0,-0.0047,0.0,0.0,0.0,0.0,0.0,0.0,0.0,0.0,0.0,0.0,0.0,0.0,0.0,0.0,0.0,0.009,0.0224,0.0493,0.0676,0.0816,0.1045,0.1155,0.1172,0.0,0.0,0.0,0.0,0.0,0.0,0.0,0.0,0.0,0.0,0.0,-0.5391,-0.5336,-0.5377,-0.5276,-0.504,-0.5203,-0.5385,-0.5413,-0.5431,-0.5481,0.0,0.0,-0.5648,-0.5825,-0.5877,-0.5969,-0.6108,-0.6265,-0.6301,-0.6363,-0.6363,-0.6387,-0.6387,-0.6387,-0.6387,-0.6387,-0.6387,-0.6387,-0.6387,-0.6387,-0.6387,-0.6387,-0.6387,-0.6387,-0.6387,-0.6387,-0.6387,-0.6387,-1.7243,-1.6606,-1.5927,-1.5069,-1.4986,-1.507,-1.5063,-1.5305,-1.5509,-1.5589,-1.4924,-1.3977,-1.2944,-1.1978,-1.0984,-0.992,-0.9673,-0.9559,-0.9449,-0.9539,-0.9412,-0.9063,-0.8898,-0.8603,-0.8215,-0.7817,-0.7438,-0.7112,-0.6837,-0.6579,-0.6304,-0.6016,-0.5368,-0.4504,-0.4502,-0.353,-0.1871,-0.1081,-0.0754,-0.0748,-0.0547,-0.0417,-0.0372,-0.0142,-0.0048,0.0,0.0,0.0,0.0,0.0,0.0,0.0,0.0,0.0,0.0,0.0,0.0,0.0,0.0,0.018,0.0359,0.0403,0.0553,0.0754,0.0696,0.075,0.0808,0.081,0.074,0.0679,0.0,0.0,0.0,0.0,0.0,0.0,0.0,0.0,-0.5077,-0.5042,-0.5175,0.0,0.0,-0.5143,-0.5249,-0.538,-0.5385,0.0,0.0,0.0,-0.5656,-0.5688,-0.5831,-0.5888,-0.5904,-0.613,-0.63,-0.632,-0.6234,-0.6187,-0.6187,-0.6034,-0.6034,-0.6187,-0.6187,-0.6287,-0.6387,-0.6387,-0.6387,-0.6387,-0.6387,-0.6337,-0.6184,-0.6337,-0.6337,-0.6184,-1.6367,-1.5833,-1.542,-1.4992,-1.5173,-1.5425,-1.5498,-1.5376,-1.5342,-1.5643,-1.5611,-1.513,-1.413,-1.3049,-1.2047,-1.1028,-1.0109,-0.9567,-0.9583,-0.9612,-0.9464,-0.919,-0.8913,-0.8603,-0.8215,-0.7817,-0.7482,-0.7175,-0.687,-0.6561,-0.6286,-0.551,-0.4973,-0.4516,-0.3391,-0.2352,-0.1418,-0.1079,-0.098,-0.1008,-0.083,-0.0607,-0.038,-0.0339,-0.0196,0.0,0.0,0.0,0.0,0.0,0.0,0.0,0.0,0.0,0.0,0.0,0.0,0.0,0.0,0.0045,0.0135,0.0359,0.0451,0.0546,0.0738,0.0788,0.0794,0.0808,0.0608,0.0507,0.074,0.0,0.0,0.0,0.0,0.0,0.0,0.0,-0.3559,-0.4212,-0.4413,-0.4667,0.0,0.0,0.0,-0.5224,-0.5219,-0.5314,0.0,0.0,-0.5523,0.0,-0.571,-0.5809,0.0,0.0,-0.6168,-0.6271,-0.549,-0.5083,-0.5035,-0.4178,-0.4228,-0.5083,-0.5083,-0.5584,-0.6387,-0.6387,-0.6387,-0.6387,-0.6387,-0.5837,-0.5186,-0.6087,-0.5837,-0.5186,-1.6566,-1.6166,-1.5827,-1.5503,-1.5639,-1.5772,-1.5656,-1.5579,-1.5543,-1.5674,-1.5272,-1.4546,-1.3507,-1.2512,-1.1517,-1.0449,-0.992,-0.9579,-0.9579,-0.9579,-0.9529,-0.943,-0.9027,-0.8689,-0.8521,-0.7903,-0.7538,-0.7406,0.0,-0.6586,-0.637,-0.5446,-0.467,-0.3971,-0.2534,-0.1643,-0.1288,-0.1274,0.0,-0.1233,-0.1084,-0.0912,-0.0776,-0.0495,-0.0299,-0.02,-0.005,0.0,0.0,0.0,0.0,0.0,0.0,0.0,0.0,0.0,0.0,0.0,0.0,0.0,0.0046,0.0139,0.0185,0.0232,0.0375,0.0373,0.0371,0.0375,0.0277,0.0228,0.0365,-0.0136,0.0,0.0,0.0,0.0,0.0,0.0,-0.3022,-0.3348,-0.3492,-0.3798,0.0,0.0,0.0,-0.5073,-0.5154,-0.5265,-0.5447,0.0,-0.5548,0.0,0.0,0.0,-0.5087,0.0,-0.4536,-0.4582,-0.4171,-0.3979,-0.3977,-0.3425,-0.3475,-0.3979,-0.3979,-0.4279,-0.473,-0.473,-0.473,-0.473,-0.473,-0.4429,-0.4028,-0.4529,-0.4429,-0.418,-1.6785,-1.661,-1.6321,-1.599,-1.5962,-1.5943,-1.572,-1.5738,-1.5792,-1.571,-1.5053,-1.4154,-1.3067,-1.2085,-1.1077,-1.0015,-0.9723,-0.9579,-0.9579,-0.9579,-0.9579,-0.9579,-0.9076,-0.8825,-0.8825,-0.8017,-0.7614,0.0,0.0,0.0,0.0,-0.5322,-0.4139,-0.2965,-0.182,0.0,0.0,0.0,-0.1468,-0.1424,-0.135,-0.1231,-0.1138,-0.0754,-0.0505,-0.0354,-0.0152,-0.0051,0.0,0.0,0.0,0.0,0.0,0.0,0.0,0.0,0.0,0.0,0.0,0.0,0.0,0.0,0.0,0.0,0.0,0.0,0.0,0.0,0.0,0.0,0.0,-0.0584,0.0,0.0,0.0,0.0,0.0,0.0,-0.2534,-0.2436,-0.2863,-0.3264,-0.3488,0.0,0.0,0.0,0.0,-0.5214,-0.5402,-0.5461,-0.5537,0.0,0.0,-0.43,-0.43,0.0,-0.2994,-0.2996,-0.2918,-0.2871,-0.2871,-0.262,-0.262,-0.2871,-0.2871,-0.2972,-0.3224,-0.3224,-0.3224,-0.3224,-0.3224,-0.3073,-0.2871,-0.3123,-0.3073,-0.3123,-1.6255,-1.6308,-1.6318,-1.5751,-1.569,-1.572,-1.572,-1.5738,-1.5818,-1.5792,-1.569,-1.5257,-1.4256,-1.3204,-1.2145,-1.1126,-1.0158,-0.9579,-0.9579,-0.9579,-0.9579,-0.9579,-0.9076,-0.8825,-0.8825,-0.8115,-0.7753,0.0,0.0,-0.6901,-0.6542,-0.481,-0.3124,0.0,0.0,0.0,0.0,-0.139,-0.1485,-0.156,-0.1568,-0.1439,-0.121,-0.1161,-0.0808,-0.0404,-0.0354,-0.0202,0.0,0.0,0.0,0.0,0.0,0.0,0.0,0.0,0.0,0.0,0.0,0.0,0.0,0.0,0.0,0.0,0.0,0.0,0.0,0.0,0.0,0.0,0.0,-0.009,-0.0135,0.0,0.0,0.0,0.0,0.0,-0.1513,-0.1437,-0.2954,-0.3615,-0.2724,-0.411,0.0,0.0,-0.4607,-0.5132,-0.5399,-0.5421,-0.5494,-0.5683,-0.4792,-0.43,-0.43,-0.3449,-0.2994,-0.2995,-0.2128,-0.1765,-0.1714,-0.0757,-0.0807,-0.1765,-0.1765,-0.2318,-0.3224,-0.3224,-0.3224,-0.3224,-0.3224,-0.262,-0.1865,-0.2821,-0.2569,-0.1915,-1.6476,-1.6306,0.0,0.0,0.0,0.0,0.0,-1.5805,-1.5784,-1.5784,-1.5255,-1.4484,-1.3463,-1.2436,-1.137,-1.035,-0.9871,-0.9579,-0.9579,-0.9579,-0.9529,-0.9381,-0.8977,-0.8726,-0.8577,-0.8084,-0.7801,0.0,0.0,-0.6757,-0.602,-0.4625,0.0,0.0,0.0,-0.1412,-0.1465,-0.1502,-0.1538,-0.1622,-0.1592,-0.1556,-0.1415,-0.1263,-0.1061,-0.0859,-0.0707,-0.0455,-0.0253,-0.0253,-0.0152,0.0,0.0,0.0,0.0,0.0,0.0,0.0,0.0,0.0,0.0,0.0,0.0,0.0,0.0,0.0,0.0,0.0,0.0,0.0,0.0,0.0,0.0,0.0,0.0,0.0,0.0,0.0,0.0,-0.0533,-0.1196,-0.1668,-0.176,-0.2851,0.0,0.0,0.0,-0.5089,-0.5252,-0.4785,-0.4551,-0.4738,0.0,-0.2553,-0.2553,-0.1633,-0.119,-0.119,-0.0842,-0.0656,-0.0606,-0.0202,-0.0252,-0.0656,-0.0656,-0.0908,-0.1261,-0.1261,-0.1261,-0.1261,-0.1261,-0.1009,-0.0707,-0.111,-0.1009,-0.0707,-1.5717,0.0,-1.5191,0.0,-1.4986,-1.4822,-1.4877,-1.5153,-1.5255,-1.4908,-1.4286,-1.3559,-1.278,-1.1804,-1.0788,-0.9673,-0.9579,-0.9579,-0.9579,-0.9579,-0.948,-0.9236,-0.8928,0.0,-0.8382,-0.8031,-0.7858,-0.7811,-0.7167,-0.6475,-0.5679,-0.4262,0.0,0.0,-0.1439,-0.147,-0.151,-0.1602,-0.1577,-0.1587,-0.1608,-0.1617,-0.1566,-0.1415,-0.1263,-0.1162,-0.101,-0.0758,-0.0505,-0.0505,-0.0354,-0.0101,0.0,0.0,0.0,0.0,0.0,0.0,0.0,0.0,0.0,0.0,0.0,0.0,0.0,0.0,0.0,0.0,0.0,0.0,0.0,0.0,0.0,0.0,0.0,0.0,0.0,-0.0225,0.0,-0.0045,-0.0491,-0.0842,-0.0922,-0.1879,0.0,0.0,0.0,0.0,0.0,0.0,0.0,0.0,0.0,0.0,-0.1391,-0.0467,0.0,0.0,0.0,0.0,0.0,0.0,0.0,0.0,0.0,0.0,0.0,0.0,0.0,0.0,0.0,0.0,0.0,0.0,0.0051,0.0101,-1.3451,-1.3119,-1.3071,-1.2775,-1.2727,-1.2727,-1.2732,-1.3655,-1.3956,-1.2877,-1.2727,-1.2732,-1.2678,-1.1804,-1.0788,-0.9673,-0.9579,-0.9579,-0.9579,-0.9579,-0.948,0.0,0.0,-0.8676,-0.8382,-0.8137,-0.7914,-0.7811,0.0,0.0,-0.5758,0.0,-0.2264,-0.148,-0.148,-0.1514,-0.162,-0.162,-0.1589,-0.1616,-0.1617,-0.1617,-0.1617,-0.1617,-0.1415,-0.1212,-0.1212,-0.101,-0.0808,-0.0808,-0.0606,-0.0354,-0.0101,0.0,0.0,0.0,0.0,0.0,0.0,0.0,0.0,0.0,0.0,0.0,0.0,0.0,0.0,0.0,0.0,0.0,0.0,0.0,0.0,0.0,0.0,0.0,0.0,-0.0808,0.0,-0.009,-0.1584,-0.197,-0.0179,-0.1509,0.0,0.0,0.0,0.0,0.0,0.0,0.0,-0.2907,-0.1928,0.0,-0.1391,-0.0467,0.0,0.0,0.0,0.0,0.0,0.0,0.0,0.0,0.0,0.0,0.0,0.0,0.0,0.0,0.0,0.0,0.0,0.0,0.0152,0.0404,-1.2974,-1.2829,-1.2775,-1.2732,-1.2678,-1.2678,-1.2678,-1.2974,-1.3071,-1.2732,-1.2096,-1.1658,-1.1658,-1.0739,-0.9965,0.0,-0.9579,-0.9579,0.0,-0.943,-0.9232,-0.8928,-0.8676,-0.8382,-0.8137,-0.8038,-0.7965,-0.7917,0.0,0.0,0.0,-0.2531,-0.175,-0.1591,-0.1591,-0.1565,-0.1603,-0.1603,-0.1608,-0.1617,-0.1617,-0.1617,-0.1617,-0.1617,-0.1566,-0.1465,-0.1465,-0.1313,-0.1061,-0.1061,-0.0909,-0.0657,-0.0556,-0.0303,0.0,0.0,0.0,0.0,0.0,0.0,0.0,0.0,0.0,0.0,0.0,0.0,0.0,0.0,0.0,0.0,0.0,0.0,0.0,0.0,0.0,0.0,0.0,0.0,-0.0314,-0.0045,-0.0491,-0.0624,-0.0045,-0.1006,0.0,0.0,0.0,0.0,0.0,0.0,0.0,0.0,-0.0902,0.0,-0.0458,-0.0143,0.0,0.0,0.0,0.0,0.0,0.0,0.0,0.0,0.0,0.0,0.0,0.0202,0.0152,0.0,0.0202,0.0253,0.0253,0.0253,0.0455,0.0657,-1.1663,-1.1521,-1.1521,-1.1521,-1.1521,-1.1521,-1.1521,-1.1858,-1.2004,-1.1565,-1.1321,-1.1028,-1.0641,-1.0015,0.0,-0.9579,-0.9579,-0.9579,-0.9579,-0.9331,-0.9084,-0.8825,-0.8528,-0.8283,-0.7988,-0.7988,0.0,-0.7988,-0.6454,-0.4569,-0.2485,-0.1853,-0.157,-0.1589,-0.1589,-0.1599,-0.1617,-0.1617,-0.1617,-0.1617,-0.1617,-0.1617,-0.1617,-0.1617,-0.1617,-0.1617,-0.1617,-0.1516,-0.1364,-0.1364,-0.1162,-0.096,-0.096,-0.0657,-0.0303,-0.0202,-0.0101,0.0,0.0,0.0,0.0,0.0,0.0,0.0,0.0,0.0,0.0,0.0,0.0,0.0,0.0,0.0,0.0,0.0,0.0,0.0,0.0,0.0,0.0,0.0,0.0,0.0,0.0,-0.0488,-0.0841,0.0,0.0,0.0,0.0,0.0,0.0,-0.0792,-0.0273,0.0,0.0,0.0096,0.0147,0.0147,0.025,0.0303,0.0303,0.0303,0.0303,0.0303,0.0303,0.0253,0.0152,0.0455,0.0404,0.0202,0.0455,0.0556,0.0556,0.0556,0.0707,0.096,-0.9821,-0.9579,-0.9579,0.0,-0.9579,0.0,-0.9579,-1.0449,-1.0739,-0.9723,-1.0449,-1.069,-0.9727,-0.9579,-0.9579,-0.9579,0.0,0.0,0.0,-0.9282,-0.9034,-0.8775,-0.8531,-0.8237,-0.7988,-0.7988,-0.7939,-0.7786,-0.5777,-0.3725,-0.1617,-0.1617,-0.1617,-0.1617,-0.1617,-0.1617,-0.1617,-0.1617,-0.1617,-0.1617,-0.1617,-0.1617,-0.1617,-0.1617,-0.1617,-0.1617,-0.1617,-0.1617,-0.1617,-0.1617,-0.1415,-0.1212,-0.1212,-0.1061,-0.0758,-0.0505,-0.0202,0.0,0.0,0.0,0.0,0.0,0.0,0.0,0.0,0.0,0.0,0.0,0.0,0.0,0.0,0.0,0.0,0.0,0.0,0.0,0.0,0.0,0.0,0.0,0.0,0.0,0.0,0.0,0.0,0.0,0.0,0.0,0.0,0.0,0.0,0.0,0.0,0.0,0.0046,0.029,0.0394,0.0443,0.0701,0.0808,0.0808,0.0808,0.0808,0.0808,0.0808,0.0657,0.0455,0.0707,0.0657,0.0455,0.0707,0.0808,0.0808,0.0808,0.101,0.1212,0.0,0.0,-0.9579,-0.9579,-0.9579,-0.9579,-0.9579,-0.9821,-0.9867,-0.9628,-0.9821,-0.9867,-0.9628,-0.943,-0.9286,-0.9286,-0.9286,-0.9286,-0.9286,-0.8832,-0.8581,-0.8482,-0.8233,-0.8088,-0.7988,-0.7988,-0.7185,-0.5577,-0.5024,-0.3725,-0.1617,-0.1617,-0.1617,-0.1617,-0.1617,-0.1617,-0.1617,-0.1617,-0.1617,-0.1617,-0.1617,-0.1617,-0.1617,-0.1617,-0.1617,-0.1617,-0.1617,-0.1617,-0.1617,-0.1617,-0.1566,-0.1516,-0.1516,-0.1314,-0.101,-0.0556,-0.0354,-0.0253,-0.0051,0.0,0.0,0.0,0.0,0.0,0.0,0.0,0.0,0.0,0.0,0.0,0.0,0.0,0.0,0.0,0.0,0.0,0.0,0.0,0.0,0.0,0.0,0.0,0.0,0.0,0.0,0.0,0.0,0.0,0.0,0.0,0.0,0.0,0.0,0.0097,0.029,0.0347,0.0502,0.0702,0.0756,0.0808,0.0808,0.0808,0.0808,0.0808,0.0808,0.0758,0.0707,0.101,0.096,0.0707,0.101,0.1111,0.1111,0.1111,0.1263,0.1516,-0.9579,-0.9579,-0.9579,-0.9579,-0.9579,-0.9579,-0.9579,-0.9579,-0.9579,-0.9579,-0.948,-0.943,-0.943,-0.9179,-0.9031,-0.9031,-0.9031,-0.9031,-0.9031,-0.863,-0.8382,-0.8382,-0.8137,-0.7988,-0.7988,-0.7988,-0.6933,-0.4824,-0.4824,-0.3725,-0.1617,-0.1617,-0.1617,-0.1617,-0.1617,-0.1617,-0.1617,-0.1617,-0.1617,-0.1617,-0.1617,-0.1617,-0.1617,-0.1617,-0.1617,-0.1617,-0.1617,-0.1617,-0.1617,-0.1617,-0.1617,-0.1617,-0.1617,-0.1516,-0.1313,-0.0909,-0.0657,-0.0505,-0.0253,-0.0202,-0.0152,-0.0051,0.0,0.0,0.0,0.0,0.0,0.0,0.0,0.0,0.0,0.0,0.0,0.0,0.0,0.0,0.0,0.0,0.0,0.0,0.0,0.0,0.0,0.0,0.0,0.0,0.0,0.0,0.0,0.0095,0.0189,0.0185,0.0192,0.0295,0.0589,0.07,0.0909,0.1162,0.1162,0.1162,0.1162,0.1162,0.1162,0.1162,0.1162,0.1111,0.101,0.1263,0.1212,0.101,0.1263,0.1364,0.1364,0.1364,0.1465,0.1617,-0.9579,-0.9579,-0.9579,-0.9579,-0.9579,-0.9579,-0.9579,-0.9579,-0.9529,-0.9529,-0.9355,-0.9176,-0.9176,-0.8938,-0.8788,-0.8766,-0.8785,-0.8728,-0.873,-0.8482,-0.8333,-0.8333,-0.8137,-0.7988,-0.7988,-0.7988,-0.6933,-0.4824,-0.4824,-0.3725,-0.1617,-0.1617,-0.1617,-0.1617,-0.1617,-0.1617,-0.1617,-0.1617,-0.1617,-0.1617,-0.1617,-0.1617,-0.1617,-0.1617,-0.1617,-0.1617,-0.1617,-0.1617,-0.1617,-0.1617,-0.1617,-0.1617,-0.1617,-0.1617,-0.1566,-0.1314,-0.1111,-0.0859,-0.0505,-0.0354,-0.0303,-0.0051,0.0,0.0,0.0,0.0,0.0,0.0,0.0,0.0,0.0,0.0,0.0,0.0,0.0,0.0,0.0,0.0,0.0,0.0,0.0,0.0,0.0,0.0,0.0,0.0,0.0048,0.0048,0.0048,0.0292,0.0483,0.0514,0.0484,0.0592,0.0838,0.1102,0.1364,0.1617,0.1617,0.1617,0.1617,0.1617,0.1617,0.1617,0.1617,0.1465,0.1263,0.1516,0.1465,0.1263,0.1516,0.1617,0.1617,0.1617,0.1617,0.1617,-0.9579,-0.9579,-0.9579,-0.9579,-0.9579,-0.9579,-0.9579,-0.943,-0.9282,-0.9282,-0.9156,-0.9092,-0.9092,-0.8962,-0.8836,-0.87,-0.8601,-0.8511,-0.845,-0.8187,-0.8038,-0.8038,-0.8038,-0.7988,-0.7988,-0.7988,-0.6933,-0.4824,-0.4824,-0.3725,-0.1617,-0.1617,-0.1617,-0.1617,-0.1617,-0.1617,-0.1617,-0.1617,-0.1617,-0.1617,-0.1617,-0.1617,-0.1617,-0.1617,-0.1617,-0.1617,-0.1617,-0.1617,-0.1617,-0.1617,-0.1617,-0.1617,-0.1617,-0.1617,-0.1617,-0.1566,-0.1516,-0.1314,-0.0606,-0.0253,-0.0051,0.0,0.0,0.0,0.0,0.0,0.0,0.0,0.0,0.0,0.0,0.0,0.0,0.0,0.0,0.0,0.0,0.0,0.0,0.0,0.0,0.0,0.0,0.0,0.0,0.0,0.0193,0.0336,0.0342,0.0588,0.0832,0.1071,0.0845,0.0855,0.1157,0.1412,0.1566,0.1617,0.1617,0.1617,0.1617,0.1617,0.1617,0.1617,0.1617,0.1566,0.1566,0.1566,0.1566,0.1566,0.1566,0.1617,0.1617,0.1617,0.1617,0.1617,-0.9579,-0.9579,-0.9579,-0.9579,-0.943,-0.9331,-0.9381,-0.9179,-0.9011,-0.9156,-0.8983,-0.8911,-0.8998,-0.8814,-0.8668,-0.8598,-0.8549,-0.8477,-0.8439,-0.8255,-0.8163,-0.8163,-0.8163,-0.8197,-0.8275,-0.8279,-0.7463,-0.5812,-0.5253,-0.4116,-0.2471,-0.1869,-0.1617,-0.1617,-0.1465,-0.1364,-0.1365,-0.1226,-0.1179,-0.118,-0.1348,-0.1457,-0.1457,-0.1613,-0.1664,-0.1664,-0.1664,-0.1664,-0.1664,-0.1664,-0.1664,-0.1661,-0.1646,-0.1641,-0.1638,-0.1622,-0.1516,-0.1263,-0.0758,-0.0404,-0.0202,-0.0051,0.0,0.0,0.0,0.0,0.0,0.0,0.0,0.0,0.0,0.0,0.0,0.0,0.0,0.0,0.0,0.0,0.0,0.0,0.0,0.0,0.0,0.0,0.005,0.0199,0.0346,0.0444,0.0598,0.0847,0.1097,0.1197,0.1207,0.1313,0.1415,0.1516,0.1617,0.1617,0.1617,0.1617,0.1617,0.1617,0.1617,0.1617,0.1617,0.1617,0.1617,0.1617,0.1617,0.1617,0.1617,0.1617,0.1617,0.1617,0.1617,0.1617,-0.9579,-0.9529,-0.9529,-0.9529,-0.9232,-0.9046,-0.9138,-0.8938,-0.8844,-0.9013,-0.8862,-0.8727,-0.885,-0.8676,-0.8574,-0.8537,-0.8567,-0.8557,-0.8486,-0.8414,-0.8357,-0.8374,-0.8371,-0.837,-0.8479,-0.8482,-0.7792,-0.6339,-0.5406,-0.4236,-0.2757,-0.1841,-0.1433,-0.1382,-0.1177,-0.1126,-0.1075,-0.0883,-0.0784,-0.0837,-0.1061,-0.1174,-0.1227,-0.1386,-0.1492,-0.1492,-0.1492,-0.1545,-0.1598,-0.1598,-0.1651,-0.17,-0.1679,-0.1672,-0.1616,-0.1542,-0.1326,-0.1067,-0.086,-0.0606,-0.0354,-0.0051,0.0,0.0,0.0,0.0,0.0,0.0,0.0,0.0,0.0,0.0,0.0,0.0,0.0,0.0,0.0,0.0,0.0,0.0,0.0,0.0,0.0,0.0,0.0101,0.0404,0.0455,0.0606,0.0859,0.1162,0.1313,0.1313,0.1516,0.1617,0.1617,0.1617,0.1617,0.1617,0.1617,0.1617,0.1617,0.1617,0.1617,0.1617,0.1617,0.1617,0.1617,0.1617,0.1617,0.1617,0.1617,0.1617,0.1617,0.1617,0.1617,0.1617,-0.9579,-0.9381,-0.9236,-0.9236,-0.8981,-0.8877,-0.9088,-0.886,-0.8764,-0.8873,-0.8807,-0.8682,-0.8693,-0.8818,-0.8849,-0.8706,-0.8821,-0.8784,-0.8503,-0.8604,-0.8615,-0.8472,-0.8465,-0.8472,-0.8482,-0.8482,-0.7419,-0.5193,-0.482,-0.3551,-0.1434,-0.1063,-0.085,-0.085,-0.085,-0.085,-0.085,-0.0798,-0.0799,-0.0799,-0.0853,-0.0854,-0.0854,-0.0854,-0.0854,-0.0854,-0.0854,-0.1067,-0.1334,-0.1334,-0.1492,-0.1704,-0.1701,-0.1543,-0.1331,-0.1329,-0.1103,-0.0826,-0.0812,-0.0606,-0.0354,-0.0051,0.0,0.0,0.0,0.0,0.0,0.0,0.0,0.0,0.0,0.0,0.0,0.0,0.0,0.0,0.0,0.0,0.0,0.0,0.0,0.0,0.0,0.0,0.0101,0.0404,0.0606,0.0909,0.1162,0.1415,0.1566,0.1566,0.1566,0.1617,0.1617,0.1617,0.1617,0.1617,0.1617,0.1617,0.1617,0.1617,0.1617,0.1617,0.1617,0.1617,0.1617,0.1617,0.1617,0.1617,0.1617,0.1617,0.1617,0.1617,0.1617,0.1617,-0.9381,-0.9232,-0.9084,-0.8977,-0.8581,-0.8435,-0.8802,-0.8626,-0.8508,-0.8757,-0.8729,-0.8747,-0.8842,-0.8848,-0.8861,-0.8804,-0.8851,-0.8834,-0.8774,-0.8818,-0.8784,-0.8628,-0.8713,-0.8764,-0.8764,-0.7998,-0.7083,-0.5983,-0.4423,-0.3114,-0.197,-0.1173,-0.08,-0.08,-0.064,-0.0533,-0.0534,-0.0378,-0.0325,-0.0326,-0.0493,-0.055,-0.055,-0.077,-0.088,-0.088,-0.088,-0.0935,-0.1046,-0.1046,-0.1101,-0.1208,-0.1195,-0.1137,-0.1027,-0.1017,-0.0903,-0.0738,-0.0576,-0.0463,-0.0354,-0.0051,0.0,0.0,0.0,0.0,0.0,0.0,0.0,0.0,0.0,0.0,0.0,0.0,0.0,0.0,0.0,0.0,0.0,0.0,0.0,0.0,0.0,0.0152,0.0354,0.0606,0.0909,0.1162,0.1415,0.1566,0.1617,0.1617,0.1617,0.1617,0.1617,0.1617,0.1617,0.1617,0.1617,0.1617,0.1617,0.1617,0.1617,0.1617,0.1617,0.1617,0.1617,0.1617,0.1617,0.1617,0.1617,0.1617,0.1617,0.1617,0.1617,0.1617,-0.8428,-0.863,-0.8645,-0.7832,-0.7902,-0.8126,-0.8111,-0.7985,-0.8072,-0.8696,-0.8451,-0.8381,-0.8871,-0.8885,-0.8885,-0.8885,-0.8885,-0.8885,-0.8885,-0.8546,-0.8449,-0.8733,-0.8828,-0.8885,-0.8885,-0.7654,-0.6664,-0.5977,-0.3842,-0.2459,-0.1731,-0.0921,-0.0542,-0.0542,-0.0379,-0.0271,-0.0271,-0.0055,0.0,0.0,-0.0223,-0.028,-0.028,-0.0505,-0.0617,-0.0617,-0.0617,-0.0673,-0.0729,-0.0729,-0.0785,-0.0895,-0.0885,-0.0826,-0.0714,-0.0595,-0.0538,-0.0484,-0.032,-0.0262,-0.0205,-0.0051,0.0,0.0,0.0,0.0,0.0,0.0,0.0,0.0,0.0,0.0,0.0,0.0,0.0,0.0,0.0,0.0,0.0,0.0,0.0,0.0051,0.0101,0.0303,0.0556,0.0909,0.1111,0.1314,0.1566,0.1617,0.1617,0.1617,0.1617,0.1617,0.1617,0.1617,0.1617,0.1617,0.1617,0.1617,0.1617,0.1617,0.1617,0.1617,0.1617,0.1617,0.1617,0.1617,0.1617,0.1617,0.1617,0.1617,0.1617,0.1617,0.1617,0.1617,-0.6625,-0.7478,-0.7725,-0.5656,-0.6973,-0.7953,-0.7042,-0.6861,-0.7342,-0.8696,-0.7823,-0.7543,-0.8716,-0.8881,-0.8881,-0.8881,-0.8881,-0.8881,-0.8881,-0.7768,-0.7598,-0.8826,-0.8881,-0.8881,-0.8881,-0.7426,-0.6084,-0.4855,-0.3072,-0.1566,-0.0393,-0.0112,0.0,0.0,0.0,0.0,0.0,0.0,0.0,0.0,0.0,0.0,0.0,0.0,0.0,0.0,0.0,-0.0168,-0.0393,-0.0393,-0.0617,-0.0897,-0.0897,-0.0673,-0.0335,-0.0055,0.0,0.0,0.0,0.0,0.0,0.0,0.0,0.0,0.0,0.0,0.0,0.0,0.0,0.0,0.0,0.0,0.0,0.0,0.0,0.0,0.0,0.0,0.0,0.0,0.0,0.0101,0.0354,0.0404,0.0606,0.1162,0.1212,0.1314,0.1566,0.1617,0.1617,0.1617,0.1617,0.1617,0.1617,0.1617,0.1617,0.1617,0.1617,0.1617,0.1617,0.1617,0.1617,0.1617,0.1617,0.1617,0.1617,0.1617,0.1617,0.1617,0.1617,0.1617,0.1617,0.1617,0.1617,0.1617,-0.5677,-0.5936,-0.5948,-0.5158,-0.5532,-0.5838,-0.5647,-0.5613,-0.5809,-0.6352,-0.6142,-0.6031,-0.642,-0.642,-0.642,-0.642,-0.642,-0.642,-0.642,-0.6086,-0.5973,-0.6082,-0.6922,-0.7371,-0.7371,-0.5919,-0.4468,-0.3016,-0.1622,-0.0672,-0.0112,-0.0056,0.0,0.0,0.0,0.0,0.0,0.0,0.0,0.0,0.0,0.0,0.0,0.0,0.0,0.0,0.0,-0.0056,-0.0112,-0.0112,-0.0168,-0.028,-0.028,-0.0224,-0.0112,0.0,0.0,0.0,0.0,0.0,0.0,0.0,0.0,0.0,0.0,0.0,0.0,0.0,0.0,0.0,0.0,0.0,0.0,0.0,0.0,0.0,0.0,0.0,0.0,0.0,0.0152,0.0303,0.0404,0.0758,0.101,0.1212,0.1364,0.1516,0.1617,0.1617,0.1969,0.2722,0.1969,0.1969,0.2722,0.1969,0.1617,0.1617,0.1617,0.1617,0.1617,0.1617,0.1617,0.1617,0.1617,0.1617,0.1617,0.1617,0.1617,0.1617,0.1617,0.1617,0.1617,0.1617,0.1617,0.1617,-0.4263,-0.4665,-0.4814,-0.3851,-0.4424,-0.4857,-0.456,-0.4515,-0.4696,-0.5297,-0.4972,-0.486,-0.5361,-0.5417,-0.5417,-0.5417,-0.5417,-0.5359,-0.5192,-0.4747,-0.458,-0.4745,-0.486,-0.5194,-0.5808,-0.4357,-0.3129,-0.218,-0.0896,-0.0168,0.0,0.0,0.0,0.0,0.0,0.0,0.0,0.0,0.0,0.0,0.0,0.0,0.0,0.0,0.0,0.0,0.0,0.0,0.0,0.0,0.0,0.0,0.0,0.0,0.0,0.0,0.0,0.0,0.0,0.0,0.0,0.0,0.0,0.0,0.0,0.0,0.0,0.0,0.0,0.0,0.0,0.0,0.0,0.0,0.0,0.0,0.0,0.0,0.0051,0.0152,0.0303,0.0505,0.0707,0.101,0.1263,0.1364,0.1516,0.1768,0.222,0.222,0.2723,0.3775,0.3224,0.3173,0.3823,0.3173,0.2422,0.1617,0.2019,0.2019,0.1617,0.2019,0.222,0.227,0.2671,0.2622,0.222,0.222,0.222,0.217,0.1768,0.1869,0.217,0.1768,0.1617,0.1617,-0.2601,-0.362,-0.4014,-0.2126,-0.3443,-0.4505,-0.3572,-0.3413,-0.3858,-0.4916,-0.4137,-0.3858,-0.4972,-0.5083,-0.5083,-0.5083,-0.5027,-0.4914,-0.4578,-0.3521,-0.3243,-0.408,-0.2797,-0.2686,-0.408,-0.285,-0.2124,-0.2012,-0.0672,0.0,0.0,0.0,0.0,0.0,0.0,0.0,0.0,0.0,0.0,0.0,0.0,0.0,0.0,0.0,0.0,0.0,0.0,0.0,0.0,0.0,0.0,0.0,0.0,0.0,0.0,0.0,0.0,0.0,0.0,0.0,0.0,0.0,0.0,0.0,0.0,0.0,0.0,0.0,0.0,0.0,0.0,0.0,0.0,0.0,0.0,0.0,0.0,0.0,0.0101,0.0354,0.0404,0.0657,0.1162,0.1212,0.1364,0.1717,0.1768,0.222,0.3274,0.3323,0.3823,0.4924,0.4874,0.4824,0.4924,0.4924,0.3925,0.1919,0.2873,0.2822,0.1919,0.2923,0.3323,0.3374,0.4373,0.4225,0.3323,0.3323,0.3323,0.3224,0.227,0.2471,0.3224,0.212,0.1768,0.1717,-0.1915,-0.2207,-0.2339,-0.1858,-0.2211,-0.2455,-0.2241,-0.2186,-0.2298,-0.2521,-0.2353,-0.2298,-0.2577,-0.2576,-0.2576,-0.2576,-0.2353,-0.2184,-0.2072,-0.1625,-0.1345,-0.1288,-0.0953,-0.084,-0.0952,-0.1567,-0.14,-0.0504,-0.0168,0.0,0.0,0.0,0.0,0.0,0.0,0.0,0.0,0.0,0.0,0.0,0.0,0.0,0.0,0.0,0.0,0.0,0.0,0.0,0.0,0.0,0.0,0.0,0.0,0.0,0.0,0.0,0.0,0.0,0.0,0.0,0.0,0.0,0.0,0.0,0.0,0.0,0.0,0.0,0.0,0.0,0.0,0.0,0.0,0.0,0.0,0.0,0.0,0.0,0.0101,0.0354,0.0606,0.0859,0.1162,0.1415,0.1868,0.2772,0.2873,0.3323,0.4373,0.4474,0.4926,0.6032,0.5227,0.5227,0.6032,0.6032,0.5379,0.4124,0.4325,0.4325,0.4124,0.4325,0.4474,0.4474,0.4724,0.4674,0.4474,0.4474,0.4474,0.4425,0.4175,0.4225,0.4325,0.3274,0.2873,0.2723,-0.1745,-0.1761,-0.1826,-0.1826,-0.1785,-0.1795,-0.1795,-0.1795,-0.1795,-0.1795,-0.1795,-0.1795,-0.1795,-0.1795,-0.1739,-0.157,-0.129,-0.1065,-0.0897,-0.0729,-0.0505,-0.0224,-0.0224,-0.0168,0.0,-0.0616,-0.0616,0.0,0.0,0.0,0.0,0.0,0.0,0.0,0.0,0.0,0.0,0.0,0.0,0.0,0.0,0.0,0.0,0.0,0.0,0.0,0.0,0.0,0.0,0.0,0.0,0.0,0.0,0.0,0.0,0.0,0.0,0.0,0.0,0.0,0.0,0.0,0.0,0.0,0.0,0.0,0.0,0.0,0.0,0.0,0.0,0.0,0.0,0.0,0.0,0.0,0.0,0.0,0.0152,0.0556,0.0707,0.1161,0.2068,0.2269,0.2822,0.3874,0.3974,0.4425,0.5529,0.5579,0.6032,0.7138,0.6631,0.6581,0.7135,0.7185,0.6883,0.6329,0.5829,0.5277,0.4824,0.5327,0.5579,0.5579,0.6129,0.6029,0.5579,0.5579,0.5579,0.5529,0.4974,0.5127,0.5427,0.4375,0.3624,0.3123,-0.179,-0.1795,-0.1795,-0.1795,-0.1795,-0.1795,-0.1795,-0.1795,-0.1795,-0.1795,-0.1795,-0.1795,-0.1795,-0.1739,-0.157,-0.1234,-0.0953,-0.0673,-0.0393,-0.0336,-0.0224,0.0,0.0,0.0,0.0,0.0,0.0,0.0,0.0,0.0,0.0,0.0,0.0,0.0,0.0,0.0,0.0,0.0,0.0,0.0,0.0,0.0,0.0,0.0,0.0,0.0,0.0,0.0,0.0,0.0,0.0,0.0,0.0,0.0,0.0,0.0,0.0,0.0,0.0,0.0,0.0,0.0,0.0,0.0,0.0,0.0,0.0,0.0,0.0,0.0,0.0,0.0,0.0,0.0,0.0,0.0,0.0,0.0051,0.0255,0.0762,0.1063,0.1816,0.3323,0.3473,0.3924,0.4974,0.5074,0.5529,0.6637,0.6686,0.7086,0.7988,0.7988,0.7988,0.7988,0.7988,0.7988,0.7988,0.7086,0.6232,0.5377,0.6282,0.6686,0.6736,0.764,0.7487,0.6686,0.6686,0.6686,0.6587,0.5679,0.5879,0.6537,0.5477,0.4375,0.3423,-0.1794,-0.1795,-0.1795,-0.1795,-0.1795,-0.1795,-0.1795,-0.1795,-0.1795,-0.1795,-0.1795,-0.1795,-0.1795,-0.1514,-0.1234,-0.0953,-0.0673,-0.0449,-0.0393,-0.0168,-0.0056,0.0,0.0,0.0,0.0,0.0,0.0,0.0,0.0,0.0,0.0,0.0,0.0,0.0,0.0,0.0,0.0,0.0,0.0,0.0,0.0,0.0,0.0,0.0,0.0,0.0,0.0,0.0,0.0,0.0,0.0,0.0,0.0,0.0,0.0,0.0,0.0,0.0,0.0,0.0,0.0,0.0,0.0,0.0,0.0,0.0,0.0,0.0,0.0,0.0,0.0,0.0,0.0,0.0,0.0,0.0,0.0,0.0212,0.0474,0.0778,0.2037,0.3323,0.4474,0.4574,0.5027,0.6084,0.6184,0.6637,0.7739,0.7789,0.7839,0.7988,0.7988,0.7988,0.7988,0.7988,0.7988,0.7988,0.7839,0.7686,0.7587,0.7736,0.7789,0.7789,0.7939,0.7939,0.7789,0.7789,0.7789,0.7789,0.7637,0.7637,0.7637,0.6587,0.5529,0.4474,-0.1795,-0.1795,-0.1795,-0.1795,-0.1795,-0.1795,-0.1795,-0.1795,-0.1795,-0.1795,-0.1627,-0.1514,-0.1514,-0.1065,-0.0729,-0.0617,-0.0339,-0.017,-0.0168,-0.0057,0.0,0.0,0.0,0.0,0.0,0.0,0.0,0.0,0.0,0.0,0.0,0.0,0.0,0.0,0.0,0.0,0.0,0.0,0.0,0.0,0.0,0.0,0.0,0.0,0.0,0.0,0.0,0.0,0.0,0.0,0.0,0.0,0.0,0.0,0.0,0.0,0.0,0.0,0.0,0.0,0.0,0.0,0.0,0.0,0.0,0.0,0.0,0.0,0.0,0.0,0.0,0.0,0.0,0.0,0.0108,0.0485,0.112,0.1491,0.2017,0.2999,0.3772,0.4698,0.5766,0.5763,0.6132,0.7238,0.7288,0.7487,0.7988,0.7988,0.7988,0.7988,0.7988,0.7988,0.7988,0.7988,0.7988,0.7988,0.7988,0.7988,0.7988,0.7988,0.7988,0.7988,0.7988,0.7988,0.7988,0.7988,0.7988,0.7988,0.7988,0.7988,0.7939,0.7487,0.6634,0.5529]},{"header":{"parameterUnit":"m.s-1","parameterCategory":1,"la1":30.6,"la2":28.766,"lo1":-90.7593,"lo2":-88.6598,"dy":0.0162,"dx":0.0183,"nx":116,"ny":114,"refTime":"2024-06-08T12:00:00:Z","depth":0,"parameterNumber":3,"parameterNumberName":"V-component_of_WINDS"},"data":[0.0,0.0,0.0,0.0,0.0,0.0,0.0,0.0,0.0,0.0,0.0,0.0,0.0,0.0,0.0,0.0,0.0,0.0,0.0,0.0,0.0,0.0,0.0,0.0,0.0,0.0,0.0,0.0,0.0,0.0,0.0,0.0,0.0,0.0,0.0,0.0,0.0,0.0,0.0,0.0,0.0,0.0,0.0,0.0,0.0,0.0,0.0,0.0,0.0,0.0,0.0,0.0,0.0,0.0,0.0,0.0,0.0,0.0,0.0,0.0,0.0,0.0,0.0,0.0,0.0,0.0,0.0,0.0,0.0,0.0,0.0,0.0,0.0,0.0,0.0,0.0,0.0,0.0,0.0,0.0,0.0,0.0,0.0,0.0,0.0,0.0,0.0,0.0,0.0,0.0,0.0,0.0,0.0,0.0,0.0,0.0,0.0,0.0,0.0,0.0,0.0,0.0,0.0,0.0,0.0,0.0,0.0,0.0,0.0,0.0,0.0,0.0,0.0,0.0,0.0,0.0,0.0,0.0,0.0,0.0,0.0,0.0,0.0,0.0,0.0,0.0,0.0,0.0,0.0,0.0,0.0,0.0,0.0,0.0,0.0,0.0,0.0,0.0,0.0,0.0,0.0,0.0,0.0,0.0,0.0,0.0,0.0,0.0,0.0,0.0,0.0,0.0,0.0,0.0,0.0,0.0,0.0,0.0,0.0,0.0,0.0,0.0,0.0,0.0,0.0,0.0,0.0,0.0,0.0,0.0,0.0,0.0,0.0,0.0,0.0,0.0,0.0,0.0,0.0,0.0,0.0,0.0,0.0,0.0,0.0,0.0,0.0,0.0,0.0,0.0,0.0,0.0,0.0,0.0,0.0,0.0,0.0,0.0,0.0,0.0,0.0,0.0,0.0,0.0,0.0,0.0,0.0,0.0,0.0,0.0,0.0,0.0,0.0,0.0,0.0,0.0,0.0,0.0,0.0,0.0,0.0,0.0,0.0,0.0,0.0,0.0,0.0,0.0,0.0,0.0,0.0,0.0,0.0,0.0,0.0,0.0,0.0,0.0,0.0,0.0,0.0,0.0,0.0,0.0,0.0,0.0,0.0,0.0,0.0,0.0,0.0,0.0,0.0,0.0,0.0,0.0,0.0,0.0,0.0,0.0,0.0,0.0,0.0,0.0,0.0,0.0,0.0,0.0,0.0,0.0,0.0,0.0,0.0,0.0,0.0,0.0,0.0,0.0,0.0,0.0,0.0,0.0,0.0,0.0,0.0,0.0,0.0,0.0,0.0,0.0,0.0,0.0,0.0,0.0,0.0,0.0,0.0,0.0,0.0,0.0,0.0,0.0,0.0,0.0,0.0,0.0,0.0,0.0,0.0,0.0,0.0,0.0,0.0,0.0,0.0,0.0,0.0,0.0,0.0,0.0,0.0,0.0,0.0,0.0,0.0,0.0,0.0,0.0,0.0,0.0,0.0,0.0,0.0,0.0,0.0,0.0,0.0,0.0,0.0,0.0,0.0,0.0,0.0,0.0,0.0,0.0,0.0,0.0,0.0,0.0,0.0,0.0,0.0,0.0,0.0,0.0,0.0,0.0,0.0,0.0,0.0,0.0,0.0,0.0,0.0,0.0,0.0,0.0,0.0,0.0,0.0,0.0,0.0,0.0,0.0,0.0,0.0,0.0,0.0,0.0,0.0,0.0,0.0,0.0,0.0,0.0,0.0,0.0,0.0,0.0,0.0,0.0,0.0,0.0,0.0,0.0,0.0,0.0,0.0,0.0,0.0,0.0,0.0,0.0,0.0,0.0,0.0,0.0,0.0,0.0,0.0,0.0,0.0,0.0,0.0,0.0,0.0,0.0,0.0,0.0,0.0,0.0,0.0,0.0,0.0,0.0,0.0,0.0,0.0,0.0,0.0,0.0,0.0,0.0,0.0,0.0,0.0,0.0,0.0,0.0,0.0,0.0,0.0,0.0,0.0,0.0,0.0,0.0,0.0,0.0,0.0,0.0,0.0,0.0,0.0,0.0,0.0,0.0,0.0,0.0,0.0,0.0,0.0,0.0,0.0,0.0,0.0,0.0,0.0,0.0,0.0,0.0,0.0,0.0,0.0,0.0,0.0,0.0,0.0,0.0,0.0,0.0,0.0,0.0,0.0,0.0,0.0,0.0,0.0,0.0,0.0,0.0,0.0,0.0,0.0,0.0,0.0,0.0,0.0,0.0,0.0,0.0,0.0,0.0,0.0,0.0,0.0,0.0,0.0,0.0,0.0,0.0,0.0,0.0,0.0,0.0,0.0,0.0,0.0,0.0,0.0,0.0,0.0,0.0,0.0,0.0,0.0,0.0,0.0,0.0,0.0,0.0,0.0,0.0,0.0,0.0,0.0,0.0,0.0,0.0,0.0,0.0,0.0,0.0,0.0,0.0,0.0,0.0,0.0,0.0,0.0,0.0,0.0,0.0,0.0,0.0,0.0,0.0,0.0,0.0,0.0,0.0,0.0,0.0,0.0,0.0,0.0,0.0,0.0,0.0,0.0,0.0,0.0,0.0,0.0,0.0,0.0,0.0,0.0,0.0,0.0,0.0,0.0,0.0,0.0,0.0,0.0,0.0,0.0,0.0,0.0,0.0,0.0,0.0,0.0,0.0,0.0,0.0,0.0,0.0,0.0,0.0,0.0,0.0,0.0,0.0,0.0,0.0,0.0,0.0,0.0,0.0,0.0,0.0,0.0,0.0,0.0,0.0,0.0,0.0,0.0,0.0,0.0,0.0,0.0,0.0,0.0,0.0,0.0,0.0,0.0,0.0,0.0,0.0,0.0,0.0,0.0,0.0,0.0,0.0,0.0,0.0,0.0,0.0,0.0,0.0,0.0,0.0,0.0,0.0,0.0,0.0,0.0,0.0,0.0,0.0,0.0,0.0,0.0,0.0,0.0,0.0,0.0,0.0,0.0,0.0,0.0,0.0,0.0,0.0,0.0,0.0,0.0,0.0,0.0,0.0,0.0,0.0,0.0,0.0,0.0,0.0,0.0,0.0,0.0,0.0,0.0,0.0,0.0,0.0,0.0,0.0,0.0,0.0,0.0,0.0,0.0,0.0,0.0,0.0,0.0,0.0,0.0,0.0,0.0,0.0,0.0,0.0,0.0,0.0,0.0,0.0,0.0,0.0,0.0,0.0,0.0,0.0,0.0,0.0,0.0,0.0,0.0,0.0,0.0,0.0,0.0,0.0,0.0,0.0,0.0,0.0,0.0,0.0,0.0,0.0,0.0,0.0,0.0,0.0,0.0,0.0,0.0,0.0,0.0,0.0,0.0,0.0,0.0,0.0,0.0,0.0,0.0,0.0,0.0,0.0,0.0,0.0,0.0,0.0,0.0,0.0,0.0,0.0,0.0,0.0,0.0,0.0,0.0,0.0,0.0,0.0,0.0,0.0,0.0,0.0,0.0,0.0,0.0,0.0,0.0,0.0,0.0,0.0,0.0,0.0,0.0,0.0,0.0,0.0,0.0,0.0,0.0,0.0,0.0,0.0,0.0,0.0,0.0,0.0,0.0,0.0,0.0,0.0,0.0,0.0,0.0,0.0,0.0,0.0,0.0,0.0,0.0,0.0,0.0,0.0,0.0,0.0,0.0,0.0,0.0,0.0,0.0,0.0,0.0,0.0,0.0,0.0,0.0,0.0,0.0,0.0,0.0,0.0,0.0,0.0,0.0,0.0,0.0,0.0,0.0,0.0,0.0,0.0,0.0,0.0,0.0,0.0,0.0,0.0,0.0,0.0,0.0,0.0,0.0,0.0,0.0,0.0,0.0,0.0,0.0,0.0,0.0,0.0,0.0,0.0,0.0,0.0,0.0,0.0,0.0,0.0,0.0,0.0,0.0,0.0,0.0,0.0,0.0,0.0,0.0,0.0,0.0,0.0,0.0,0.0,0.0,0.0,0.0,0.0,0.0,0.0,0.0,0.0,0.0,0.0,0.0,0.0,0.0,0.0,0.0,0.0,0.0,0.0,0.0,0.0,0.0,0.0,0.0,0.0,0.0,0.0,0.0,0.0,0.0,0.0,0.0,0.0,0.0,0.0,0.0,0.0,0.0,0.0,0.0,0.0,0.0,0.0,0.0,0.0,0.0,0.0,0.0,0.0,0.0,0.0,0.0,0.0,0.0,0.0,0.0,0.0,0.0,0.0,0.0,0.0,0.0,0.0,0.0,0.0,0.0,0.0,0.0,0.0,0.0,0.0,0.0,0.0,0.0,0.0,0.0,0.0,0.0,0.0,0.0,0.0,0.0,0.0,0.0,0.0,0.0,0.0,0.0,0.0,0.0,0.0,0.0,0.0,0.0,0.0,0.0,0.0,0.0,0.0,0.0,0.0,0.0,0.0,0.0,0.0,0.0,0.0,0.0,0.0,0.0,0.0,0.0,0.0,0.0,0.0,0.0,0.0,0.0,0.0,0.0,0.0,0.0,0.0,0.0,0.0,0.0,0.0,0.0,0.0,0.0,0.0,0.0,0.0,0.0,0.0,0.0,0.0,0.0,0.0,0.0,0.0,0.0,0.0,0.0,0.0,0.0,0.0,0.0,0.0,0.0,0.0,0.0,0.0,0.0,0.0,0.0,0.0,0.0,0.0,0.0,0.0,0.0,0.0,0.0,0.0,0.0,0.0,0.0,0.0,0.0,0.0,0.0,0.0,0.0,0.0,0.0,0.0,0.0,0.0,0.0,0.0,0.0,0.0,0.0,0.0,0.0,0.0,0.0,0.0,0.0,0.0,0.0,0.0,0.0,0.0,0.0,0.0,0.0,0.0,0.0,0.0,0.0,0.0,0.0,0.0,0.0,0.0,0.0,0.0,0.0,0.0,0.0,0.0,0.0,0.0,0.0,0.0,0.0,0.0,0.0,0.0,0.0,0.0,0.0,0.0,0.0,0.0,0.0,0.0,0.0,0.0,0.0,0.0,0.0,0.0,0.0,0.0,0.0,0.0,0.0,0.0,0.0,0.0,0.0,0.0,0.0,0.0,0.0,0.0,0.0,0.0,0.0,0.0,0.0,0.0,0.0,0.0,0.0,0.0,0.0,0.0,0.0,0.0,0.0,0.0,0.0,0.0,0.0,0.0,0.0,0.0,0.0,0.0,0.0,0.0,0.0,0.0,0.0,0.0,0.0,0.0,0.0,0.0,0.0,0.0,0.0,0.0,0.0,0.0,0.0,0.0,0.0,0.0,0.0,0.0,0.0,0.0,0.0,0.0,0.0,0.0,0.0,0.0,0.0,0.0,0.0,0.0,0.0,0.0,0.0,0.0,0.0,0.0,0.0,0.0,0.0,0.0,0.0,0.0,0.0,0.0,0.0,0.0,0.0,0.0,0.0,0.0,0.0,0.0,0.0,0.0,0.0,0.0,0.0,0.0,0.0,0.0,0.0,0.0,0.0,0.0,0.0,0.0,0.0,0.0,0.0,0.0,0.0,0.0,0.0,0.0,0.0,0.0,0.0,0.0,0.0,0.0,0.0,0.0,0.0,0.0,0.0,0.0,0.0,0.0,0.0,0.0,0.0,0.0,0.0,0.0,0.0,0.0,0.0,0.0,0.0,0.0,0.0,0.0,0.0,0.0,0.0,0.0,0.0,0.0,0.0,0.0,0.0,0.0,0.0,0.0,0.0,0.0,0.0,0.0,0.0,0.0,0.0,0.0,0.0,0.0,0.0,0.0,0.0,0.0,0.0,0.0,0.0,0.0,0.0,0.0,0.0,0.0,0.0,0.0,0.0,0.0,0.0,0.0,0.0,0.0,0.0,0.0,0.0,0.0,0.0,0.0,0.0,0.0,0.0,0.0,0.0,0.0,0.0,0.0,0.0,0.0,0.0,0.0,0.0,0.0,0.0,0.0,0.0,0.0,0.0,0.0,0.0,0.0,0.0,0.0,0.0,0.0,0.0,0.0,0.0,0.0,0.0,0.0,0.0,0.0,0.0,0.0,0.0,0.0,0.0,0.0,0.0,0.0,0.0,0.0,0.0,0.0,0.0,0.0,0.0,0.0,0.0,0.0,0.0,0.0,0.0,0.0,0.0,0.0,0.0,0.0,0.0,0.0,0.0,0.0,0.0,0.0,0.0,0.0,1.94,0.0,0.0,0.0,0.0,0.0,0.0,0.0,0.0,0.0,0.0,0.0,0.0,0.0,0.0,0.0,0.0,0.0,0.0,0.0,0.0,0.0,0.0,0.0,0.0,2.4236,2.5569,2.5131,2.6525,2.7,2.5942,0.0,0.0,0.0,0.0,0.0,2.3425,2.2847,2.2333,2.1935,2.1467,2.144,2.1846,2.1473,2.0308,1.8507,0.0,0.0,0.0,0.0,0.0,0.0,0.0,0.0,0.0,0.0,0.0,0.0,0.0,0.0,0.0,0.0,0.0,0.0,0.0,0.0,0.0,0.0,0.0,0.0,0.0,0.0,0.0,0.0,0.0,0.0,0.0,0.0,0.0,0.0,0.0,0.0,0.0,0.0,0.0,0.0,0.0,0.0,0.0,0.0,0.0,0.0,0.0,0.0,0.0,0.0,0.0,0.0,0.0,0.0,0.0,0.0,0.0,0.0,0.0,0.0,0.0,0.0,0.0,0.0,0.0,0.0,0.0,0.0,0.0,0.0,0.0,2.0778,0.0,0.0,0.0,0.0,0.0,0.0,0.0,0.0,0.0,0.0,0.0,0.0,0.0,0.0,0.0,0.0,0.0,0.0,0.0,0.0,0.0,2.3971,2.2383,2.4361,2.5755,2.5607,2.6759,2.7348,2.7019,2.6868,0.0,0.0,0.0,2.5135,2.4534,2.4385,2.4163,2.3833,2.3974,2.4374,2.4996,2.5612,2.4169,2.1042,1.9825,0.0,0.0,0.0,0.0,0.0,0.0,0.0,0.0,0.0,0.0,0.0,0.0,0.0,0.0,0.0,0.0,0.0,0.0,0.0,0.0,0.0,0.0,0.0,0.0,0.0,0.0,0.0,0.0,0.0,0.0,0.0,0.0,0.0,0.0,0.0,0.0,0.0,0.0,0.0,0.0,0.0,0.0,0.0,0.0,0.0,0.0,0.0,0.0,0.0,0.0,0.0,0.0,0.0,0.0,0.0,0.0,0.0,0.0,0.0,0.0,0.0,0.0,0.0,2.3538,2.3519,2.4729,2.3989,2.3845,2.414,2.3471,2.3772,2.4536,2.2506,0.0,0.0,0.0,0.0,0.0,0.0,0.0,0.0,0.0,0.0,0.0,0.0,0.0,0.0,0.0,0.0,0.0,0.0,0.0,2.3376,2.2381,2.4401,2.5978,2.6391,2.6568,2.7089,2.8116,2.7322,0.0,0.0,2.6884,2.6692,2.588,2.5109,2.486,2.5146,2.6187,2.7199,2.8208,2.8755,2.8586,2.7679,2.4609,2.3578,2.3962,0.0,0.0,0.0,0.0,0.0,0.0,0.0,0.0,0.0,0.0,0.0,0.0,0.0,0.0,0.0,0.0,0.0,0.0,0.0,0.0,0.0,0.0,0.0,0.0,0.0,0.0,0.0,0.0,0.0,0.0,0.0,0.0,0.0,0.0,0.0,0.0,0.0,0.0,0.0,0.0,0.0,2.3584,2.366,0.0,0.0,0.0,0.0,0.0,0.0,0.0,0.0,0.0,0.0,0.0,0.0,0.0,2.4198,2.5551,2.4812,2.5171,2.665,2.6672,2.717,2.8156,2.8029,2.8422,2.9112,2.8583,0.0,2.4218,2.3454,0.0,0.0,0.0,0.0,0.0,0.0,0.0,0.0,0.0,0.0,0.0,0.0,0.0,0.0,0.0,0.0,0.0,0.0,0.0,0.0,0.0,2.5763,2.7379,2.7125,2.8799,2.937,2.8213,2.8571,2.8239,2.6942,2.7366,2.7218,2.6342,2.679,2.7484,2.8374,2.929,3.0057,3.0679,3.1277,3.1445,3.1151,2.9243,2.7539,2.5971,2.3619,0.0,0.0,0.0,0.0,0.0,0.0,0.0,0.0,0.0,0.0,0.0,0.0,0.0,0.0,0.0,0.0,0.0,0.0,0.0,0.0,0.0,0.0,0.0,0.0,0.0,0.0,0.0,0.0,0.0,0.0,0.0,0.0,0.0,0.0,0.0,0.0,0.0,0.0,0.0,2.3439,2.4808,2.5737,2.5204,2.462,0.0,0.0,0.0,0.0,0.0,0.0,0.0,0.0,0.0,2.6881,2.6481,2.6934,2.8299,2.7496,2.7899,2.9454,2.8611,2.8654,2.9508,2.9029,2.9029,2.9369,2.9103,2.828,2.7002,2.6205,2.5442,2.4703,0.0,0.0,0.0,0.0,2.266,2.3061,0.0,0.0,0.0,0.0,0.0,0.0,0.0,0.0,0.0,0.0,0.0,0.0,2.4236,2.6783,2.8406,2.8181,3.0236,3.0722,2.8792,2.9372,2.9104,2.7597,2.7576,2.7423,2.6943,2.8438,2.9757,3.0871,3.1967,3.2679,3.3059,3.3722,3.3909,3.3698,3.3117,3.1208,2.8308,2.6066,2.4581,2.3531,0.0,0.0,0.0,0.0,0.0,0.0,0.0,0.0,0.0,0.0,0.0,0.0,0.0,0.0,0.0,0.0,0.0,0.0,0.0,0.0,0.0,0.0,0.0,0.0,0.0,0.0,0.0,0.0,0.0,0.0,0.0,0.0,0.0,0.0,0.0,0.0,0.0,2.4563,2.5896,2.7507,2.7175,2.6676,0.0,0.0,0.0,0.0,0.0,0.0,2.6722,2.7054,2.7874,2.9314,2.9268,2.9768,3.0929,3.0039,3.0273,3.1625,3.0346,3.0114,3.084,3.0209,2.991,2.9898,2.9756,2.9822,2.9939,2.8552,2.7702,2.7158,2.6032,2.5215,2.4767,2.4986,2.5269,2.5671,0.0,0.0,0.0,0.0,0.0,0.0,0.0,0.0,0.0,0.0,0.0,2.4303,2.513,2.6678,2.828,2.9839,2.9367,2.9486,0.0,2.9101,2.8301,2.871,2.77,2.7435,2.8098,2.9565,3.066,3.1372,3.3564,3.4991,3.5633,3.6215,3.6318,3.5934,3.5775,3.4474,3.2249,2.9513,2.7994,2.7126,2.3768,0.0,0.0,0.0,0.0,0.0,0.0,0.0,0.0,0.0,0.0,0.0,0.0,0.0,0.0,0.0,0.0,0.0,0.0,0.0,0.0,0.0,0.0,0.0,0.0,0.0,0.0,0.0,0.0,0.0,0.0,0.0,0.0,0.0,0.0,0.0,0.0,0.0,0.0,2.8649,2.8512,0.0,0.0,0.0,0.0,2.6755,2.7453,2.8292,2.9193,3.0116,3.1333,3.2789,3.2418,3.2478,3.3124,3.2137,3.1879,3.234,3.225,3.2455,3.295,3.2895,3.2895,3.287,3.2276,3.2026,3.1876,2.948,2.818,2.7688,2.7057,2.6377,2.5796,2.6504,2.6779,2.6952,0.0,0.0,0.0,0.0,0.0,1.9093,1.878,2.0659,2.2304,2.2826,2.4111,2.5481,2.6895,2.8984,3.0543,3.113,3.1908,3.1821,3.0581,2.9744,2.9313,2.9388,2.8624,2.9268,3.156,3.1617,3.2673,3.4818,3.5593,3.6167,3.6575,3.674,3.6704,3.6481,3.6165,3.5552,3.458,3.1827,2.9901,2.8421,2.5596,2.3376,0.0,0.0,0.0,0.0,0.0,0.0,0.0,0.0,0.0,0.0,0.0,0.0,0.0,0.0,0.0,0.0,0.0,0.0,0.0,0.0,0.0,0.0,0.0,0.0,0.0,0.0,0.0,0.0,0.0,0.0,0.0,0.0,0.0,0.0,0.0,0.0,0.0,3.0254,3.0634,0.0,3.0661,3.0396,3.0184,3.0049,3.0654,3.1223,3.1762,3.2451,3.3239,3.411,3.3986,3.3991,3.4189,3.387,3.3713,3.3892,3.3892,3.3799,3.3608,3.3608,3.3494,3.3258,3.3055,3.2836,3.2581,3.1685,3.0636,2.9551,2.9135,2.8732,2.8437,2.8936,2.905,2.9025,0.0,0.0,0.0,0.0,1.7512,1.8241,1.8241,2.0685,2.2633,2.2908,2.4681,2.6581,2.8284,3.0485,3.2057,3.2624,3.343,3.312,3.1263,3.0433,2.9918,2.9717,2.9752,3.0864,3.3177,3.3533,3.4746,3.6904,3.7127,3.7321,3.747,3.7414,3.7246,3.7018,3.6704,3.6336,3.5865,3.402,3.2168,3.0236,2.7794,2.5964,2.4547,0.0,0.0,0.0,0.0,0.0,0.0,0.0,0.0,0.0,0.0,0.0,0.0,0.0,0.0,0.0,0.0,0.0,0.0,0.0,0.0,0.0,0.0,0.0,0.0,0.0,0.0,0.0,0.0,0.0,0.0,0.0,0.0,0.0,0.0,2.873,3.0135,3.1369,3.2156,3.2544,3.2423,3.2798,3.2975,3.2769,3.3263,3.3662,3.3913,3.4414,3.4837,3.5113,3.536,3.5461,3.5357,3.5357,3.5314,3.5229,3.5125,3.4881,3.4426,3.4249,3.4002,3.3793,3.3602,3.3394,3.3149,3.2957,3.2281,3.1327,3.0724,3.0393,3.0264,3.0369,3.033,3.0228,0.0,0.0,0.0,1.6456,1.7967,1.9063,1.9101,2.1975,2.3883,2.3099,2.524,2.7498,2.9216,3.0899,3.2571,3.4226,3.3553,3.2977,3.2776,3.1002,2.9915,2.9774,3.1081,3.2144,3.2845,3.5202,3.6736,3.7342,3.8125,3.8478,3.8399,3.8338,3.8105,3.7721,3.7578,3.6999,3.6161,3.6118,3.4895,3.28,3.0456,2.9687,2.9626,0.0,0.0,0.0,0.0,0.0,0.0,0.0,0.0,0.0,0.0,0.0,0.0,0.0,0.0,0.0,0.0,0.0,0.0,0.0,0.0,0.0,0.0,0.0,0.0,0.0,0.0,0.0,0.0,0.0,0.0,0.0,0.0,0.0,2.991,2.9932,3.0568,3.2,3.3058,3.3517,3.3093,3.4211,3.4857,3.4658,3.521,3.5544,3.5544,3.6039,3.6197,3.5956,3.6675,3.6968,3.6722,3.6709,3.6595,3.6334,3.606,3.5812,3.5531,3.4904,3.4635,3.4571,3.3995,3.3738,3.3674,3.3165,3.2947,3.2831,3.1675,3.1214,3.1137,3.0624,3.0419,3.0444,0.0,0.0,1.5665,1.6518,1.7536,1.8428,1.9012,2.1512,2.3245,2.3035,2.5768,2.8176,2.9274,3.0945,3.2363,3.3379,3.2701,3.2184,3.2074,3.0327,2.9925,3.1374,3.3473,3.5163,3.6366,3.7013,3.7679,3.8382,3.856,3.8593,3.8478,3.8399,3.8302,3.8203,3.7861,3.7542,3.7226,3.6481,3.5797,3.5044,3.2925,3.1437,3.0336,0.0,0.0,0.0,0.0,0.0,0.0,0.0,0.0,0.0,0.0,0.0,0.0,0.0,0.0,0.0,0.0,0.0,0.0,0.0,0.0,0.0,0.0,0.0,0.0,0.0,0.0,0.0,0.0,0.0,0.0,0.0,3.0539,3.0945,3.0824,3.1853,3.2736,3.3125,3.4173,3.4786,3.4702,3.5327,3.57,3.5481,3.5967,3.6212,3.609,3.657,3.6831,3.6785,3.6972,3.7062,3.7015,3.7015,3.6938,3.6878,3.6831,3.6537,3.6077,3.5923,3.5454,3.4788,3.4633,3.4451,3.4217,3.4061,3.3996,3.3838,3.2587,3.1691,3.1227,3.1345,3.1187,3.0823,0.0,1.5644,1.5787,1.7034,1.7608,1.8172,1.9008,2.1335,2.3018,2.3033,2.6024,2.8464,2.9347,3.1004,3.2192,3.2606,3.2193,3.1573,3.081,2.9985,3.0617,3.3041,3.4819,3.6396,3.7771,3.8081,3.8416,3.8807,3.8765,3.8686,3.8575,3.8496,3.8446,3.843,3.8167,3.793,3.7703,3.7095,3.6704,3.637,3.516,3.3863,3.2443,3.0773,3.0078,2.9848,2.9002,2.8513,2.8123,2.7427,0.0,0.0,0.0,0.0,0.0,0.0,0.0,0.0,0.0,0.0,0.0,0.0,0.0,0.0,0.0,0.0,0.0,0.0,0.0,0.0,0.0,0.0,0.0,0.0,3.3208,3.3724,3.3724,3.3663,3.377,3.4254,3.509,3.573,3.5992,3.6528,3.6823,3.6688,3.6955,3.7195,3.7278,3.7394,3.7516,3.7655,3.7529,3.7366,3.7261,3.7261,3.7307,3.7413,3.7307,3.714,3.6955,3.6709,3.632,3.5747,3.5267,3.4962,3.4763,3.4502,3.4397,0.0,0.0,0.0,0.0,0.0,3.1445,3.0986,0.0,1.6152,1.6202,1.7841,1.8087,1.8336,1.9212,2.1426,2.3026,2.3087,2.5984,2.8352,2.914,3.0683,3.1688,3.1712,3.1659,3.1047,0.0,3.0323,3.1972,3.4705,3.5652,3.6714,3.8018,3.8679,3.8964,3.8862,3.8851,3.8777,3.8723,3.859,3.8541,3.8541,3.8462,3.8234,3.7878,3.7774,3.7522,3.7201,3.6907,3.6243,3.5104,3.2488,3.2211,3.2974,3.1016,3.0261,3.0018,2.896,0.0,0.0,0.0,0.0,0.0,0.0,0.0,0.0,0.0,0.0,0.0,0.0,0.0,0.0,0.0,0.0,0.0,0.0,0.0,0.0,0.0,0.0,0.0,0.0,3.6237,3.7368,3.733,3.5542,3.4573,3.5495,3.6111,3.6705,3.7245,3.7761,3.807,3.8194,3.809,3.8247,3.8824,3.8364,0.0,0.0,0.0,3.7964,3.7655,3.7655,3.7709,3.79,3.7592,3.7553,3.7782,3.7168,3.6867,3.675,3.5744,3.526,3.5155,3.462,3.4481,3.4498,3.385,3.3587,3.3456,3.2228,3.1522,3.1065,0.0,1.7129,1.7802,1.8794,1.8968,1.9245,2.0116,2.1808,2.3017,2.3091,2.5476,2.7237,2.746,2.8415,2.9297,2.9923,2.9971,3.0372,0.0,0.0,3.4366,3.6058,3.7367,3.8515,3.9463,3.9212,3.9156,3.9272,3.9078,3.8939,3.8866,3.8773,3.8728,3.8728,3.8655,3.8528,3.833,3.8015,3.8151,3.8473,3.6841,3.6088,3.5873,3.5314,3.4626,3.3946,3.3564,3.3021,3.2374,3.183,3.1253,3.0701,3.0305,2.9802,0.0,0.0,0.0,0.0,0.0,0.0,0.0,0.0,0.0,0.0,0.0,0.0,0.0,0.0,0.0,0.0,0.0,0.0,0.0,3.6215,3.7544,3.8391,3.8049,3.8077,3.7956,3.7436,3.8325,3.9046,3.9171,3.9046,3.9268,4.0014,3.9112,3.8906,3.9769,3.9474,3.9277,3.9394,3.929,3.899,3.846,3.846,3.8285,3.79,0.0,0.0,3.7155,3.6554,3.6044,3.5613,3.5391,3.5012,3.4567,3.445,3.4799,3.5332,3.4069,3.3587,3.3456,3.2241,3.1732,3.1575,1.7912,1.8008,1.8385,1.962,1.9485,1.9482,2.0371,2.1558,2.2535,2.3034,2.4942,2.6448,2.6953,2.7754,2.824,2.8205,2.8175,0.0,0.0,3.3055,3.4766,3.7049,3.8242,3.9185,3.9886,3.9641,3.9458,3.9396,3.9272,3.9106,3.891,3.8881,3.8851,3.8851,3.8795,3.8955,3.9242,3.8968,3.9308,3.991,3.8832,3.8059,3.7415,3.6162,3.5378,3.4903,3.4953,3.4678,3.4258,3.3684,3.325,3.2906,3.2636,3.2116,3.1464,0.0,0.0,0.0,0.0,0.0,0.0,0.0,0.0,0.0,0.0,0.0,0.0,0.0,0.0,3.4576,3.5763,0.0,3.7694,3.8317,3.952,4.0345,4.0115,4.0602,4.0423,3.8968,3.9352,3.9802,4.0112,3.9979,4.0037,4.0311,3.9744,3.9635,4.022,3.9825,3.973,4.0004,3.9756,3.9549,3.9382,3.9382,3.935,3.9251,3.8184,3.7889,3.8242,3.6783,3.617,3.6322,3.6016,3.571,3.5445,3.5616,3.5923,3.6239,3.5529,3.482,3.4193,3.4006,3.3297,3.2395,1.9357,1.8965,1.8914,2.0264,1.9915,1.9683,2.04,2.1172,2.1986,2.2756,2.4304,2.5633,2.6405,2.7201,2.7479,0.0,0.0,0.0,0.0,3.2976,3.4905,3.7738,3.8827,3.9563,4.0053,3.9945,3.9778,3.9557,3.9525,3.9344,3.9069,3.9055,3.9119,3.9234,3.9157,3.9564,4.0262,4.0123,4.0535,4.1231,4.08,4.0071,3.8977,3.6608,3.5735,3.5788,3.5591,3.5474,3.5306,3.4523,3.4286,3.4286,3.4286,3.388,3.3288,3.2679,3.229,0.0,0.0,0.0,0.0,0.0,0.0,0.0,0.0,3.3598,3.42,3.5539,3.6289,3.6975,3.8098,3.9284,4.0137,4.0289,4.1446,4.2293,4.2256,4.2698,4.236,4.0558,4.0371,4.06,4.1056,4.0986,4.0814,4.0706,4.0611,4.0716,4.1015,4.0691,4.0736,4.1126,4.0763,4.0609,4.0745,4.0636,4.0656,4.0758,3.9207,3.8807,3.9354,3.7236,3.6643,3.7261,3.6839,3.6647,3.6728,3.7091,3.7266,3.7266,3.742,3.6701,3.5612,3.5975,3.497,3.3457,0.0,2.0293,2.0272,2.0466,2.0416,2.0387,2.0484,2.1184,2.1757,2.1929,2.3407,2.4508,2.4675,2.5417,2.6166,2.6833,2.8304,0.0,3.1782,3.4167,3.6298,3.8075,3.9495,4.0365,4.06,4.0127,3.9976,4.0119,3.9924,3.9794,3.9698,3.9641,3.9901,4.0408,4.0341,4.0657,4.1237,4.1109,4.1503,4.211,4.0614,4.0061,3.9932,3.786,3.6816,3.6391,3.5596,3.5101,3.4674,3.38,3.3525,3.3525,3.3525,3.3474,3.3389,3.3305,3.3246,3.3073,3.2507,3.1677,3.127,3.2489,3.21,3.2379,0.0,3.6061,3.5799,3.7721,3.8198,3.8475,3.9195,3.9948,4.067,4.13,4.255,4.3352,4.3166,4.3708,4.3754,4.2764,4.2772,4.2906,4.2981,4.2278,4.2143,4.2883,4.2482,4.2564,4.3399,4.3631,4.3817,4.3873,4.3817,4.3515,4.3069,4.2505,4.1962,4.1477,3.9648,3.8793,3.8833,3.744,3.6856,3.6973,3.706,3.7226,3.7457,3.8182,3.8502,3.8576,3.9328,3.9088,3.8104,3.6623,3.5648,3.4995,0.0,2.0527,2.0565,2.0565,2.0538,2.0508,2.0508,2.0791,2.1196,2.173,2.2849,2.3805,2.4339,2.512,2.5744,2.6108,2.7745,2.9448,3.1087,3.3608,3.5982,3.8103,3.9284,3.9914,3.9998,3.9745,3.9583,3.9553,3.9936,4.03,4.0621,4.1073,4.1412,4.1637,4.141,4.1721,4.2377,4.2109,4.2482,4.3111,4.1899,4.1183,4.0638,3.8847,3.7468,3.6369,3.5408,3.4363,0.0,3.3543,3.3264,3.2947,3.3392,3.3222,3.2947,3.3371,3.3816,3.4358,3.5155,3.4742,3.4212,3.4865,3.4678,3.4906,3.7015,3.7061,3.7123,3.8769,3.9059,3.9308,3.9951,4.0966,4.1832,4.214,4.3294,4.4156,4.4081,4.3875,4.3594,4.3205,4.2751,4.2635,4.3081,4.3144,4.3224,4.3393,4.319,4.3243,4.3653,4.3834,4.4011,4.4298,4.4312,4.428,4.423,4.357,4.3286,4.3294,4.0879,4.0006,4.0407,3.8251,3.7496,3.7965,3.804,3.8391,3.8987,3.9328,3.9451,3.9487,3.9854,3.9768,3.9385,3.8618,3.7674,3.6613,0.0,2.0391,2.0584,2.0581,2.0537,2.0506,2.0495,2.0505,2.081,2.1688,2.2567,2.3527,2.46,2.5255,2.5604,2.56,2.6973,2.8544,3.0222,3.2736,3.5162,3.7433,3.8792,3.9491,3.9493,3.9689,3.9714,3.9546,4.0119,4.0616,4.1046,4.1876,4.2342,4.2512,4.2397,4.2771,4.3446,4.2875,4.2966,4.3412,4.229,4.1449,4.0719,3.8989,3.7335,3.5789,3.4693,3.3407,3.2258,3.242,3.2073,3.1691,3.2219,3.2015,3.1862,3.3223,3.4449,3.5591,3.666,3.6564,3.6238,3.6527,3.6711,3.6951,3.7592,3.7731,3.804,3.9033,3.9351,3.9644,4.012,4.1351,4.2386,4.2586,4.3556,4.4409,4.4594,4.389,4.3324,4.314,4.2496,4.2299,4.2817,4.3396,4.3684,4.3619,4.3801,4.4047,4.4253,4.444,4.4785,4.5283,4.5312,4.5412,4.5683,4.4817,4.4605,4.4961,4.2162,4.1188,4.17,3.9305,3.8554,3.9154,3.9154,3.9508,4.0137,4.0137,4.0137,4.0137,4.0137,4.0137,4.0137,4.0137,3.93,3.8067,0.0,0.0,2.0582,2.0505,2.0498,2.0504,2.0499,2.0501,2.0809,2.1695,2.2553,2.3733,2.5389,2.5582,2.56,2.5601,2.6422,2.7644,2.9324,3.1818,3.4029,3.5803,3.8194,3.9503,3.9503,4.0325,4.0713,4.0655,4.0674,4.0654,4.0631,4.1506,4.2236,4.2813,4.3314,4.3894,4.4371,4.3204,4.2712,4.2585,4.0861,4.0166,3.9933,3.7906,3.6149,3.4576,3.3248,0.0,3.1391,2.9844,2.933,2.9296,2.933,2.9313,2.9876,3.283,3.5271,3.6876,3.6232,3.6163,3.6432,3.7037,3.7314,3.763,3.8249,3.8352,3.8419,3.8515,3.9062,3.9524,3.9521,4.0693,4.1848,4.2494,4.3171,4.387,4.4533,4.404,4.334,4.2709,4.2581,4.2581,4.2596,4.2862,4.3305,4.3918,4.457,4.5238,4.5879,4.6561,4.7213,4.7849,4.788,4.7907,4.7892,4.6587,4.5961,4.5915,4.3221,4.1962,4.1938,4.0582,4.0031,4.0261,4.0261,4.0331,4.0489,4.0489,4.0489,4.0489,4.0489,4.0489,4.0489,4.0489,3.9906,3.9139,0.0,0.0,0.0,2.057,2.0569,2.0573,2.0563,2.0539,2.081,2.1698,2.3062,0.0,0.0,0.0,0.0,0.0,2.6462,2.7431,2.853,3.0499,3.2352,3.3994,3.5975,3.7298,3.782,3.8645,3.9344,3.9894,4.0475,4.1029,4.1549,4.2379,4.2876,4.3071,4.3063,4.3088,4.3073,4.2481,4.2435,4.2566,4.0329,3.9729,3.9912,3.763,3.5444,3.3442,0.0,3.1083,2.9641,2.9455,2.9025,2.8768,2.9744,3.0053,3.0653,3.3722,3.5522,3.6774,3.7986,3.8045,3.792,3.8613,3.853,3.8482,3.9104,3.8891,3.8679,3.9125,3.9006,3.8846,3.8846,3.9936,4.1109,4.1817,4.2848,4.384,4.4517,4.4024,4.3531,4.33,4.2863,4.2771,4.3202,4.3337,4.3676,4.4351,4.5025,4.562,4.6173,4.6803,4.7448,4.7992,4.8007,4.7809,4.7342,4.6431,4.5844,4.5508,4.3289,4.1769,4.099,4.044,4.0261,4.0436,4.0436,4.047,4.0489,4.0489,4.0489,4.0489,4.0489,4.0489,4.0489,4.0489,4.0301,4.0006,0.0,0.0,0.0,0.0,0.0,0.0,0.0,0.0,0.0,0.0,0.0,0.0,0.0,0.0,0.0,0.0,0.0,2.6886,2.7683,2.908,3.0603,3.2241,3.3669,3.4936,3.6081,3.6599,3.7417,3.8604,3.9176,4.0004,4.1119,4.1957,4.2497,4.2777,4.2785,4.2699,4.2482,4.1539,4.1334,4.1442,3.9183,3.8549,3.8739,3.6899,3.5041,0.0,0.0,3.0915,2.9306,2.8861,2.8714,2.8904,2.9833,3.1071,3.2569,3.4565,3.6061,3.7438,3.9095,3.9259,3.9165,4.0147,3.9899,3.9525,3.9968,3.949,3.9014,3.9159,3.9025,3.8764,3.851,3.9361,4.0424,4.1437,4.2309,4.33,4.4456,4.4024,4.3608,4.3608,4.3202,4.311,4.3562,4.3824,4.4148,4.4579,4.5203,4.5841,4.6373,4.7048,4.7681,4.8187,4.8202,4.7897,4.72,4.6554,4.5556,4.4312,4.3033,4.1756,4.0489,4.0401,4.0436,4.0489,4.0489,4.0489,4.0489,4.0489,4.0489,4.0489,4.0489,4.0489,4.0489,4.0489,4.0489,4.0428,0.0,0.0,0.0,0.0,0.0,0.0,0.0,0.0,0.0,0.0,0.0,0.0,0.0,0.0,0.0,0.0,0.0,0.0,2.6771,2.7642,2.8837,3.0441,3.1367,3.2636,3.4344,3.4395,3.5238,3.6944,3.6938,3.7779,3.9387,4.0267,4.1106,4.1906,4.2456,4.2665,4.2457,4.0409,3.9515,3.9269,3.7449,3.6713,3.6606,3.5807,0.0,0.0,3.2868,3.1668,3.0261,2.8204,2.8505,2.9748,2.9782,3.2317,3.5266,3.5335,3.6904,3.8767,3.9543,3.9784,4.014,4.1484,4.1263,4.0774,4.0718,4.0148,3.9411,3.8695,3.9039,3.924,3.8532,3.895,3.9895,4.133,4.161,4.235,4.4286,4.4071,4.3701,4.3701,4.3747,4.3762,4.3762,4.4348,4.4718,4.4718,4.528,4.5942,4.6619,4.7296,4.7942,4.8589,4.8573,4.8235,4.7558,4.685,4.5203,4.2663,4.2633,4.1894,4.0551,4.0505,4.0489,4.0489,4.0489,4.0489,4.0489,4.0489,4.0489,4.0489,4.0489,4.0489,4.0489,4.0489,4.0489,4.0489,0.0,0.0,0.0,0.0,0.0,0.0,0.0,0.0,0.0,0.0,0.0,0.0,0.0,0.0,0.0,0.0,0.0,0.0,2.5913,2.6746,2.7418,2.7857,2.9871,3.1518,3.2602,3.3839,3.5009,3.61,3.6052,3.658,3.767,3.8471,3.9311,4.0163,4.0965,4.0754,3.9785,3.9242,3.8761,3.8239,0.0,3.6211,3.6606,0.0,0.0,3.2965,3.3258,3.2075,3.0346,3.0246,3.1411,3.3007,3.3559,3.4783,3.6249,3.7387,3.8129,3.8893,4.0239,4.1015,4.1492,4.1864,4.1805,4.1522,4.0974,4.0281,3.9706,3.9525,3.9164,3.8858,3.8662,3.9161,3.987,4.0734,4.1754,4.2754,4.3713,4.4579,4.5064,4.5064,4.5511,4.5834,4.5834,4.5972,4.608,4.608,4.6249,4.6634,4.7311,4.7989,4.8435,4.8604,4.8127,4.7542,4.6865,4.568,4.4533,4.3362,4.2833,4.2155,4.1309,4.0735,4.0489,4.0489,4.0489,4.0489,4.0489,4.0489,4.0489,4.0489,4.0489,4.0489,4.0489,4.0489,4.0489,4.0489,0.0,0.0,0.0,0.0,0.0,0.0,0.0,0.0,0.0,0.0,0.0,0.0,0.0,0.0,0.0,0.0,0.0,0.0,0.0,2.606,2.6662,2.7388,2.8456,2.9777,3.139,3.2346,3.3254,3.4128,0.0,0.0,3.5912,3.674,3.7359,3.7896,3.9118,3.8999,3.7874,3.7787,0.0,0.0,0.0,0.0,0.0,0.0,0.0,3.3357,3.416,3.3847,3.3121,3.36,3.4132,3.4818,3.6232,3.6973,3.7542,3.8732,3.9319,3.9876,4.1067,4.1947,4.2534,4.2534,4.2275,4.1895,4.1481,4.0813,4.0184,3.9746,3.9615,3.9272,3.8268,3.896,3.9982,4.0962,4.2108,4.3292,4.4542,4.5581,4.6178,4.6247,4.671,4.7071,4.7123,4.7073,4.7034,4.7034,4.7034,4.7204,4.7588,4.825,4.862,4.862,4.7958,4.7142,4.6157,4.511,4.4132,4.314,4.2786,4.2094,4.1109,4.0674,4.0489,4.0489,4.0489,4.0489,4.0489,4.0593,4.0627,4.0627,4.0746,4.0746,4.0746,4.0746,4.0746,4.0746,0.0,0.0,0.0,0.0,0.0,0.0,0.0,0.0,0.0,0.0,0.0,0.0,0.0,0.0,0.0,0.0,0.0,0.0,0.0,0.0,0.0,2.7871,2.7369,2.8149,3.048,3.0635,3.1079,3.1833,3.2536,3.33,0.0,0.0,0.0,0.0,0.0,0.0,0.0,0.0,0.0,0.0,0.0,0.0,0.0,0.0,0.0,3.4278,3.4951,3.5733,3.6518,3.6908,3.6424,3.6028,3.8099,3.8819,3.9026,3.9664,4.0336,4.1084,4.1947,4.2603,4.3069,4.3172,4.2603,4.1957,4.1895,4.1291,4.0502,3.9673,3.9999,3.985,3.7949,3.8631,3.9976,4.1551,4.2397,4.3578,4.5741,4.6558,4.7071,4.7381,4.773,4.805,4.8294,4.82,4.8075,4.793,4.7914,4.7889,4.7742,4.8204,4.8404,4.8219,4.765,4.6726,4.5464,4.4825,4.3864,4.274,4.2556,4.1848,4.0628,4.0536,4.0524,4.0524,4.0524,4.0558,4.0593,4.078,4.0833,4.0867,4.1034,4.1117,4.1117,4.1117,4.1117,4.1083,0.0,0.0,0.0,0.0,0.0,0.0,0.0,0.0,0.0,0.0,2.5512,2.594,0.0,0.0,0.0,0.0,0.0,0.0,0.0,0.0,0.0,2.7061,2.7618,2.8434,2.9602,3.0321,3.0771,3.0923,3.1079,3.1576,0.0,0.0,0.0,0.0,0.0,0.0,0.0,0.0,0.0,0.0,0.0,0.0,0.0,0.0,0.0,0.0,3.4118,3.4772,3.5846,3.6915,3.7667,3.833,3.9243,3.998,4.0532,4.0653,4.0791,4.1205,4.262,4.262,4.2378,4.3034,4.2603,4.1843,4.124,4.0498,3.9871,3.9709,3.9296,3.9026,3.9238,3.9015,3.9464,4.155,4.1955,4.2771,4.4982,4.6357,4.761,4.8858,4.9545,5.0173,5.0871,5.0932,5.0564,4.9726,4.9686,4.9306,4.8476,4.8019,4.7265,4.6142,4.6003,4.5557,4.4795,4.4117,4.367,4.3424,4.2294,4.1648,4.1401,4.0766,4.0593,4.0765,4.0765,0.0,4.1,4.1034,4.1034,4.1034,4.1083,4.1117,4.1117,4.1117,4.1117,4.1117,0.0,0.0,0.0,0.0,0.0,0.0,0.0,2.4589,2.5989,2.6801,2.6901,2.7065,2.7527,2.7199,0.0,0.0,0.0,0.0,0.0,0.0,0.0,0.0,2.8142,2.8725,3.0049,3.0923,3.1156,3.0694,0.0,3.1317,3.1352,3.2609,3.3382,3.3809,3.5558,3.5862,3.5133,3.5542,3.5277,3.4539,3.4517,3.4461,0.0,0.0,0.0,0.0,3.5504,3.5717,3.6405,3.7516,3.7817,3.8069,3.9875,4.0665,4.0912,4.0912,4.117,4.174,4.2896,4.3207,4.3207,4.3189,4.2913,4.2223,4.0636,3.9974,3.9474,3.8698,3.8577,3.8456,3.8008,3.8612,3.9795,4.1648,4.227,4.3457,4.6135,4.6962,4.8016,4.9958,5.0298,5.088,5.2123,5.1852,5.1414,5.0908,5.0499,4.9623,4.8163,4.745,4.6619,4.5618,4.5249,4.4779,4.4101,4.3402,4.2894,4.254,4.1985,4.1456,4.1032,4.0866,4.0814,4.0799,4.0916,4.1189,4.159,4.1671,4.1932,4.2206,4.1964,4.1883,4.1851,4.1472,4.1355,4.1388,0.0,0.0,0.0,0.0,0.0,0.0,0.0,2.5659,2.7194,2.7987,2.8259,2.8463,2.8704,2.8396,2.8229,0.0,0.0,0.0,0.0,0.0,0.0,0.0,0.0,2.9103,3.0641,0.0,0.0,3.0951,3.1771,0.0,0.0,0.0,0.0,0.0,3.4501,3.4924,3.42,3.4797,3.4879,0.0,0.0,3.4618,0.0,0.0,0.0,0.0,0.0,3.6822,3.7139,3.8104,3.7756,3.7364,3.9992,4.0741,4.0694,4.0694,4.1212,4.1947,4.2723,4.3258,4.3465,4.3051,4.2827,4.2189,4.0146,3.9577,3.9077,3.7771,3.7823,3.7784,3.6749,3.787,3.9577,4.1464,4.2154,4.358,4.6844,4.7254,4.811,5.0422,5.0759,5.1367,5.2775,5.2495,5.2139,5.1908,5.0834,4.9466,4.7825,4.7232,4.6599,4.5719,4.521,4.4601,4.393,4.3223,4.263,4.2119,4.2084,4.1708,4.1057,4.1374,4.144,4.1325,4.1489,4.1851,4.2347,4.2505,4.2863,4.3306,4.2941,4.2787,4.2725,4.219,4.2013,4.2061,0.0,0.0,0.0,0.0,0.0,0.0,0.0,2.5274,2.7194,2.7987,2.8783,2.9583,3.0386,2.9062,2.8437,0.0,0.0,0.0,0.0,0.0,0.0,0.0,0.0,0.0,0.0,0.0,0.0,3.1781,3.2669,0.0,0.0,0.0,0.0,0.0,0.0,3.4574,3.5002,3.4934,0.0,0.0,0.0,0.0,0.0,0.0,0.0,0.0,0.0,3.698,3.7463,3.8224,3.7945,3.7566,3.9284,3.9912,3.9997,3.9997,4.0481,4.117,4.1912,4.1671,4.136,4.1964,4.1619,4.0877,3.9905,3.9181,3.8456,3.7668,3.6956,3.668,3.7288,3.6956,3.7577,4.0532,4.044,4.133,4.5077,4.6249,4.7501,4.9818,5.1252,5.2364,5.3258,5.3891,5.383,5.2925,5.0764,4.9118,4.8272,4.819,4.7507,4.609,4.5976,4.5602,4.4886,4.4203,4.3845,4.3764,4.3175,4.2833,4.2767,4.2814,4.2892,4.3064,4.3094,4.3199,0.0,4.3376,4.3423,4.3482,4.3423,4.3423,4.3423,4.3363,4.3333,4.3333,0.0,0.0,0.0,0.0,0.0,0.0,2.364,2.5531,2.7385,2.8708,2.9174,2.9714,3.0556,3.0029,2.9761,0.0,0.0,0.0,0.0,0.0,0.0,0.0,0.0,0.0,0.0,0.0,3.2161,3.2684,3.2996,0.0,0.0,0.0,0.0,0.0,0.0,3.4988,3.5098,3.4954,0.0,0.0,0.0,0.0,0.0,0.0,0.0,0.0,0.0,0.0,3.7207,3.79,3.7372,3.6674,3.824,3.8752,3.8908,3.9661,4.0424,4.1155,4.1809,4.1792,4.1636,4.1947,4.1464,4.0584,3.9319,3.8456,3.7719,3.6939,3.6525,3.6404,3.6715,3.6904,3.7698,3.9819,3.9905,4.1043,4.4863,4.491,4.5901,4.9568,5.0103,5.0832,5.2515,5.2959,5.2771,5.1913,5.0985,5.0086,4.9359,4.8299,4.7207,4.6143,4.5718,4.5129,4.4394,4.3737,4.3393,4.3408,4.3253,4.3106,4.3029,4.321,4.3303,4.3306,4.338,4.3676,0.0,4.41,4.4328,4.4625,4.4243,4.41,4.4042,4.363,4.3512,4.3571,0.0,0.0,0.0,0.0,0.0,2.3155,2.4014,2.5675,2.7248,2.838,2.9032,2.9606,3.0131,3.0438,3.0726,3.1029,0.0,0.0,0.0,0.0,0.0,0.0,0.0,0.0,0.0,0.0,3.2681,3.3553,3.3712,3.3817,0.0,0.0,3.4729,3.4795,0.0,0.0,0.0,0.0,0.0,0.0,0.0,0.0,0.0,0.0,0.0,0.0,0.0,0.0,0.0,0.0,0.0,3.6665,3.7768,3.8076,3.8209,3.9082,4.0013,4.0845,4.1253,4.1516,4.1671,4.1671,4.1119,4.0204,3.8888,3.8047,3.7288,3.6473,3.6301,3.6301,3.6301,3.6956,3.7909,3.9163,3.975,4.106,4.4009,4.3871,4.4725,4.7924,4.8234,4.8947,5.0981,5.1791,5.1877,5.1166,5.1114,5.0683,4.9717,4.8439,4.7396,4.6616,4.5915,4.52,4.4421,4.3951,4.3714,4.3714,4.3852,4.3852,4.3714,4.3951,4.3997,4.3927,4.4026,4.4328,0.0,4.4769,4.5032,4.5371,4.4934,4.4769,4.4697,4.4243,4.4066,4.414,0.0,0.0,0.0,0.0,0.0,0.0,2.3889,2.5535,2.6633,2.6449,2.8168,2.9341,2.9236,3.0036,3.0946,3.182,0.0,0.0,0.0,0.0,0.0,0.0,0.0,0.0,0.0,0.0,0.0,3.4394,3.5046,3.547,3.5665,3.5483,3.5496,3.5679,0.0,0.0,0.0,0.0,0.0,0.0,0.0,0.0,0.0,0.0,0.0,0.0,0.0,0.0,0.0,0.0,0.0,0.0,0.0,3.8095,3.8088,3.8055,3.8908,3.9893,3.991,4.0412,4.0912,4.0912,4.0325,3.9508,3.8767,3.8047,3.7288,3.6473,3.6301,3.6301,3.6301,3.6956,3.7754,3.8474,3.9894,4.117,4.1947,4.3345,4.4311,4.4363,4.5699,4.7217,4.8689,5.0878,5.1877,5.1166,5.1114,5.0412,4.8879,4.8792,4.8465,4.7724,4.6983,4.6207,4.5388,4.5371,4.5371,4.5371,4.5371,4.5371,4.5371,4.5371,4.5371,4.5371,4.5371,4.5371,0.0,4.5397,4.5397,4.5397,4.5397,4.5397,4.5397,4.5371,4.5371,4.5371,0.0,0.0,0.0,0.0,0.0,0.0,0.0,2.4887,2.585,2.6337,2.7556,2.8565,2.9079,3.0008,3.0926,3.1768,0.0,0.0,0.0,0.0,0.0,0.0,0.0,0.0,0.0,0.0,0.0,0.0,0.0,3.5295,3.5483,3.5438,3.5425,3.5477,3.5228,3.5058,0.0,0.0,0.0,0.0,0.0,0.0,0.0,0.0,0.0,0.0,0.0,0.0,0.0,0.0,0.0,0.0,0.0,0.0,0.0,3.7316,3.8279,3.9338,3.9229,3.9331,3.9472,3.9472,3.9197,3.8772,3.803,3.7668,3.7288,3.6473,3.6301,3.6301,3.6301,3.6956,3.7754,3.8496,3.9422,4.0526,4.1826,4.2896,4.4138,4.5682,4.7683,4.9114,4.9579,5.0287,5.0614,5.0373,5.0355,4.9907,4.8844,4.831,4.7707,4.6975,4.6734,4.6207,4.5414,4.5397,4.5397,4.5397,4.5397,4.5397,4.5397,4.5397,4.5397,4.5397,4.5397,4.5397,4.5397,4.5397,4.5397,4.5397,4.5397,4.5397,4.5397,4.5397,4.5397,4.5397,0.0,0.0,0.0,0.0,0.0,0.0,0.0,2.4732,2.53,2.5767,2.7028,2.8062,2.8546,2.9791,3.1062,3.2198,0.0,0.0,0.0,0.0,0.0,0.0,0.0,0.0,0.0,0.0,0.0,0.0,0.0,0.0,0.0,0.0,3.5643,3.5391,3.5185,3.5015,0.0,0.0,0.0,0.0,0.0,0.0,0.0,0.0,0.0,0.0,0.0,0.0,0.0,0.0,0.0,0.0,0.0,0.0,0.0,0.0,3.7614,3.8356,3.8506,3.8695,3.8833,3.8807,3.852,3.8109,3.7616,3.7271,3.6904,3.6404,3.6301,3.6301,3.6301,3.718,3.8082,3.8525,3.9698,4.0825,4.1498,4.2758,4.4259,4.5958,4.7924,4.9148,4.9148,4.9666,5.0011,5.0011,4.9735,4.9189,4.843,4.77,4.6958,4.6155,4.6165,4.5897,4.5397,4.5397,4.5397,4.5397,4.5397,4.5397,4.5397,4.5397,4.5397,4.5397,4.5397,4.5397,0.0,4.5397,4.5397,4.5397,4.5397,4.5397,4.5397,4.5397,4.5397,4.5397,0.0,0.0,0.0,0.0,0.0,0.0,0.0,2.4888,2.4961,2.4908,2.6584,2.7785,2.779,2.9482,3.1275,3.2952,0.0,0.0,0.0,0.0,0.0,0.0,0.0,0.0,0.0,0.0,0.0,3.6266,3.616,3.6253,3.6565,0.0,0.0,3.5434,3.525,3.5018,0.0,0.0,0.0,0.0,0.0,0.0,0.0,0.0,0.0,0.0,0.0,0.0,0.0,0.0,0.0,0.0,0.0,0.0,0.0,0.0,0.0,0.0,0.0,3.8314,3.8729,3.8677,3.8135,3.759,3.7448,3.6891,0.0,3.6301,3.6301,3.6335,3.6439,3.7629,3.8629,3.8732,4.0526,4.1688,4.0998,4.2913,4.4682,4.5535,4.6948,4.7844,4.7844,4.9166,5.0011,5.0011,4.924,4.8465,4.7724,4.701,4.6224,4.5432,4.5397,4.5397,4.5397,4.5397,4.5397,4.5397,4.5397,4.5397,4.5397,4.5397,4.5397,0.0,4.5397,4.5397,4.5397,4.5397,4.5397,4.5397,4.5397,4.5423,4.5423,4.5423,4.5423,4.5423,0.0,0.0,0.0,0.0,0.0,0.0,0.0,0.0,0.0,0.0,2.6505,2.7697,2.7785,2.9482,3.1275,0.0,0.0,0.0,0.0,0.0,0.0,0.0,0.0,0.0,0.0,0.0,0.0,3.5023,3.5649,3.6037,3.6235,3.6815,0.0,0.0,0.0,0.0,0.0,0.0,0.0,0.0,0.0,0.0,0.0,0.0,0.0,0.0,3.5427,3.6043,0.0,0.0,0.0,0.0,0.0,0.0,0.0,0.0,3.7007,3.7042,3.7196,0.0,3.7292,3.7271,3.7502,3.7557,0.0,3.7032,3.7115,3.6443,3.6301,3.6663,3.7836,3.8353,3.8996,4.017,4.0825,4.1101,4.0929,4.3354,4.5845,4.7758,4.8844,4.9476,4.9476,4.9804,5.0011,5.0011,4.924,4.8465,4.7724,4.701,4.6224,4.5432,4.5397,4.5397,4.5397,4.5397,4.5397,4.5397,4.5397,4.5397,4.5397,4.5397,4.5397,4.5397,4.5397,4.5397,4.5397,4.5397,4.5397,4.5397,4.5528,4.5537,4.5581,4.5667,4.571,4.571,0.0,0.0,0.0,0.0,0.0,0.0,0.0,0.0,0.0,0.0,0.0,0.0,0.0,0.0,0.0,0.0,0.0,0.0,0.0,0.0,0.0,0.0,0.0,0.0,0.0,0.0,0.0,0.0,0.0,3.6626,0.0,0.0,0.0,0.0,0.0,0.0,0.0,0.0,0.0,0.0,0.0,0.0,0.0,0.0,0.0,0.0,3.4657,3.5264,0.0,3.5514,3.6294,3.7371,0.0,0.0,0.0,0.0,3.6197,3.5953,3.5953,3.693,3.7918,3.7877,3.8129,3.8258,3.7752,3.7359,3.6967,3.6488,3.6343,3.6542,3.7387,3.8634,3.9595,3.9819,4.1153,4.2334,4.2765,4.4637,4.6746,4.8906,4.9872,5.0359,5.0359,5.0359,5.0107,4.9493,4.8723,4.7965,4.7224,4.6475,4.5845,4.5414,4.5397,4.5397,4.5397,4.5397,4.5397,4.5397,4.5397,4.5397,4.5397,4.5397,4.5397,4.5397,4.5476,4.5502,4.5502,4.5554,4.5563,4.5607,4.5667,4.5693,4.5693,4.577,4.5795,4.5795,0.0,0.0,0.0,0.0,0.0,0.0,0.0,0.0,0.0,0.0,0.0,0.0,0.0,0.0,0.0,0.0,0.0,0.0,0.0,0.0,0.0,0.0,0.0,0.0,0.0,0.0,0.0,0.0,0.0,0.0,0.0,0.0,3.7766,0.0,0.0,0.0,0.0,0.0,0.0,0.0,0.0,0.0,0.0,0.0,0.0,0.0,0.0,0.0,0.0,3.5359,3.5985,3.6776,3.6607,0.0,0.0,0.0,0.0,0.0,3.4921,3.7267,3.9485,3.8848,3.8835,3.8933,3.8849,3.7676,3.665,3.6693,3.6553,3.6589,3.7162,3.9006,4.0239,3.9625,4.186,4.4044,4.508,4.6083,4.7413,4.9353,5.0303,5.0797,5.0797,5.0797,5.0267,4.8983,4.8209,4.7488,4.6801,4.6083,4.5598,4.5476,4.5537,4.5537,4.545,4.5423,4.5397,4.5397,4.5423,4.5423,4.5423,4.545,4.545,4.5476,0.0,0.0,4.5658,4.5744,4.5795,4.5795,4.5821,4.5821,4.5821,4.5846,4.5846,4.5846,0.0,0.0,0.0,0.0,0.0,0.0,0.0,0.0,0.0,0.0,0.0,0.0,0.0,0.0,0.0,0.0,0.0,0.0,0.0,0.0,0.0,0.0,0.0,3.4791,3.5313,3.4886,0.0,0.0,3.725,3.7648,3.7181,3.9275,3.8969,3.6609,3.5709,0.0,0.0,0.0,0.0,0.0,0.0,0.0,0.0,0.0,0.0,0.0,0.0,0.0,0.0,3.4398,3.5293,3.652,3.4953,0.0,0.0,0.0,0.0,0.0,3.5954,3.8635,4.0524,3.7559,3.7538,3.8214,3.8097,3.7647,3.7302,3.747,3.7267,3.7984,4.0989,4.0562,4.0636,4.333,4.3644,4.407,4.5631,4.6583,4.7701,4.931,5.0241,5.0701,5.0701,5.0701,5.0312,4.9395,4.8609,4.798,4.7474,4.7103,4.6554,4.577,4.6102,4.6126,4.5744,4.5528,4.5397,4.5397,4.5528,4.5581,4.5563,4.5684,4.5744,4.5744,0.0,4.577,4.577,4.5795,4.5795,4.5795,4.5922,4.5972,4.5972,4.6097,4.6147,4.6147,0.0,0.0,0.0,0.0,0.0,0.0,0.0,0.0,0.0,0.0,0.0,0.0,0.0,0.0,0.0,0.0,0.0,0.0,0.0,0.0,0.0,0.0,3.4778,3.4801,3.5559,3.5294,3.5705,3.6888,3.7633,3.8024,3.8098,3.8372,3.7633,3.6068,3.569,3.5287,3.5008,0.0,0.0,0.0,0.0,0.0,0.0,0.0,0.0,0.0,0.0,0.0,0.0,0.0,3.518,3.5979,3.4931,0.0,0.0,0.0,0.0,0.0,3.4577,3.6829,3.879,3.7876,3.9824,4.1972,4.1902,4.0744,3.9697,3.9788,3.9264,3.944,4.1515,4.1755,4.2484,4.5223,4.522,4.5227,4.6295,4.7226,4.8163,4.9166,4.9963,5.0411,5.0411,5.0411,4.9996,4.8874,4.8479,4.8012,4.7413,4.7281,4.6995,4.6572,4.6763,4.6786,4.6548,4.6412,4.6109,4.5632,4.5667,4.5693,4.5693,4.577,4.5795,4.5795,0.0,4.5897,4.5922,4.5972,4.6023,4.6023,4.6073,4.6097,4.6122,4.6172,4.6196,4.6196,0.0,0.0,0.0,0.0,0.0,0.0,0.0,0.0,0.0,0.0,0.0,0.0,0.0,0.0,0.0,0.0,0.0,0.0,0.0,0.0,3.4206,3.5523,3.4885,3.4977,3.6049,3.5696,3.629,3.7894,3.8079,3.8488,3.9064,3.7838,3.6736,3.5789,3.5974,3.5863,3.5621,3.7219,0.0,0.0,0.0,0.0,0.0,0.0,0.0,0.0,0.0,0.0,0.0,0.0,0.0,0.0,0.0,0.0,0.0,3.4121,3.3534,3.3126,3.3582,3.5466,3.7612,3.8799,4.1495,4.401,4.46,4.2887,4.1269,4.154,4.0943,4.0727,4.1796,4.2956,4.4332,4.6203,4.6268,4.6359,4.7167,4.7951,4.8665,4.927,4.9838,5.0204,5.0165,5.0165,4.9695,4.852,4.8445,4.8152,4.7488,4.7557,4.7515,4.7302,4.7406,4.7388,4.7281,4.7281,4.69,4.6119,4.6168,4.6168,4.6168,4.6193,4.6217,4.6217,4.6315,4.6308,4.6228,4.6326,4.6319,4.6196,4.6196,4.6196,4.6196,4.6196,4.6196,4.6196,0.0,0.0,0.0,0.0,0.0,0.0,0.0,0.0,0.0,0.0,0.0,0.0,0.0,0.0,0.0,0.0,0.0,0.0,0.0,0.0,3.4008,3.4927,3.524,3.6142,3.7689,3.6272,3.629,3.7894,3.8655,3.9045,3.9101,3.8971,3.8098,3.6662,3.7392,3.6891,3.5621,3.7219,3.7466,0.0,0.0,0.0,0.0,0.0,0.0,0.0,0.0,0.0,0.0,0.0,0.0,0.0,0.0,0.0,3.4452,3.4092,3.3861,3.3899,3.466,3.6856,3.9156,4.0057,3.996,4.0231,4.2485,4.1393,4.0255,4.1378,4.1248,4.1523,4.3471,4.4453,4.5305,4.6329,4.6377,4.6864,4.8524,4.8803,4.9137,4.9933,5.0119,5.0174,5.01,5.01,4.9748,4.8915,4.8859,4.8661,4.823,4.8569,4.8402,4.7611,4.7977,4.8015,4.7591,4.7569,4.7406,4.7106,4.7234,4.7277,4.7277,4.7403,4.7485,4.7485,4.7485,4.7248,4.684,4.684,4.6578,4.6196,4.6196,4.6196,4.6196,4.6196,4.6196,4.6196,0.0,0.0,0.0,0.0,0.0,0.0,0.0,0.0,0.0,0.0,0.0,0.0,0.0,0.0,0.0,0.0,0.0,0.0,0.0,0.0,3.2643,3.4394,3.3652,3.4451,3.7108,3.7039,3.7281,3.7894,3.8191,3.8599,3.9082,3.8079,3.7541,3.7429,3.7225,3.6551,3.5566,3.6681,3.6978,3.6736,0.0,0.0,0.0,0.0,0.0,0.0,0.0,0.0,0.0,0.0,3.4109,3.4788,3.4241,3.4284,3.4425,3.3992,3.3848,3.3902,3.438,3.6385,3.8544,3.938,4.0152,4.1356,4.3791,4.3778,4.336,4.3804,4.3778,4.3749,4.3971,4.5069,4.609,4.6438,4.6869,4.7593,4.8742,4.8909,4.902,4.9317,4.9373,4.9373,4.9355,4.9355,4.9243,4.8927,4.8909,4.882,4.8678,4.8803,4.8767,4.8421,4.8587,4.8587,4.8402,4.8421,4.8365,4.8252,4.7759,4.753,4.753,4.7591,4.7319,4.6866,4.6866,4.6434,4.5777,4.5777,4.5997,4.6342,4.6547,4.6471,4.6196,4.6196,4.6398,4.6625,0.0,0.0,0.0,0.0,0.0,0.0,0.0,0.0,0.0,0.0,0.0,0.0,0.0,0.0,0.0,0.0,0.0,0.0,0.0,0.0,3.1236,3.3079,3.2534,3.3243,3.5479,3.6315,3.7113,3.7894,3.7894,3.7912,3.7949,3.7355,3.7355,3.7875,3.7318,3.6773,3.629,3.6569,3.6551,3.6346,3.6593,0.0,0.0,0.0,0.0,0.0,0.0,0.0,0.0,0.0,3.358,3.4291,3.4174,3.4261,3.4373,3.4193,3.4228,3.4378,3.4556,3.6222,3.8079,3.8897,4.016,4.1794,4.4005,4.4506,4.4655,4.5194,4.5287,4.5026,4.4153,4.4934,4.5881,4.6401,4.6958,4.7683,4.876,4.8909,4.8909,4.8909,4.8909,4.8909,4.8909,4.8909,4.8909,4.8909,4.8909,4.8909,4.8909,4.8909,4.8779,4.8537,4.8519,4.8407,4.8147,4.8147,4.8147,4.8147,4.7536,4.7524,4.7999,4.7743,4.7323,4.6811,4.6536,4.6021,4.532,4.532,4.5588,4.6008,4.6234,4.6136,4.5857,4.5857,4.6046,4.6341,0.0,0.0,0.0,0.0,0.0,0.0,0.0,0.0,0.0,0.0,0.0,0.0,0.0,0.0,0.0,0.0,0.0,0.0,0.0,2.9138,2.9974,3.0847,3.2205,3.2983,3.3001,3.3788,3.5423,3.7875,3.7875,3.7071,3.5566,3.7151,3.7894,3.7894,3.7894,3.7875,3.7819,3.7021,3.6216,3.5566,3.6365,3.6197,0.0,0.0,0.0,0.0,0.0,0.0,0.0,0.0,3.2983,3.3202,3.4472,3.4573,3.4284,3.4766,3.5177,3.551,3.551,3.6681,3.8079,3.8897,3.977,4.0828,4.2445,4.2816,4.328,4.4952,4.5287,4.5026,4.4153,4.4005,4.4544,4.6215,4.6494,4.7051,4.8667,4.889,4.889,4.8909,4.8909,4.8909,4.8909,4.8909,4.8909,4.8909,4.889,4.889,4.889,4.889,4.8519,4.7701,4.7683,4.7311,4.6513,4.6494,4.6494,4.6494,4.6494,4.733,4.8853,4.8054,4.7683,4.7627,4.6828,4.622,4.5773,4.5792,4.5513,4.5104,4.5104,4.5104,4.5104,4.5104,4.5104,4.5104,0.0,0.0,0.0,0.0,0.0,0.0,0.0,0.0,0.0,0.0,0.0,0.0,0.0,0.0,0.0,0.0,0.0,0.0,0.0,2.7876,2.8342,2.9788,2.9661,3.0641,3.2946,3.4395,3.5473,3.6216,3.6216,3.6551,3.7201,3.7108,3.7355,3.7875,3.7312,3.6736,3.616,3.5293,3.5157,3.5473,3.5101,3.5175,0.0,0.0,0.0,0.0,0.0,0.0,0.0,0.0,0.0,0.0,3.3272,3.3864,3.4241,3.4364,3.4933,3.551,3.551,3.6681,3.8079,3.8897,4.0606,4.2203,4.2686,4.3243,4.3968,4.5064,4.4804,4.4302,4.4042,4.4005,4.4358,4.5472,4.5658,4.6215,4.7831,4.8054,4.8277,4.8834,4.8909,4.8909,4.8909,4.8909,4.8909,4.8909,4.8389,4.8054,4.8054,4.7516,4.7107,4.6865,4.6865,4.6735,4.6494,4.6494,4.6494,4.6494,4.6494,4.6754,4.72,4.6958,4.655,4.5992,4.5751,4.5222,4.457,4.5197,4.5162,4.4802,4.5369,4.5378,4.5104,4.5104,4.532,4.5588,0.0,0.0,0.0,0.0,0.0,0.0,0.0,0.0,0.0,0.0,0.0,0.0,0.0,0.0,0.0,0.0,0.0,0.0,0.0,0.0,2.7352,2.8356,2.8542,2.9694,3.1998,3.3986,3.4841,3.4506,3.5175,3.5826,3.6426,3.6278,3.6662,3.7392,3.6588,3.6142,3.59,3.4699,3.4494,3.4952,3.4401,3.4513,3.4934,0.0,0.0,0.0,0.0,0.0,0.0,0.0,0.0,0.0,3.276,3.3101,3.3373,3.4011,3.4822,3.564,3.629,3.7665,3.9082,3.9881,4.146,4.2872,4.3206,4.3912,4.4562,4.4748,4.4636,4.4413,4.4061,4.4005,4.4283,4.5157,4.5287,4.5751,4.7033,4.7218,4.7404,4.7887,4.7943,4.7943,4.7943,4.7943,4.7943,4.7943,4.7497,4.7218,4.7218,4.6754,4.6345,4.603,4.6011,4.5862,4.5509,4.5509,4.5509,4.5509,4.5509,4.5509,4.5528,4.5862,4.5751,4.5268,4.4934,4.4488,4.4042,4.4562,4.4619,4.4422,4.4901,4.4909,4.4657,4.4657,4.4838,4.5085,0.0,0.0,0.0,0.0,0.0,0.0,0.0,0.0,0.0,0.0,0.0,0.0,0.0,0.0,0.0,0.0,0.0,0.0,0.0,0.0,2.6814,2.6907,2.8653,2.9991,3.079,3.3039,3.3844,3.3101,3.4637,3.499,3.4216,3.5175,3.5956,3.6569,3.59,3.5937,3.6383,3.4773,3.4048,3.3974,3.3974,3.3974,3.3974,3.3974,0.0,0.0,0.0,0.0,0.0,0.0,0.0,0.0,3.2667,3.2444,3.2202,3.3658,3.4767,3.5844,3.7355,3.9008,4.049,4.1367,4.2259,4.3095,4.3838,4.4599,4.4952,4.4153,4.4618,4.4934,4.4153,4.4005,4.4265,4.5045,4.5175,4.5454,4.6271,4.6382,4.642,4.6494,4.6494,4.6494,4.6494,4.6494,4.6494,4.6494,4.642,4.6382,4.6382,4.6308,4.5937,4.5194,4.5175,4.4804,4.4005,4.4005,4.4005,4.4005,4.4005,4.4005,4.4023,4.4822,4.5175,4.5138,4.4339,4.4005,4.4005,4.4005,4.4005,4.4005,4.4005,4.4005,4.4005,4.4005,4.4005,4.4005,0.0,0.0,0.0,0.0,0.0,0.0,0.0,0.0,0.0,0.0,0.0,0.0,0.0,0.0,0.0,0.0,0.0,0.0,0.0,0.0,2.6238,2.6869,2.9712,3.1663,3.2481,3.3615,3.4123,3.3937,3.429,3.4383,3.4234,3.5751,3.6197,3.5789,3.6253,3.5807,3.4661,3.3689,3.289,3.2314,3.2314,3.2314,3.2314,3.2314,3.2221,0.0,0.0,0.0,0.0,0.0,0.0,0.0,3.1998,3.237,3.2816,3.3169,3.4321,3.5714,3.6686,3.8135,3.9733,4.1219,4.2686,4.3782,4.3968,4.4153,4.4228,4.4042,4.4153,4.4228,4.4023,4.4005,4.4061,4.4246,4.4283,4.4581,4.5435,4.5565,4.5788,4.642,4.6494,4.6494,4.6494,4.6494,4.6494,4.6494,4.59,4.5565,4.5565,4.4915,4.4469,4.4283,4.4283,4.4191,4.4005,4.4005,4.4005,4.4005,4.4005,4.4005,4.4005,4.4191,4.4283,4.4265,4.4079,4.4005,4.4005,4.4005,4.4005,4.4005,4.4005,4.4005,4.4005,4.4005,4.4005,4.4005,0.0,0.0,0.0,0.0,0.0,0.0,0.0,0.0,0.0,0.0,0.0,0.0,0.0,0.0,0.0,0.0,0.0,0.0,0.0,0.0,2.6952,2.8597,3.0679,3.1998,3.2425,3.3224,3.3621,3.3621,3.3621,3.3807,3.4216,3.5089,3.5287,3.4878,3.4915,3.4439,3.3566,3.2778,3.2184,3.1794,3.1794,3.1794,3.1794,3.1794,3.1794,3.1682,3.0883,0.0,0.0,0.0,0.0,0.0,0.0,0.0,3.1924,3.2314,3.3317,3.4655,3.6259,3.7856,3.9626,4.1829,4.339,4.4374,4.4374,4.4374,4.4374,4.4374,4.4181,4.4005,4.4005,4.4005,4.4005,4.4005,4.4005,4.4153,4.4599,4.4674,4.4822,4.5249,4.5305,4.5305,4.5305,4.5305,4.5305,4.5305,4.4915,4.4674,4.4674,4.4246,4.4005,4.4005,4.4005,4.4005,4.4005,4.4005,4.4005,4.4005,4.4005,4.4005,4.4005,4.4005,4.4005,4.4005,4.4005,4.4005,4.4005,4.4005,4.4005,4.4005,4.4005,4.4005,4.4005,4.4005,4.4005,4.4005,0.0,0.0,0.0,0.0,0.0,0.0,0.0,0.0,0.0,0.0,0.0,0.0,0.0,0.0,0.0,0.0,0.0,0.0,0.0,2.6653,2.7953,3.0493,3.1236,3.1663,3.1794,3.2462,3.2871,3.3001,3.2871,3.3417,3.4624,3.4494,3.442,3.4401,3.3733,3.328,3.2946,3.2147,3.1645,3.1385,3.1385,3.1385,3.1385,3.1385,3.1385,3.1292,3.0623,3.0902,3.1496,3.0827,0.0,0.0,0.0,0.0,3.0745,3.1414,3.2188,3.3304,3.5498,3.7607,3.9837,4.2583,4.4058,4.4812,4.48,4.4812,4.4806,4.48,4.4443,4.4121,4.4079,4.4079,4.4048,4.402,4.4033,4.4079,4.4079,4.4079,4.4094,4.4121,4.4109,4.4079,4.4079,4.4079,4.4048,4.4005,4.4005,4.4005,4.4005,4.4005,4.4005,4.4005,4.4048,4.4048,4.4005,4.4048,4.4048,4.402,4.4051,4.4036,4.402,4.4051,4.4036,4.4005,4.4005,4.4005,4.4005,4.4005,4.4005,4.4005,4.4005,4.4005,4.4005,4.4005,4.4005,4.4005,0.0,0.0,0.0,0.0,0.0,0.0,0.0,0.0,0.0,0.0,2.5712,2.5916,2.6055,2.4942,0.0,0.0,0.0,0.0,2.4709,0.0,0.0,3.0493,3.0697,3.1087,3.1775,3.1905,3.2295,3.3001,3.2295,3.3466,3.6352,3.5659,3.5343,3.5324,3.5213,3.4358,3.2946,3.2147,3.0995,2.9712,2.9712,2.9712,2.9712,2.9712,2.9712,2.9712,2.9601,3.0084,3.0734,3.0641,3.1125,0.0,0.0,0.0,3.0706,3.0817,3.1464,3.2355,3.34,3.6548,4.0176,4.2877,4.4223,4.4861,4.48,4.4846,4.4874,4.4812,4.4739,4.4612,4.4402,4.4346,4.4279,4.4033,4.4192,4.4346,4.4346,4.4346,4.4425,4.4682,4.4479,4.4346,4.4346,4.4346,4.425,4.402,4.4005,4.4005,4.4005,4.4005,4.4005,4.4005,4.4221,4.4236,4.4005,4.4236,4.4283,4.4184,4.4226,4.4226,4.4184,4.4226,4.4162,4.4005,4.4005,4.4005,4.4005,4.4005,4.4005,4.4005,4.4005,4.4005,4.4005,4.4005,4.4005,4.4005,0.0,0.0,0.0,0.0,0.0,0.0,0.0,0.0,0.0,0.0,0.0,2.5194,2.5943,2.4678,0.0,0.0,0.0,0.0,2.4986,2.6153,0.0,0.0,2.9935,3.0307,3.1106,3.1125,3.1292,3.1663,3.1292,3.2816,3.603,3.5677,3.5974,3.6798,3.59,3.4581,3.2927,3.1663,3.0456,2.9396,2.9396,3.0041,3.0854,2.9795,3.0041,3.0835,2.9785,2.9619,2.9927,2.993,3.0488,3.106,3.0337,0.0,0.0,0.0,3.0911,3.2034,3.4261,3.7021,3.9889,4.2506,4.3895,4.4739,4.5199,4.5333,4.5352,4.5304,4.5294,4.5184,4.4763,4.4676,4.4644,4.4516,4.4594,4.4682,4.4682,4.4682,4.4719,4.4827,4.4743,4.4688,4.4688,4.4676,4.4612,4.4457,4.4457,4.4374,4.4236,4.436,4.4374,4.4236,4.4479,4.4585,4.4511,4.4624,4.465,4.458,4.4618,4.4565,4.443,4.4453,4.4331,4.4119,4.4147,4.4147,4.4119,4.4119,4.407,4.4005,4.4005,4.4005,4.4005,4.4005,4.4005,4.4005,0.0,0.0,0.0,0.0,0.0,0.0,0.0,0.0,0.0,0.0,0.0,0.0,2.5572,0.0,0.0,0.0,0.0,0.0,2.5438,0.0,0.0,0.0,0.0,2.9452,3.027,3.0288,3.04,3.0604,3.04,3.2295,3.6105,3.59,3.7002,3.9064,3.7238,3.538,3.354,3.2128,3.105,3.0299,3.017,3.0949,3.21,3.1194,3.1732,3.2712,3.0838,3.0188,3.0113,2.9692,2.9982,3.0424,2.993,3.0208,0.0,0.0,0.0,3.1576,3.4552,3.6684,3.8706,4.1286,4.2864,4.4068,4.5121,4.5387,4.548,4.565,4.5704,4.5605,4.5194,4.5061,4.4979,4.4912,4.4957,4.5001,4.5001,4.5001,4.5042,4.5095,4.5033,4.4998,4.4992,4.4992,4.4947,4.483,4.4818,4.4745,4.454,4.472,4.4732,4.4521,4.4793,4.4912,4.49,4.4931,4.4947,4.4954,4.4965,4.4881,4.4733,4.4739,4.4597,4.4325,4.4314,4.427,4.4229,4.4229,4.4165,4.4085,4.4085,4.4085,4.4085,4.4085,4.407,4.4055,0.0,0.0,0.0,0.0,0.0,0.0,0.0,0.0,0.0,0.0,0.0,0.0,0.0,0.0,0.0,0.0,0.0,0.0,0.0,0.0,0.0,0.0,0.0,0.0,2.9434,2.9452,2.9842,3.0604,2.9842,3.2314,3.7764,3.6983,3.8748,4.2445,3.9993,3.7578,3.5306,3.4401,3.3559,3.2764,3.2256,3.21,3.2392,3.4132,3.4865,3.4721,3.2975,3.2341,3.2094,0.0,3.0007,3.0026,3.0004,3.0019,3.0049,0.0,0.0,0.0,3.2545,3.4307,3.6224,3.8916,4.0861,4.2541,4.4118,4.4576,4.4863,4.5569,4.5749,4.5786,4.5765,4.549,4.5207,4.4946,4.5116,4.5285,4.5285,4.5285,4.5361,4.5621,4.5426,4.5285,4.5285,4.5285,4.5176,4.4912,4.4901,4.489,4.4878,4.489,4.489,4.4878,4.5126,4.5147,4.4901,4.5033,4.5085,4.5096,4.515,4.5159,4.5074,4.5129,4.4996,4.4656,4.4407,4.43,4.4285,4.4285,4.4285,4.4285,4.4285,4.4285,4.4285,4.4285,4.424,4.4184,0.0,0.0,0.0,0.0,0.0,0.0,0.0,0.0,0.0,0.0,0.0,0.0,0.0,2.3972,2.3756,2.4026,0.0,0.0,0.0,0.0,0.0,0.0,0.0,0.0,0.0,2.9396,2.9527,2.9824,2.9527,3.1236,3.4767,3.4977,3.6179,3.8135,3.8804,3.8042,3.6154,3.4374,3.3163,3.2464,3.2959,3.3913,3.5037,3.507,3.5851,3.6665,3.4835,0.0,0.0,0.0,0.0,3.0856,3.0994,3.0644,3.0228,3.0344,3.0392,3.08,3.256,3.3467,3.4683,3.784,3.9515,4.0829,4.2472,4.3768,4.4664,4.4933,4.5418,4.58,4.5805,4.5708,4.5599,4.5494,4.5555,4.5615,4.5615,4.5615,4.5658,4.5757,4.5673,4.5626,4.5621,4.5613,4.556,4.5417,4.5408,4.5333,4.5176,4.5323,4.5333,4.5157,4.5417,4.5535,4.5481,4.5524,4.5549,4.5549,4.5566,4.5498,4.5362,4.5381,4.5264,4.5019,4.4915,4.4681,4.4354,4.4354,4.4344,4.43,4.43,4.43,4.43,4.43,4.4285,4.4255,0.0,0.0,0.0,0.0,0.0,0.0,0.0,0.0,0.0,2.4301,0.0,0.0,0.0,0.0,2.4621,2.4967,2.5016,2.5017,2.5048,0.0,0.0,0.0,0.0,0.0,0.0,2.9396,2.9396,2.9396,2.9396,3.0641,3.302,3.3559,3.4562,3.5956,3.7061,3.7267,3.6677,3.4892,3.3865,3.3515,3.434,3.5273,3.6231,3.6799,3.7615,3.8245,3.6695,0.0,0.0,0.0,0.0,3.2314,3.2145,3.1325,3.043,3.0559,3.0598,3.0849,3.1966,3.2469,3.3416,3.6568,3.7793,3.8882,4.1409,4.2686,4.3576,4.442,4.5026,4.5471,4.5749,4.5807,4.5807,4.5807,4.5807,4.5807,4.5807,4.5807,4.5807,4.5807,4.5807,4.5793,4.581,4.581,4.5776,4.5746,4.5727,4.5661,4.5479,4.5645,4.5653,4.5479,4.5634,4.5742,4.5803,4.5793,4.5807,4.5807,4.5807,4.573,4.5602,4.5602,4.5481,4.5294,4.5294,4.5019,4.4541,4.4541,4.4463,4.4373,4.4373,4.4373,4.4373,4.4373,4.4358,4.4329,0.0,0.0,0.0,0.0,0.0,0.0,0.0,0.0,2.576,2.5094,0.0,0.0,0.0,0.0,0.0,2.6551,2.6602,2.6623,2.6694,2.6718,0.0,0.0,0.0,0.0,2.9378,2.9396,2.9396,2.9396,2.9396,3.0604,3.289,3.2927,3.4228,3.6452,3.5056,3.5338,3.6817,3.604,3.5859,3.614,3.6449,3.6104,3.5818,3.94,4.0255,3.9423,3.8605,3.829,0.0,3.64,0.0,0.0,3.3358,3.1947,3.0636,3.0617,3.0617,3.0636,0.0,0.0,0.0,3.4949,3.5607,3.6709,4.0868,4.1255,4.1429,4.3982,4.4516,4.4775,4.5575,4.5729,4.5729,4.5768,4.5787,4.5807,4.5807,4.5807,4.5807,4.5807,4.5807,4.5807,4.5807,4.5807,4.5807,4.5807,4.5807,4.5807,4.5807,4.5807,4.5807,4.5807,4.5807,4.5807,4.5807,4.5807,4.5807,4.5807,4.5807,4.5807,4.5807,4.5807,4.5681,4.5498,4.5498,4.5255,4.4812,4.4812,4.4707,4.451,4.4496,4.4515,4.4515,4.4501,4.4473,4.4397,0.0,0.0,0.0,0.0,0.0,2.667,2.5903,2.5909,2.5745,0.0,0.0,0.0,2.5635,2.6081,2.6436,2.6591,2.6602,2.6612,2.6623,2.7261,2.7748,2.7991,2.8676,2.9155,2.9378,2.9396,2.9396,2.9396,2.9396,2.9731,3.04,3.0995,3.1685,3.2441,3.2662,3.3165,3.3804,3.3584,3.4579,3.6285,3.5998,3.6845,3.8381,3.9444,4.01,0.0,0.0,4.0578,4.0017,0.0,3.7967,3.5723,0.0,3.1831,3.1347,3.0772,3.1004,3.1347,3.0752,0.0,0.0,0.0,0.0,0.0,3.6884,3.8218,3.9475,4.1448,4.2318,4.2976,4.3827,4.3982,4.4194,4.4833,4.5413,4.5807,4.5807,4.5807,4.5807,4.5807,4.5807,4.5807,4.5807,4.5807,4.5807,0.0,4.5807,4.5807,4.5807,4.5807,4.5807,4.5807,4.5807,4.5807,4.5807,4.5807,4.5807,4.5807,4.5807,4.5807,4.5807,4.5807,4.5759,4.5723,4.5723,4.5558,4.5294,4.5161,4.5071,4.4992,4.4801,4.4726,4.4701,4.4546,4.4487,4.4468,0.0,0.0,0.0,0.0,0.0,2.7029,2.6315,2.6549,2.6578,0.0,0.0,0.0,2.6923,2.7846,2.8205,2.7655,2.7592,2.7592,2.7592,2.8132,2.8484,2.8505,2.9053,2.9376,2.9396,2.9451,2.9472,2.9472,2.9472,2.9522,2.9626,2.9998,3.0272,3.046,3.1022,3.1575,3.2076,3.1804,3.3149,3.5549,3.6331,3.7321,3.8479,3.9618,4.0139,0.0,0.0,0.0,4.0855,4.1184,3.934,0.0,3.4156,3.2933,3.2256,3.1773,3.1985,3.2237,3.1773,3.1985,3.2527,3.3247,0.0,0.0,3.6187,3.6961,3.7851,4.0294,4.1164,4.1874,4.3073,4.3305,4.3479,4.3982,4.4446,4.4987,4.571,4.5807,4.5807,4.5807,4.5807,4.5807,4.5807,4.5807,4.5807,4.5807,4.5807,4.5807,4.5807,4.5807,4.5807,4.5807,4.5807,4.5807,4.5807,4.5807,4.5807,4.5807,4.5807,4.5807,4.5807,4.5807,4.5807,4.5807,4.5807,4.5737,4.5618,4.549,4.5343,4.5191,4.503,4.4973,4.4938,4.472,4.4635,4.4608,0.0,0.0,2.6191,2.6725,2.735,2.769,2.7318,2.7675,2.7879,0.0,2.7935,2.8457,2.905,3.0259,3.0594,2.9495,2.9152,2.9042,2.9133,2.9111,2.9152,2.9189,2.9262,2.9344,2.9396,2.9522,2.9608,2.9608,2.9626,2.9715,2.9894,2.9725,2.9742,2.9934,3.0052,3.0543,3.1266,3.0859,3.2054,3.4417,3.6749,3.7469,3.7422,3.9779,4.0236,3.9849,4.1429,4.1545,4.1029,4.1661,3.9785,0.0,3.6013,3.4698,3.3474,3.3184,3.3242,3.3358,3.3146,3.3165,3.359,3.5046,3.4331,0.0,3.7071,3.6709,3.6593,3.9713,4.0371,4.0848,4.2434,4.2802,4.2879,4.2879,4.3034,4.375,4.5432,4.5671,4.571,4.5787,4.5807,4.5807,4.5807,4.5807,4.5807,4.5807,4.5807,4.5807,4.5807,4.5807,4.5807,4.5807,4.5807,4.5807,4.5807,4.5807,4.5807,4.5807,4.5807,4.5807,4.5807,4.5807,4.5807,4.5807,4.5807,4.5807,4.5807,4.5807,4.5594,4.5254,4.5253,4.5223,4.5192,4.4931,4.4837,4.4819,0.0,2.5079,2.5959,2.7347,2.7705,2.8179,2.9297,2.8642,2.8698,3.068,3.1682,3.2241,3.2372,3.175,3.1481,3.1867,3.0124,2.9262,2.9922,2.948,2.9178,2.92,2.9315,2.9386,2.9396,2.9522,2.9608,2.9608,2.9769,2.9861,2.9894,2.9861,2.9915,3.0066,3.0095,3.0285,3.0681,3.1954,3.317,3.4338,3.4849,3.6599,3.8968,3.9547,4.0081,4.0681,4.1641,4.1893,4.168,4.1203,4.012,3.8611,0.0,3.5916,3.5756,3.3706,3.4093,3.4891,3.3474,3.3615,3.406,3.3706,3.3886,0.0,3.4993,3.5433,3.6071,3.7386,3.7657,3.7986,3.9005,3.9765,4.0236,4.0236,4.1371,4.286,4.4601,4.4833,4.5065,4.5729,4.5807,4.5807,4.5807,4.5807,4.5807,4.5807,4.5807,4.5807,4.5807,4.5807,4.5807,4.5807,4.5807,4.5807,4.5807,4.5807,4.5807,4.5807,4.5807,4.5807,4.5807,4.5807,4.5807,4.5807,4.5807,4.5807,4.5807,4.5807,4.5752,4.5658,4.5498,4.5436,4.5418,4.5203,4.5118,4.5126,2.4987,2.5625,2.6424,2.7601,2.8128,2.8789,2.9939,2.9807,3.0073,3.1387,3.3054,3.3959,3.355,3.3319,3.3036,3.2619,3.1115,3.021,3.021,2.9883,2.9547,2.9207,2.933,2.9424,2.9492,2.9724,2.9848,2.9848,2.9954,3.0056,3.0147,3.0056,3.0324,3.0874,3.0433,3.0548,3.1087,3.1546,3.2494,3.3803,3.555,3.7525,3.9496,3.9978,4.0429,4.0919,4.1753,4.2061,4.1913,4.067,3.9679,0.0,3.7454,3.7027,3.6746,0.0,3.5655,3.6052,3.4752,3.4717,3.5046,3.5002,0.0,0.0,0.0,3.5336,3.553,3.7193,3.7193,3.7309,3.8605,3.8856,3.8992,3.9423,4.0216,4.1216,4.2512,4.3421,4.4272,4.5104,4.52,4.5355,4.5768,4.5807,4.5807,4.5807,4.5807,4.5807,4.5807,4.5807,4.5807,4.5807,4.5807,4.5807,4.5807,4.5807,4.5807,4.5807,4.5807,4.5807,4.5807,4.5807,4.5807,4.5807,4.5807,4.5807,4.5807,4.5807,4.5807,4.58,4.57,4.565,4.5626,4.5418,4.5343,4.5352,2.5866,2.6261,2.6808,2.7654,2.8467,2.9297,3.0176,3.07,3.115,3.1596,3.3951,3.5331,3.4677,3.4985,3.4867,3.3937,3.2538,3.1563,3.1243,3.0664,3.015,2.9746,2.9565,2.9608,2.9869,3.0038,3.0109,3.0109,3.0136,3.0241,3.0398,3.0241,3.0708,3.1677,3.096,3.1139,3.1894,3.1265,3.2053,3.3977,3.6812,3.8374,3.9114,4.0158,4.0557,4.0676,4.1578,4.193,4.1731,4.0208,3.9234,3.8594,3.8263,3.7896,0.0,0.0,0.0,3.7335,3.6469,3.6212,3.6348,0.0,0.0,3.5442,0.0,0.0,0.0,3.7346,3.7176,3.7107,3.8515,3.8338,3.8147,3.8688,3.9172,3.9636,4.0004,4.1506,4.2957,4.3982,4.4246,4.4601,4.5258,4.5168,4.5149,4.5304,4.5323,4.5401,4.5548,4.5729,4.5807,4.5807,4.5807,4.5807,4.5807,4.5807,4.5807,4.5807,4.5807,4.5807,4.5807,4.5807,4.5807,4.5807,4.5807,4.5807,4.5807,4.5807,4.5807,4.5807,4.5807,4.5807,4.5773,4.5618,4.5569,4.5524,2.5795,2.5886,2.63,2.7584,2.8467,2.9467,3.0852,3.0598,3.0969,3.3054,3.6069,3.7972,3.7888,3.6838,3.6744,3.8233,3.4965,3.3405,3.4822,3.2339,3.1052,3.1574,3.0415,3.0114,3.0911,3.0384,3.0109,3.0109,3.0286,3.0392,3.0404,3.0386,3.0834,3.1705,3.1594,3.1998,3.2769,3.2786,3.4174,3.6414,3.6855,3.711,3.7367,3.9017,3.9686,3.9858,4.0797,4.112,4.099,0.0,3.962,3.927,0.0,3.824,3.9098,3.7539,0.0,0.0,0.0,0.0,0.0,0.0,3.751,0.0,0.0,0.0,3.666,3.6175,0.0,3.5974,3.611,0.0,0.0,3.6231,3.803,3.8998,3.7541,3.8843,4.0526,4.2106,4.2976,4.3479,4.3576,4.2899,4.2744,4.3537,4.3576,4.3924,4.4697,4.5413,4.5807,4.5807,4.5807,4.5807,4.5807,4.5807,4.5807,4.5807,4.5807,4.5807,4.5807,4.5807,4.5807,4.5807,4.5807,4.5807,4.5807,4.5807,4.5807,4.5807,4.5807,4.5807,4.58,4.5766,4.5778,4.5759,2.6188,2.6225,2.6599,2.7619,2.8077,2.8958,3.0903,3.2619,3.4384,3.6306,3.7846,3.9022,3.9733,3.8544,3.807,3.9027,3.7543,3.6093,3.5057,3.4191,3.3265,3.2183,3.1643,3.1331,3.1279,3.1101,3.0785,3.0267,3.0361,3.0404,3.0404,3.0404,3.1127,3.2441,3.2453,3.3197,3.4442,3.4,3.4397,3.5402,3.6018,3.6251,3.6561,3.9277,4.0384,4.053,4.092,4.108,4.0978,0.0,3.9474,0.0,0.0,0.0,0.0,3.8603,0.0,0.0,0.0,0.0,0.0,0.0,0.0,0.0,3.672,0.0,3.6391,0.0,0.0,0.0,0.0,0.0,0.0,0.0,3.7356,3.7772,3.7005,3.7967,3.9379,4.11,0.0,0.0,4.2454,4.2202,4.2357,4.3227,4.2841,4.315,4.4536,4.4929,4.5316,4.5787,4.5807,4.5807,4.5807,4.5807,4.5807,4.5807,4.5807,4.5807,4.5807,4.5807,4.5807,4.5807,4.5807,4.5807,4.5807,4.5807,4.5807,4.5807,4.5807,4.5807,4.5807,4.5807,4.5807,4.5807,2.6399,2.6503,2.6757,2.7366,2.784,2.8926,3.1298,3.3926,3.6319,3.8164,3.8636,3.9334,4.0664,3.9981,3.9649,4.0179,3.9872,3.8721,3.654,3.614,3.5303,3.38,3.2999,3.2554,3.2513,3.1975,3.1391,3.075,3.0519,3.0404,3.0404,3.0404,3.121,3.2639,3.2883,3.3965,3.5568,3.4949,3.5102,3.58,3.6305,3.6816,3.7495,3.9742,4.0814,4.1091,4.1117,4.1168,4.1074,4.0195,3.9473,0.0,3.9414,0.0,3.8242,0.0,0.0,0.0,3.9166,0.0,0.0,0.0,0.0,0.0,0.0,0.0,0.0,0.0,0.0,0.0,0.0,0.0,0.0,0.0,0.0,3.7175,3.6649,3.7309,3.8315,3.9572,0.0,0.0,0.0,4.1235,4.1429,4.2531,4.1816,4.2067,4.3808,4.4342,4.4871,4.5452,4.5691,4.5807,4.5807,4.5807,4.5807,4.5807,4.5807,4.5807,4.5807,4.5807,4.5807,4.5807,4.5807,4.5807,4.5807,4.5807,4.5807,4.5807,4.5807,4.5807,4.5807,4.5807,4.5807,4.5807,2.6295,2.6416,2.6536,2.6623,2.7924,2.9852,3.2452,3.353,3.4918,3.731,3.8037,3.896,4.0626,4.1112,4.1783,4.2967,4.1824,4.1021,4.0989,3.8147,3.6734,3.7309,3.4431,3.3599,3.5339,3.2962,3.1698,3.166,3.0808,3.0404,3.0404,3.0404,3.0885,3.1775,3.262,3.3967,3.5597,3.5644,3.7109,3.9354,3.8619,3.9377,4.0852,0.0,4.0366,4.1112,4.117,0.0,0.0,4.0195,3.9883,0.0,0.0,0.0,0.0,0.0,0.0,0.0,0.0,0.0,0.0,3.9008,0.0,0.0,0.0,0.0,3.8282,0.0,0.0,0.0,0.0,0.0,0.0,0.0,0.0,0.0,0.0,3.6439,3.6961,3.7019,3.8495,3.9849,0.0,3.9301,3.903,0.0,4.0062,4.0313,4.199,4.3692,4.4613,4.4632,4.5394,4.5807,4.5807,4.5807,4.5807,4.5807,4.5807,4.5807,4.5807,4.5807,4.5807,4.5807,4.5807,4.5807,4.5807,4.5807,4.5807,4.5807,4.5807,4.5807,4.5807,4.5807,4.5807,4.5807,2.701,2.7536,2.7676,2.6774,2.7709,2.9747,3.3158,3.4762,3.6574,3.93,3.9835,4.0608,4.2336,4.2369,4.2493,4.3085,4.3391,4.2936,4.1491,4.0397,3.9431,3.8605,3.7546,3.6773,3.6308,3.5442,3.4468,3.3353,3.2487,3.2045,3.2045,3.15,3.1698,3.2526,3.3448,3.4834,3.6498,3.7147,3.7961,3.8801,3.8569,3.9554,4.113,0.0,4.0915,4.1169,4.1191,4.1191,0.0,4.0859,4.0371,3.9941,4.0234,3.9726,3.9258,4.037,4.0526,0.0,0.0,0.0,4.0836,3.9733,0.0,0.0,0.0,0.0,0.0,0.0,0.0,0.0,0.0,0.0,0.0,0.0,0.0,0.0,0.0,3.6299,3.6303,3.6845,3.8437,3.9152,3.8295,3.8721,3.9307,3.9907,3.9675,0.0,4.1912,4.257,4.3421,4.4555,4.4871,4.5258,4.5787,4.5807,4.5807,4.5807,4.5807,4.5807,4.5807,4.5807,4.5807,4.5807,4.5807,4.5807,4.5807,4.5807,4.5807,4.5807,4.5807,4.5807,4.5807,4.5807,4.5807,4.5807,2.7755,2.8364,2.8618,2.7742,2.8934,3.1028,3.4025,3.5712,3.7625,4.0343,4.0756,4.1495,4.3348,4.3373,4.338,4.3683,4.4492,4.4124,4.2096,4.1953,4.1389,4.0089,3.9725,3.9095,3.8065,3.7469,3.6334,3.4661,3.3795,3.3199,3.2872,3.2083,3.1987,3.2506,3.3397,3.4803,3.6588,3.7797,3.8715,3.9403,3.9442,4.0154,0.0,0.0,4.1191,4.1191,0.0,4.1191,4.1191,4.1191,4.082,4.0469,4.1016,4.043,3.9746,4.082,4.0761,4.0467,4.0973,4.111,0.0,4.0107,3.9696,0.0,3.8026,0.0,3.9704,0.0,0.0,0.0,0.0,0.0,0.0,3.8611,0.0,0.0,0.0,3.6047,3.5897,3.6419,3.7715,3.8379,3.787,3.8276,3.8959,3.9887,3.9385,3.9785,0.0,4.1835,4.2512,4.3634,4.4284,4.4852,4.5374,4.5671,4.5807,4.5807,4.5807,4.5807,4.5807,4.5807,4.5807,4.5807,4.5807,4.5807,4.5807,4.5807,4.5807,4.5807,4.5807,4.5807,4.5807,4.5807,4.5807,4.5807,2.8481,2.9007,2.9471,2.961,3.1399,3.3378,3.504,3.6322,3.7978,4.0396,4.0792,4.1632,4.359,4.4114,4.4443,4.4763,4.5109,4.4609,4.3023,4.2889,4.2556,4.1853,4.102,4.0592,4.0554,3.8988,3.7353,3.5615,3.4757,3.3872,3.3006,3.2199,3.1795,3.1795,3.2609,3.4022,3.5911,3.7598,3.9427,4.1191,4.1191,4.1191,4.1191,4.123,4.1269,4.1269,4.1269,4.1289,4.1328,4.1269,4.1289,4.1308,4.123,4.123,4.125,4.1211,4.1191,4.1191,4.1112,4.109,4.0912,4.0146,0.0,0.0,0.0,0.0,4.2162,0.0,0.0,0.0,0.0,0.0,0.0,3.8905,3.8535,0.0,0.0,3.582,3.582,3.582,3.6497,3.758,3.9152,3.7928,3.8044,4.0487,3.9185,3.9011,4.0719,4.1487,4.1912,4.2009,4.3614,4.4516,4.4594,4.5355,4.5768,4.5807,4.5807,4.5807,4.5807,4.5807,4.5807,4.5807,4.5807,4.5807,4.5807,4.5807,4.5807,4.5807,4.5807,4.5807,4.5807,4.5807,4.5807,4.5807,2.9721,3.1411,3.2784,3.28,3.2376,3.3044,3.6073,3.6866,3.7976,4.0445,4.1405,4.2376,4.3796,4.4188,4.4479,4.4776,4.5109,4.5116,4.4685,4.4055,4.3655,4.355,4.3349,4.2665,4.1489,4.1046,3.97,3.7353,3.6488,3.5641,3.4808,3.3968,3.3199,3.2628,3.3533,3.4623,3.5918,3.7645,3.944,4.1132,4.1172,4.1191,4.1269,0.0,4.209,4.209,4.209,4.2519,4.2969,4.2305,4.2519,4.2832,4.1582,4.1601,4.1973,4.1387,4.1191,4.1191,4.1172,4.1172,4.1112,4.0854,4.0499,4.0242,0.0,0.0,0.0,0.0,0.0,0.0,0.0,0.0,0.0,0.0,3.9825,0.0,0.0,3.756,3.756,3.756,3.7729,3.756,3.6754,3.7972,3.8837,3.8876,3.905,3.9636,4.0739,0.0,4.0719,4.1951,4.2434,4.3285,4.4594,4.4794,4.52,4.5807,4.5807,4.5807,4.5807,4.5807,4.5807,4.5807,4.5807,4.5807,4.5807,4.5807,4.5807,4.5807,4.5807,4.5807,4.5807,4.5807,4.5807,4.5807,3.1356,3.3371,3.5059,3.5277,3.4909,3.5257,3.7245,3.7891,3.8793,4.0571,4.1721,4.2694,4.3528,4.4177,4.4688,4.4981,4.5184,4.5144,4.4762,4.4628,4.4448,4.4174,4.4528,4.4153,4.2917,4.2549,4.1296,3.9084,3.7873,3.6654,3.5481,3.4603,3.3557,3.2474,3.3743,3.4872,3.6006,3.851,3.9964,4.0641,4.1405,4.1718,0.0,4.2656,4.3203,4.3535,4.3535,4.3613,4.3633,4.3125,4.3281,4.3535,4.2598,4.2344,4.2305,4.1855,4.1484,4.1191,4.1191,4.1172,4.1152,4.111,4.1322,4.1574,4.1647,4.2347,4.2972,0.0,0.0,0.0,0.0,0.0,0.0,0.0,0.0,0.0,0.0,0.0,3.8057,3.7671,3.7961,3.7541,3.5858,3.7315,3.8315,3.8212,3.8644,3.9307,0.0,0.0,4.0507,4.1448,4.1816,4.2473,4.346,4.4226,4.4833,4.5278,4.5633,4.5807,4.5807,4.5807,4.5807,4.5807,4.5807,4.5807,4.5807,4.5807,4.5807,4.5807,4.5807,4.5807,4.5807,4.5807,4.5807,4.5807,3.3124,3.5011,3.6629,3.6948,3.7802,3.8503,3.8611,3.923,4.0009,4.0878,4.1997,4.2857,4.318,4.4126,4.4887,4.5213,4.5267,4.4972,4.4216,4.4876,4.5003,4.4297,4.4988,4.5045,4.4323,4.3502,4.2181,4.0335,3.8777,3.7077,3.5301,3.4558,3.3419,3.2048,3.3626,3.5057,3.6456,3.9614,4.0677,4.0345,4.1813,4.2478,4.2674,4.3535,4.4336,4.5019,4.5137,4.4687,4.4023,4.3906,4.3945,4.4004,4.3769,4.3262,4.2715,4.2598,4.1992,4.1367,4.1367,4.125,4.1112,4.1092,4.2242,4.3196,4.2553,4.2982,4.3567,4.3684,4.2396,4.1498,0.0,0.0,0.0,0.0,0.0,0.0,0.0,0.0,3.8239,3.7356,3.8028,0.0,0.0,3.6593,3.7348,3.798,3.8019,0.0,0.0,0.0,4.0565,4.0797,4.1487,4.1893,4.2009,4.3614,4.4478,4.4613,4.5434,4.5834,4.5834,4.5835,4.5835,4.5834,4.5834,4.5821,4.5807,4.5807,4.5807,4.5807,4.5807,4.5814,4.5815,4.5814,4.5814,4.5815,3.4606,3.6414,3.769,3.7105,3.8274,3.9539,4.0244,4.0583,4.1034,4.1839,4.2746,4.3478,4.3813,4.4228,4.4572,4.4856,4.5132,4.525,4.5086,4.522,4.5251,4.5168,4.5323,4.5045,4.4323,4.3502,4.1896,3.9431,3.8473,3.6743,3.4332,3.4306,3.3776,3.2914,3.405,3.588,3.8216,3.9556,4.0828,4.2,4.2277,4.2828,4.3572,4.4432,4.4863,4.5098,4.5801,4.5976,4.5723,4.5019,4.5254,4.5586,4.4141,4.4082,4.4394,4.3672,4.2851,4.2187,4.2187,4.1699,4.1172,4.1112,4.1326,4.1696,4.2279,4.2512,4.2825,4.3547,4.2886,4.2223,4.2376,0.0,0.0,0.0,0.0,0.0,0.0,0.0,4.0175,3.9247,3.9893,3.9432,0.0,0.0,0.0,3.7174,3.7135,3.7812,0.0,0.0,3.9301,0.0,4.0951,4.1332,0.0,0.0,4.3885,4.462,4.553,4.595,4.5975,4.6022,4.6017,4.595,4.595,4.5892,4.5807,4.5807,4.5807,4.5807,4.5807,4.588,4.5958,4.5848,4.588,4.5958,3.7649,3.8671,3.9296,3.8983,3.9958,4.0955,4.1459,4.1946,4.2272,4.2203,4.2682,4.3161,4.3498,4.418,4.4733,4.5034,4.5213,4.5307,4.5307,4.5307,4.5317,4.5338,4.538,4.5227,4.4882,4.3705,4.2481,4.1215,0.0,3.7115,3.5448,3.5127,3.4313,3.324,3.5143,3.6721,3.8064,4.0273,0.0,4.1837,4.3209,4.3994,4.4466,4.5349,4.5663,4.5722,4.6152,4.6308,4.623,4.582,4.5957,4.6152,4.5312,4.5039,4.4922,4.4492,4.3769,4.3066,4.3066,4.2793,4.248,4.2461,4.2441,4.2558,4.2987,4.2713,4.2518,4.2947,4.2362,4.1777,4.1776,4.1406,0.0,0.0,0.0,0.0,0.0,0.0,4.0669,3.9762,4.0416,3.9898,0.0,0.0,0.0,3.6386,3.6671,3.7464,3.876,0.0,3.9475,0.0,0.0,0.0,4.1427,0.0,4.3612,4.4059,4.5395,4.6059,4.6039,4.6084,4.608,4.6059,4.6059,4.6012,4.5968,4.5968,4.5968,4.5968,4.5968,4.5998,4.6035,4.5988,4.5998,4.6041,4.0275,4.0601,4.0781,4.0723,4.1447,4.2081,4.2186,4.2949,4.3242,4.2585,4.2656,4.2922,4.3245,4.4137,4.4843,4.5173,4.5256,4.5307,4.5307,4.5307,4.5307,4.5307,4.537,4.54,4.54,4.4062,4.3181,0.0,0.0,0.0,0.0,3.5877,3.4971,3.3894,3.6243,0.0,0.0,0.0,4.2045,4.2105,4.4179,4.512,4.5357,4.6048,4.6306,4.6307,4.6308,4.6308,4.6308,4.6308,4.6308,4.6308,4.6308,4.582,4.5273,4.5273,4.4668,4.3984,4.3984,4.3848,4.3691,4.3691,4.3555,4.3418,4.3418,4.2754,4.2148,4.2148,4.1641,4.1191,4.1191,4.1168,0.0,0.0,0.0,0.0,0.0,0.0,4.0702,3.9828,4.0309,3.9808,3.7514,0.0,0.0,0.0,0.0,3.7096,3.8135,3.8856,3.9713,0.0,0.0,4.0907,4.0907,0.0,4.3491,4.353,4.5277,4.6122,4.6122,4.6137,4.6137,4.6122,4.6122,4.6115,4.6098,4.6098,4.6098,4.6098,4.6098,4.6109,4.6122,4.6105,4.6109,4.6105,4.0744,4.1269,4.1559,4.09,4.155,4.2186,4.2186,4.2949,4.3461,4.3387,4.3403,4.3537,4.3875,4.4223,4.4546,4.4831,4.5121,4.5307,4.5307,4.5307,4.5307,4.5307,4.537,4.54,4.54,4.46,4.3415,0.0,0.0,3.8646,3.5516,3.5634,3.5703,0.0,0.0,0.0,0.0,4.109,4.2533,4.466,4.4894,4.5465,4.6195,4.6274,4.6301,4.6307,4.6307,4.6308,4.6308,4.6308,4.6308,4.6308,4.6308,4.623,4.6172,4.6172,4.5566,4.4883,4.4883,4.4297,4.3691,4.3691,4.3105,4.2519,4.2519,4.1894,4.1308,4.1308,4.125,4.1191,4.1191,4.1191,4.1191,0.0,0.0,0.0,0.0,0.0,4.0773,3.9896,3.9754,3.9346,3.836,3.7529,0.0,0.0,3.6212,3.6516,3.8115,3.827,3.9088,4.0758,4.0872,4.0907,4.0907,4.2634,4.3491,4.351,4.5341,4.6197,4.6199,4.6244,4.6243,4.6197,4.6197,4.6153,4.6098,4.6098,4.6098,4.6098,4.6098,4.6137,4.6173,4.6125,4.6139,4.6171,4.2232,4.2067,0.0,0.0,0.0,0.0,0.0,4.3278,4.3515,4.3515,4.3682,4.3923,4.4206,4.4465,4.477,4.5057,4.5224,4.5307,4.5307,4.5307,4.5317,4.5348,4.539,4.5419,4.5448,4.4705,4.3962,0.0,0.0,3.9841,3.8556,3.7666,0.0,0.0,0.0,4.0444,4.1947,4.3001,4.4036,4.5049,4.5578,4.5989,4.6306,4.6291,4.6296,4.6301,4.6303,4.6306,4.6308,4.6308,4.6308,4.6308,4.6308,4.6308,4.6308,4.6308,4.6055,4.5781,4.5781,4.5527,4.5254,4.5254,4.4609,4.3828,4.3301,4.2539,4.1777,4.1308,4.1191,4.1191,4.1191,4.1191,4.1191,0.0,0.0,0.0,0.0,0.0,0.0,4.068,4.0588,4.0219,3.9336,3.8371,0.0,0.0,0.0,3.6207,3.7367,3.7942,3.8816,4.0033,0.0,4.1014,4.1014,4.2742,4.3616,4.3636,4.5402,4.6265,4.6265,4.6289,4.6288,4.6265,4.6265,4.6241,4.6213,4.6213,4.6213,4.6213,4.6213,4.6239,4.6264,4.6237,4.6239,4.6264,4.3477,0.0,4.2897,0.0,4.3217,4.3047,4.3668,4.3697,4.3682,4.3761,4.3968,4.4177,4.4388,4.4637,4.4934,4.5267,4.5307,4.5307,4.5307,4.5307,4.5328,4.5398,4.54,0.0,4.5504,4.4972,4.4566,4.4297,4.2545,4.147,4.1054,3.9713,0.0,0.0,4.1205,4.2103,4.3255,4.4483,4.5148,4.5441,4.6046,4.63,4.6302,4.6306,4.6291,4.6294,4.6297,4.6302,4.6306,4.6306,4.6307,4.6308,4.6308,4.6308,4.6308,4.6308,4.6308,4.6308,4.6308,4.6308,4.6308,4.6308,4.5644,4.4844,4.4219,4.3203,4.2168,4.1367,4.1191,4.1191,4.1191,4.1191,4.1191,4.1191,0.0,0.0,0.0,4.1171,0.0,4.1191,4.0934,4.0616,4.0243,3.9115,0.0,0.0,0.0,0.0,0.0,0.0,0.0,0.0,0.0,0.0,4.1109,4.2829,4.3691,4.3711,4.5469,4.6308,4.6308,4.6308,4.6308,4.6308,4.6308,4.6308,4.6308,4.6308,4.6308,4.6308,4.6308,4.6308,4.6308,4.6308,4.6308,4.6308,4.4169,4.4289,4.4303,4.4369,4.4383,4.4383,4.4402,4.4147,4.4094,4.436,4.4383,4.4402,4.4397,4.4637,4.4934,4.5267,4.5307,4.5307,4.5307,4.5307,4.5328,0.0,0.0,4.5429,4.5504,4.5568,4.5171,4.4297,0.0,0.0,4.197,0.0,4.1462,4.2376,4.2376,4.3352,4.4971,4.499,4.55,4.628,4.63,4.63,4.63,4.63,4.6306,4.6293,4.6293,4.6297,4.6301,4.6301,4.6305,4.6307,4.6308,4.6308,4.6308,4.6308,4.6308,4.6308,4.6308,4.6308,4.6308,4.6308,4.5644,4.5,4.498,4.3633,4.2168,4.1367,4.1191,4.1191,4.1191,4.1191,4.1191,4.1191,0.0,0.0,0.0,4.1144,0.0,4.1191,4.032,4.0108,4.1093,3.9502,0.0,0.0,0.0,0.0,0.0,0.0,0.0,4.0932,4.1068,0.0,4.1109,4.2829,4.3691,4.3711,4.5469,4.6308,4.6308,4.6308,4.6308,4.6308,4.6308,4.6308,4.6308,4.6308,4.6308,4.6308,4.6308,4.6308,4.6308,4.6308,4.6308,4.6307,4.4332,4.4374,4.4369,4.4402,4.4397,4.4397,4.4397,4.4332,4.4303,4.4402,4.4559,4.4676,4.4676,4.4946,4.5184,0.0,4.5307,4.5307,0.0,4.5338,4.5379,4.54,4.5429,4.5504,4.5568,4.5586,4.546,4.519,0.0,0.0,0.0,4.2914,4.3324,4.417,4.417,4.4816,4.589,4.589,4.6046,4.63,4.63,4.63,4.63,4.63,4.6302,4.6305,4.6305,4.629,4.6296,4.6296,4.63,4.6304,4.6305,4.6307,4.6308,4.6308,4.6308,4.6308,4.6308,4.6308,4.6308,4.6308,4.6094,4.5723,4.5137,4.4101,4.3203,4.2969,4.2891,4.2891,4.2891,4.2891,4.2715,4.2109,4.2012,0.0,4.1289,0.0,4.1171,4.1191,4.0915,4.0855,4.1172,4.0085,0.0,0.0,0.0,0.0,0.0,0.0,0.0,0.0,4.1357,0.0,4.199,4.3711,4.459,4.4609,4.5742,4.6308,4.6308,4.6308,4.6308,4.6308,4.6308,4.6308,4.6308,4.6308,4.6308,4.6308,4.6308,4.6308,4.6308,4.6308,4.6306,4.6304,4.4695,4.4752,4.4752,4.4752,4.4752,4.4752,4.4752,4.4643,4.4604,4.472,4.4782,4.4856,4.4969,4.5173,0.0,4.5307,4.5307,4.5307,4.5307,4.5359,4.5409,4.54,4.5457,4.5522,4.5594,4.5594,0.0,4.5594,4.5206,4.4885,4.4618,4.4669,4.4972,4.55,4.55,4.5792,4.63,4.63,4.63,4.63,4.63,4.63,4.63,4.63,4.63,4.63,4.63,4.6303,4.6308,4.6308,4.6294,4.6299,4.6299,4.6304,4.6307,4.6308,4.6308,4.6308,4.6308,4.6308,4.6308,4.6308,4.6308,4.6074,4.5195,4.457,4.4101,4.3769,4.3691,4.3691,4.3691,4.3691,4.3418,4.2539,4.2402,4.2129,4.1308,0.0,4.1191,0.0,0.0,0.0,0.0,4.0661,4.0558,0.0,0.0,0.0,0.0,0.0,0.0,4.0324,4.1679,4.2402,4.2402,4.4121,4.5,4.5019,4.5878,4.6307,4.6307,4.6307,4.6307,4.6307,4.6307,4.6308,4.6308,4.6306,4.6307,4.6308,4.6306,4.6305,4.6305,4.6305,4.6303,4.6299,4.5235,4.5307,4.5307,0.0,4.5307,0.0,4.5307,4.5034,4.4946,4.5256,4.5034,4.4957,4.5275,4.5307,4.5307,4.5307,0.0,0.0,0.0,4.5369,4.5419,4.541,4.5476,4.555,4.5594,4.5594,4.5603,4.561,4.5809,4.6041,4.63,4.63,4.63,4.63,4.63,4.63,4.63,4.63,4.63,4.63,4.63,4.63,4.63,4.63,4.63,4.63,4.63,4.63,4.63,4.63,4.6306,4.6293,4.6293,4.6296,4.6302,4.6306,4.6308,4.6308,4.6308,4.6308,4.6308,4.6308,4.6308,4.6094,4.5273,4.5098,4.4863,4.4043,4.3887,4.3887,4.3887,4.3887,4.3574,4.2637,4.248,4.2187,4.1328,4.1191,4.1191,0.0,0.0,0.0,4.1211,4.125,4.1289,0.0,0.0,0.0,0.0,0.0,4.0449,4.1269,4.2129,4.2578,4.2578,4.4257,4.5096,4.5095,4.5913,4.6301,4.6301,4.6301,4.6301,4.6301,4.6301,4.6304,4.6306,4.6303,4.6304,4.6306,4.6303,4.6301,4.6301,4.6301,4.6297,4.6293,0.0,0.0,4.5307,4.5307,4.5307,4.5307,4.5307,4.5235,4.5205,4.5297,4.5235,4.5205,4.5297,4.5338,4.5388,4.5388,4.5388,4.5388,4.5388,4.5438,4.5467,4.5485,4.5531,4.5577,4.5594,4.5594,4.5688,4.5834,4.5878,4.6041,4.63,4.63,4.63,4.63,4.63,4.63,4.63,4.63,4.63,4.63,4.63,4.63,4.63,4.63,4.63,4.63,4.63,4.63,4.63,4.63,4.6302,4.6303,4.6303,4.6309,4.6297,4.6305,4.6307,4.6308,4.6308,4.6308,4.6308,4.6308,4.6308,4.625,4.6035,4.5996,4.5937,4.5723,4.5683,4.5683,4.5683,4.5683,4.5176,4.3633,4.3398,4.2871,4.1406,4.1191,4.1191,0.0,4.1738,4.1875,4.1269,4.1758,4.2129,0.0,0.0,4.1465,4.207,4.1914,4.1894,4.2109,4.3594,4.4375,4.4374,4.5448,4.5993,4.5991,4.6205,4.6301,4.6301,4.6301,4.6301,4.6301,4.6301,4.6302,4.6303,4.6297,4.6299,4.6303,4.6297,4.6295,4.6295,4.6295,4.6291,4.6303,4.5307,4.5307,4.5307,4.5307,4.5307,4.5307,4.5307,4.5307,4.5307,4.5307,4.5328,4.5338,4.5338,4.537,4.54,4.54,4.54,4.54,4.54,4.5457,4.5504,4.5504,4.5568,4.5594,4.5594,4.5594,4.5708,4.5899,4.5899,4.6041,4.63,4.63,4.63,4.63,4.63,4.63,4.63,4.63,4.63,4.63,4.63,4.63,4.63,4.63,4.63,4.63,4.63,4.63,4.63,4.63,4.63,4.63,4.63,4.6303,4.629,4.63,4.6304,4.6306,4.6308,4.6308,4.6308,4.6308,4.6308,4.6308,4.6308,4.6308,4.6308,4.6308,4.6308,4.6308,4.6308,4.6308,4.5723,4.3984,4.3691,4.3105,4.1445,4.1191,4.1348,4.1699,4.2129,4.2383,4.2344,4.2734,4.2988,4.2988,4.2598,0.0,4.2969,4.3379,4.3222,4.2421,4.4082,4.4999,4.4996,4.5854,4.63,4.6294,4.6294,4.6294,4.6294,4.6294,4.6294,4.6294,4.6294,4.6295,4.6297,4.6291,4.6293,4.6297,4.6291,4.6308,4.6308,4.6308,4.6305,4.63,4.5307,4.5307,4.5307,4.5307,4.5307,4.5307,4.5307,4.5307,4.5317,4.5317,4.5473,4.5609,4.5609,4.5716,4.5745,4.563,4.5726,4.5697,4.5438,4.5485,4.5513,4.5513,4.5568,4.5594,4.5594,4.5594,4.5708,4.5899,4.5899,4.6041,4.63,4.63,4.63,4.63,4.63,4.63,4.63,4.63,4.63,4.63,4.63,4.63,4.63,4.63,4.63,4.63,4.63,4.63,4.63,4.63,4.63,4.63,4.63,4.63,4.6302,4.6309,4.6295,4.6301,4.6306,4.6307,4.6307,4.6308,4.6308,4.6308,4.6308,4.6308,4.6308,4.6308,4.6308,4.6308,4.6308,4.6308,4.5723,4.3984,4.3691,4.3105,4.1445,0.0,4.1621,4.2324,4.2637,4.3027,4.3633,4.3828,4.3906,4.3906,4.3769,4.3769,4.3887,4.4608,4.4314,4.2848,4.4353,4.5191,4.5207,4.5924,4.6308,4.63,4.63,4.63,4.63,4.63,4.63,4.63,4.63,4.6305,4.6291,4.6303,4.6305,4.6291,4.6303,4.63,4.63,4.63,4.63,4.63,4.5307,4.5307,4.5307,4.5307,4.5307,4.5307,4.5307,4.5338,4.5369,4.5369,4.6032,4.6502,4.6502,4.7204,4.7386,4.6657,4.7271,4.7069,4.5591,4.5559,4.5586,4.5586,4.5586,4.5594,4.5594,4.5594,4.5708,4.5899,4.5899,4.6041,4.63,4.63,4.63,4.63,4.63,4.63,4.63,4.63,4.63,4.63,4.63,4.63,4.63,4.63,4.63,4.63,4.63,4.63,4.63,4.63,4.63,4.63,4.63,4.63,4.63,4.6302,4.6303,4.6309,4.6305,4.6308,4.6308,4.6308,4.6308,4.6308,4.6308,4.6308,4.6308,4.6308,4.6308,4.6308,4.6308,4.6308,4.5723,4.3984,4.3691,4.3105,4.1445,0.0,4.2266,4.2383,4.3691,4.4355,4.3769,4.4375,4.4805,4.4805,4.4121,4.4022,4.4764,4.4937,4.4875,4.4616,4.5578,4.6105,4.6099,4.6228,4.6302,4.63,4.63,4.63,4.63,4.63,4.63,4.63,4.63,4.6302,4.6302,4.6302,4.6302,4.6302,4.6302,4.63,4.63,4.63,4.63,4.63,4.5307,4.5307,4.5307,4.5307,4.5338,4.5359,4.5348,4.537,4.5563,4.6032,4.6484,4.6935,4.7395,4.7847,4.7933,4.7549,4.7875,4.7769,4.6962,4.6519,4.6297,4.6297,4.6297,4.649,4.6932,4.6951,4.6791,4.6494,4.656,4.6459,4.6184,4.6271,4.63,4.63,4.6305,4.6308,4.6327,4.68,4.6997,4.7036,4.752,4.7692,4.7692,4.7668,4.7647,4.7647,4.7647,4.7647,4.7647,4.7647,4.7647,4.7569,4.7139,4.7002,4.6905,4.6436,4.6303,4.6291,4.6302,4.6307,4.6308,4.6308,4.6308,4.6308,4.6308,4.6308,4.6308,4.6308,4.6308,4.6308,4.6308,4.6308,4.5879,4.4609,4.4394,0.0,0.0,4.2871,4.3262,4.373,4.4512,4.5039,4.5098,4.5469,4.5703,4.5703,4.5331,4.5271,4.568,4.5695,4.569,4.5707,4.6097,4.629,4.6306,4.6303,4.63,4.63,4.63,4.63,4.63,4.63,4.63,4.63,4.63,4.63,4.63,4.63,4.63,4.63,4.63,4.63,4.63,4.63,4.63,4.63,4.5307,4.5317,4.5317,4.5317,4.5379,4.5476,4.5677,4.5716,4.6033,4.6915,4.7242,4.7665,4.8337,4.8587,4.8625,4.8413,4.8586,4.8529,4.8125,4.7721,4.7394,4.7192,4.7173,4.7471,4.8086,4.8105,4.7846,4.7351,4.7447,4.7232,4.6755,4.6858,4.6892,4.6894,4.6899,4.69,4.6941,4.7628,4.7904,4.7961,4.8621,4.8892,4.8891,4.8847,4.8825,4.8825,4.8825,4.8823,4.8821,4.8821,4.88,4.8681,4.8076,4.7881,4.7766,4.7104,4.6758,4.655,4.6359,4.6305,4.6307,4.6308,4.6308,4.6308,4.6308,4.6308,4.6308,4.6308,4.6308,4.6308,4.6308,4.6308,4.6016,4.5137,0.0,0.0,0.0,4.3867,4.4258,4.4922,4.5176,4.5566,4.623,4.6308,4.6308,4.6307,4.6306,4.6305,4.6301,4.6294,4.629,4.629,4.6303,4.63,4.63,4.63,4.63,4.63,4.63,4.63,4.63,4.63,4.63,4.63,4.63,4.63,4.63,4.63,4.63,4.63,4.63,4.63,4.63,4.63,4.63,4.63,4.5307,4.5348,4.5398,4.5398,4.5409,4.5669,4.6483,4.6666,4.7002,4.7876,4.8702,4.924,4.9298,5.001,5.0183,4.9375,5.0029,4.9817,4.8221,4.8798,4.8856,4.8048,4.8009,4.8048,4.8105,4.8105,4.8202,4.8394,4.8393,4.8503,4.869,4.8699,4.8703,4.8703,4.8703,4.8703,4.8703,4.8782,4.8802,4.8802,4.8879,4.8899,4.8899,4.8899,4.8899,4.8899,4.8899,4.8895,4.8888,4.8888,4.8844,4.8798,4.872,4.8745,4.879,4.8732,4.8132,4.7336,4.6516,4.6305,4.6307,4.6308,4.6308,4.6308,4.6308,4.6308,4.6308,4.6308,4.6308,4.6308,4.6308,4.6308,4.6016,4.5137,0.0,0.0,4.3828,4.4394,4.4922,4.498,4.5703,4.623,4.6289,4.6308,4.6308,4.6307,4.6305,4.63,4.6294,4.6306,4.6302,4.6302,4.6302,4.63,4.63,4.63,4.63,4.63,4.63,4.63,4.63,4.63,4.63,4.63,4.63,4.63,4.63,4.63,4.63,4.63,4.63,4.63,4.63,4.63,4.63,4.63,4.5348,4.5379,4.5409,4.539,4.5467,4.5792,4.6638,4.6829,4.7347,4.8731,4.9192,4.9606,5.0144,5.05,5.0577,5.025,5.0519,5.0423,4.976,5.001,4.9817,4.8933,4.9413,4.9702,4.9702,4.9791,4.9614,4.9168,4.9314,4.9159,4.8788,4.8853,4.89,4.89,4.8902,4.8903,4.8942,4.9471,4.9706,4.9745,5.0251,5.0446,5.0446,5.0443,5.0441,5.0441,5.0441,5.044,5.0458,5.0458,5.0437,5.0317,4.9771,4.9616,4.956,4.9052,4.8663,4.8334,4.8004,4.7127,4.6307,4.6308,4.6308,4.6308,4.6308,4.6308,4.6308,4.6308,4.6308,4.6308,4.6308,4.6308,4.6191,4.5859,0.0,4.5683,4.5351,4.5605,4.5801,4.5801,4.6094,4.6308,4.6308,4.6308,4.6307,4.6305,4.63,4.6294,4.6306,4.6302,4.63,4.63,4.63,4.63,4.63,4.63,4.63,4.63,4.63,4.63,4.63,4.63,4.63,4.63,4.63,4.63,4.63,4.63,4.63,4.63,4.63,4.63,4.63,4.63,4.63,4.63,4.5475,4.5457,4.5534,4.5879,4.5986,4.6383,4.7516,4.7715,4.8235,4.9634,4.9835,5.0085,5.0635,5.0712,5.0712,5.0712,5.0712,5.0712,5.0712,5.073,5.0489,4.9846,5.0385,5.0712,5.0712,5.0833,5.0618,5.0035,5.0224,5.0057,4.956,4.964,4.9684,4.9684,4.9686,4.9687,4.9726,5.0312,5.0586,5.0625,5.1171,5.1405,5.1405,5.1404,5.1402,5.1402,5.1402,5.1402,5.1401,5.1401,5.14,5.1301,5.0695,5.0501,5.0346,4.9547,4.9313,4.9255,4.8964,4.8027,4.705,4.6777,4.6504,4.6308,4.6308,4.6308,4.6308,4.6308,4.6308,4.6308,4.6308,4.6308,4.6308,4.6308,4.6308,4.6308,4.6308,4.6308,4.6308,4.6308,4.6308,4.6308,4.6308,4.6307,4.6305,4.63,4.6295,4.6309,4.6302,4.63,4.63,4.63,4.63,4.63,4.63,4.63,4.63,4.63,4.63,4.63,4.63,4.63,4.63,4.63,4.63,4.63,4.63,4.63,4.63,4.63,4.63,4.63,4.63,4.63,4.63,4.63,4.5694,4.5602,4.5858,4.6906,4.7005,4.7523,4.9324,4.9606,4.9872,5.0606,5.0827,5.085,5.0721,5.0693,5.0693,5.0693,5.0693,5.0693,5.0693,5.0836,5.0841,5.0702,5.0693,5.0693,5.0693,5.0827,5.0927,5.1,5.1138,5.1265,5.1405,5.1406,5.1406,5.1406,5.1406,5.1406,5.1406,5.1406,5.1406,5.1406,5.1406,5.1406,5.1406,5.1406,5.1406,5.1406,5.1406,5.1406,5.1405,5.1405,5.1402,5.1398,5.1398,5.1402,5.1249,5.0449,5.0215,5.0019,4.9141,4.8926,4.8691,4.7832,4.6953,4.6328,4.6308,4.6308,4.6308,4.6308,4.6308,4.6308,4.6308,4.6308,4.6308,4.6308,4.6308,4.6308,4.6308,4.6308,4.6308,4.6308,4.6308,4.6308,4.6307,4.6307,4.6305,4.6294,4.6293,4.6309,4.6302,4.63,4.63,4.63,4.63,4.63,4.63,4.63,4.63,4.63,4.63,4.63,4.63,4.63,4.63,4.63,4.63,4.63,4.63,4.63,4.63,4.63,4.63,4.63,4.63,4.63,4.63,4.63,4.5821,4.6261,4.6752,4.7101,4.7629,4.8419,4.9562,4.9743,5.0015,5.0815,5.094,5.0953,5.0905,5.0905,5.0905,5.0905,5.0905,5.0905,5.0905,5.0946,5.094,5.0907,5.0859,5.0835,5.0835,5.0966,5.1074,5.1141,5.1263,5.1363,5.1406,5.1406,5.1406,5.1406,5.1406,5.1406,5.1406,5.1406,5.1406,5.1406,5.1406,5.1406,5.1406,5.1406,5.1406,5.1406,5.1406,5.1406,5.1406,5.1406,5.1406,5.1405,5.1405,5.1406,5.1347,5.1113,5.1035,5.0996,5.0723,5.0234,4.9609,4.873,4.832,4.7969,4.7344,4.7207,4.7031,4.6426,4.6308,4.6308,4.6308,4.6308,4.6308,4.6308,4.6308,4.6308,4.6308,4.6308,4.6308,4.6308,4.6308,4.6307,4.6307,4.6302,4.6297,4.6293,4.6308,4.6303,4.63,4.63,4.6267,4.615,4.6247,4.6247,4.615,4.6247,4.63,4.63,4.63,4.63,4.63,4.63,4.63,4.63,4.63,4.63,4.63,4.63,4.63,4.63,4.63,4.63,4.63,4.63,4.63,4.63,4.6955,4.7368,4.7805,4.8264,4.8725,4.9312,5.0223,5.0345,5.0505,5.0936,5.1047,5.1058,5.1008,5.1002,5.1002,5.1002,5.1002,5.0989,5.1006,5.1049,5.1064,5.103,5.1058,5.1025,5.0979,5.1084,5.1154,5.1204,5.132,5.1406,5.1406,5.1406,5.1406,5.1406,5.1406,5.1406,5.1406,5.1406,5.1406,5.1406,5.1406,5.1406,5.1406,5.1406,5.1406,5.1406,5.1406,5.1406,5.1406,5.1406,5.1406,5.1406,5.1406,5.1406,5.1406,5.1406,5.1406,5.1406,5.1406,5.1035,5.0547,5.0019,4.9394,4.8769,4.8223,4.8105,4.7871,4.6992,4.6816,4.6719,4.6367,4.6308,4.6308,4.6308,4.6308,4.6308,4.6308,4.6308,4.6308,4.6308,4.6307,4.6306,4.6303,4.6297,4.6291,4.6308,4.6303,4.6275,4.6216,4.6216,4.617,4.6037,4.6098,4.6102,4.6013,4.6102,4.6206,4.63,4.6245,4.6245,4.63,4.6245,4.6216,4.6214,4.6153,4.6176,4.6216,4.6216,4.6216,4.6238,4.6275,4.6271,4.6238,4.6275,4.63,4.63,4.8622,4.8713,4.8957,4.9935,5.0018,5.0228,5.1086,5.1214,5.1163,5.1053,5.1141,5.1163,5.1047,5.1036,5.1036,5.1036,5.1042,5.1033,5.1045,5.1148,5.1186,5.1126,5.1232,5.1258,5.1126,5.1171,5.1206,5.121,5.1343,5.1406,5.1406,5.1406,5.1406,5.1406,5.1406,5.1406,5.1406,5.1406,5.1406,5.1406,5.1406,5.1406,5.1406,5.1406,5.1406,5.1406,5.1406,5.1406,5.1406,5.1406,5.1406,5.1406,5.1406,5.1406,5.1406,5.1406,5.1406,5.1406,5.1406,5.1406,5.1406,5.1406,5.0254,4.9101,4.9023,4.9023,4.8769,4.7891,4.7715,4.7441,4.6582,4.6426,4.6387,4.6308,4.6308,4.6308,4.6308,4.6308,4.6308,4.6307,4.6307,4.6304,4.6294,4.6293,4.6308,4.6277,4.6275,4.6216,4.6095,4.6072,4.6013,4.5889,4.5894,4.5899,4.5889,4.5889,4.6024,4.6269,4.6141,4.6144,4.6269,4.6138,4.6072,4.6087,4.5945,4.5978,4.6072,4.6072,4.6072,4.6098,4.6214,4.6184,4.6098,4.624,4.6275,4.6277,4.8751,4.9306,4.9828,5.0063,5.0635,5.1113,5.1338,5.136,5.1355,5.1325,5.1333,5.1355,5.1322,5.1302,5.1302,5.1302,5.1313,5.1301,5.1306,5.1341,5.1349,5.1331,5.1358,5.136,5.1339,5.1304,5.1309,5.1365,5.1386,5.1406,5.1406,5.1406,5.1406,5.1406,5.1406,5.1406,5.1406,5.1406,5.1406,5.1406,5.1406,5.1406,5.1406,5.1406,5.1406,5.1406,5.1406,5.1406,5.1406,5.1406,5.1406,5.1406,5.1406,5.1406,5.1406,5.1406,5.1406,5.1406,5.1406,5.1406,5.1406,5.1406,5.1133,5.0683,5.0058,4.9922,4.9668,4.8808,4.8613,4.8359,4.748,4.7324,4.709,4.6406,4.6308,4.6308,4.6308,4.6308,4.6308,4.6307,4.6305,4.6301,4.6294,4.6306,4.6251,4.6147,4.6141,4.6072,4.5945,4.5935,4.5908,4.5815,4.5875,4.5875,4.5815,4.5815,4.5877,4.5987,4.5969,4.5969,4.5987,4.5969,4.5935,4.5935,4.591,4.5915,4.5935,4.5935,4.5935,4.5959,4.5983,4.5978,4.5969,4.6095,4.6141,4.617,4.9969,5.0418,5.0709,5.0709,5.1102,5.1394,5.1394,5.1394,5.1394,5.1394,5.1394,5.1394,5.1394,5.1394,5.1396,5.1402,5.1409,5.1395,5.1398,5.1401,5.1404,5.1406,5.1406,5.1406,5.1406,5.1363,5.1363,5.1406,5.1406,5.1406,5.1406,5.1406,5.1406,5.1406,5.1406,5.1406,5.1406,5.1406,5.1406,5.1406,5.1406,5.1406,5.1406,5.1406,5.1406,5.1406,5.1406,5.1406,5.1406,5.1406,5.1406,5.1406,5.1406,5.1406,5.1406,5.1406,5.1406,5.1406,5.1406,5.1406,5.1406,5.1406,5.1406,5.1289,5.0879,5.0762,5.0527,4.9687,4.9512,4.9258,4.8379,4.8223,4.793,4.7051,4.6914,4.6777,4.6367,4.6308,4.6308,4.6305,4.6303,4.6274,4.6204,4.6194,4.6144,4.6009,4.6,4.5959,4.5859,4.5853,4.5815,4.5715,4.5733,4.574,4.5696,4.5688,4.5715,4.5756,4.5822,4.5869,4.5899,4.5863,4.5853,4.5853,4.5783,4.5796,4.5853,4.5853,4.5853,4.5859,4.5883,4.5886,4.5852,4.5964,4.6049,4.6105,5.1258,5.1394,5.1394,5.1394,5.1394,5.1394,5.1394,5.1394,5.1394,5.1394,5.1394,5.1394,5.1394,5.1396,5.1402,5.1391,5.1397,5.1402,5.1405,5.1405,5.1406,5.1406,5.1406,5.1406,5.1406,5.1406,5.1406,5.1406,5.1406,5.1406,5.1406,5.1406,5.1406,5.1406,5.1406,5.1406,5.1406,5.1406,5.1406,5.1406,5.1406,5.1406,5.1406,5.1406,5.1406,5.1406,5.1406,5.1406,5.1406,5.1406,5.1406,5.1406,5.1406,5.1406,5.1406,5.1406,5.1406,5.1406,5.1406,5.1406,5.1406,5.1406,5.1406,5.1406,5.1406,5.1406,5.1211,5.0547,5.041,5.0137,4.9277,4.9121,4.8848,4.7969,4.7812,4.7578,4.6855,4.6738,4.6698,4.6537,4.6374,4.6214,4.6072,4.6061,4.6005,4.5883,4.5872,4.5859,4.5771,4.5764,4.5704,4.5594,4.5594,4.5594,4.5594,4.5594,4.5594,4.5594,4.5704,4.5789,4.5858,4.5782,4.5764,4.5757,4.5654,4.566,4.5764,4.5764,4.5764,4.5778,4.5841,4.5816,4.5786,4.5846,4.5964,4.6064,5.1375,5.1394,5.1394,5.1394,5.1394,5.1394,5.1394,5.1394,5.1394,5.1394,5.1394,5.1394,5.1394,5.1403,5.1391,5.1397,5.1402,5.1404,5.1405,5.1406,5.1406,5.1406,5.1406,5.1406,5.1406,5.1406,5.1406,5.1406,5.1406,5.1406,5.1406,5.1406,5.1406,5.1406,5.1406,5.1406,5.1406,5.1406,5.1406,5.1406,5.1406,5.1406,5.1406,5.1406,5.1406,5.1406,5.1406,5.1406,5.1406,5.1406,5.1406,5.1406,5.1406,5.1406,5.1406,5.1406,5.1406,5.1406,5.1406,5.1406,5.1406,5.1406,5.1406,5.1406,5.1406,5.1406,5.1367,5.1269,5.123,5.0996,5.0176,5.0019,4.9746,4.8867,4.8711,4.8672,4.8555,4.8554,4.8279,4.7513,4.6655,4.6072,4.5935,4.5925,4.5897,4.5828,4.5815,4.5771,4.5637,4.5629,4.562,4.5594,4.5594,4.5594,4.5594,4.5594,4.5594,4.5594,4.562,4.5627,4.5643,4.5618,4.5629,4.5629,4.5603,4.5603,4.5629,4.5629,4.5629,4.5629,4.5635,4.5635,4.5635,4.5778,4.5859,4.5935,5.1394,5.1394,5.1394,5.1394,5.1394,5.1394,5.1394,5.1394,5.1394,5.1394,5.14,5.1403,5.1403,5.1395,5.1401,5.1402,5.1854,5.1914,5.1425,5.2305,5.2637,5.2148,5.2598,5.2851,5.2851,5.2851,5.2851,5.2851,5.1875,5.1406,5.1406,5.1406,5.166,5.2129,5.2129,5.2402,5.2851,5.2851,5.2578,5.2168,5.2656,5.2266,5.1445,5.1933,5.1816,5.1406,5.1406,5.1406,5.1406,5.1406,5.1406,5.1406,5.1406,5.1406,5.1406,5.1406,5.1406,5.1406,5.1406,5.1406,5.1406,5.1406,5.1406,5.1406,5.1406,5.1406,5.1406,5.1406,5.1406,5.1289,5.0937,5.0879,5.0605,4.9766,4.9629,4.9431,4.8874,4.8786,4.863,4.8168,4.7271,4.6658,4.6539,4.6106,4.5802,4.57,4.5692,4.566,4.5594,4.5594,4.5594,4.5594,4.5594,4.5594,4.5594,4.5594,4.5594,4.5594,4.5594,4.5594,4.5594,4.5594,4.5594,4.5594,4.5594,4.5594,4.5594,4.5594,4.5594,4.5594,4.5594,4.5594,4.5603,4.566,4.5752,4.5859]}]]